Date StartTime U_cm/s V_cm/s W_cm/s Ustd_cm/s Vstd_cm/s Wstd_cm/s Uvar_(cm/s)^2 Vvar_(cm/s)^2 Wvar_(cm/s)^2 KE_(m/s)^2 TurbulentKE_(m/s)^2 HorizWindSpeed_cm/s FrictionSpeec_cm/s DragCoef SpeedOfSound_m/s SonicTemperature_C Pressure_mb 
03/01/2014  00:00:00        2.423       -7.475        5.611       16.848       23.324       16.409      283.848      544.030      269.252        0.060        0.055        7.858       15.834        4.060      335.261        5.777      844.962
03/01/2014  00:01:00       10.513      -31.876       11.364       18.709       26.010       19.960      350.042      676.499      398.388        0.134        0.071       33.565        9.627        0.082      335.235        5.733      844.969
03/01/2014  00:02:00      -20.877      -26.745        0.604       22.531       27.732       15.668      507.658      769.079      245.493        0.134        0.076       33.929        6.888        0.041      335.271        5.792      844.981
03/01/2014  00:03:00      -31.711       -7.943        2.796       24.112       30.022       17.455      581.372      901.338      304.682        0.143        0.089       32.691       17.184        0.276      335.229        5.722      844.991
03/01/2014  00:04:00      -46.739      -45.156       10.332       45.622       26.949       24.240     2081.362      726.227      587.594        0.386        0.170       64.989       18.305        0.079      335.291        5.826      844.995
03/01/2014  00:05:00      -95.030      -62.168        5.204       48.483       26.502       24.259     2350.573      702.369      588.481        0.828        0.182      113.559       23.166        0.042      335.271        5.792      844.995
03/01/2014  00:06:00      -96.185      -92.695       -3.496       42.807       36.486       20.679     1832.455     1331.237      427.617        1.072        0.180      133.581       21.174        0.025      335.248        5.754      845.011
03/01/2014  00:07:00      -97.939      -93.426       -1.115       40.245       25.185       18.955     1619.674      634.291      359.293        1.047        0.131      135.353       12.748        0.009      335.263        5.778      845.031
03/01/2014  00:08:00     -114.155      -95.464       -9.240       38.994       27.106       21.043     1520.567      734.736      442.815        1.246        0.135      148.811       26.122        0.031      335.185        5.653      845.030
03/01/2014  00:09:00      -54.206      -44.604       -3.133       22.835       19.057       13.782      521.438      363.178      189.943        0.301        0.054       70.199       14.491        0.043      335.225        5.715      845.011
03/01/2014  00:10:00      -50.649      -58.500       -6.100       10.848       25.345       10.798      117.670      642.364      116.602        0.345        0.044       77.380        6.780        0.008      335.264        5.780      845.033
03/01/2014  00:11:00      -16.002      -20.824       -2.192       25.547       16.911       16.978      652.661      285.989      288.254        0.096        0.061       26.262       10.380        0.156      335.407        6.020      845.095
03/01/2014  00:12:00       14.055      -34.535        0.954       29.069       24.362       23.375      845.026      593.483      546.413        0.169        0.099       37.286       15.253        0.167      335.476        6.135      845.166
03/01/2014  00:13:00      -74.085      -70.734        4.101       84.209       51.816       37.560     7091.181     2684.851     1410.777        1.085        0.559      102.430       40.349        0.155      335.370        5.958      845.225
03/01/2014  00:14:00      -25.669     -118.200       -3.528       36.804       51.075       25.358     1354.502     2608.647      643.011        0.962        0.230      120.955       21.503        0.032      335.299        5.839      845.252
03/01/2014  00:15:00      -52.450      -37.644        4.647       28.034       23.524       20.801      785.897      553.362      432.680        0.298        0.089       64.561       11.425        0.031      335.314        5.865      845.218
03/01/2014  00:16:00       -0.477       29.281       34.883       31.428       34.238       34.714      987.727     1172.233     1205.058        0.272        0.168       29.285       20.741        0.502      335.322        5.877      845.145
03/01/2014  00:17:00       -0.867      116.312      132.135       36.227       48.235       32.999     1312.411     2326.615     1088.903        1.786        0.236      116.315       32.560        0.078      335.236        5.737      845.068
03/01/2014  00:18:00      113.185       75.375       40.514       48.542       43.441       40.366     2356.304     1887.146     1629.403        1.300        0.294      135.986       30.772        0.051      335.247        5.752      845.058
03/01/2014  00:19:00       31.448      -13.452       17.536       30.071       54.614       25.101      904.278     2982.721      630.066        0.300        0.226       34.204       30.280        0.784      335.205        5.684      845.139
03/01/2014  00:20:00      -41.057      -27.844      -21.269       48.523       43.144       18.811     2354.512     1861.411      353.866        0.374        0.228       49.608       13.157        0.070      335.270        5.792      845.235
03/01/2014  00:21:00      -70.962      -47.694       10.821       60.847       38.166       26.582     3702.370     1456.620      706.620        0.665        0.293       85.500       27.805        0.106      335.407        6.021      845.280
03/01/2014  00:22:00      -77.729      -71.871       -3.453       58.926       46.452       27.588     3472.244     2157.755      761.112        0.880        0.320      105.864       28.915        0.075      335.273        5.795      845.294
03/01/2014  00:23:00      -18.703        2.449       24.150       43.390       30.885       18.853     1882.709      953.886      355.435        0.206        0.160       18.862       21.341        1.280      335.219        5.706      845.274
03/01/2014  00:24:00       24.787       53.747       11.565       25.900       39.615       23.780      670.799     1569.387      565.505        0.322        0.140       59.187       20.361        0.118      335.074        5.467      845.224
03/01/2014  00:25:00       27.464       24.226      -12.715       33.643       31.126       20.486     1131.868      968.798      419.683        0.201        0.126       36.622       17.843        0.237      335.156        5.603      845.224
03/01/2014  00:26:00       22.417      -37.483       -9.643       26.193       25.487       17.185      686.068      649.605      295.335        0.182        0.082       43.675       13.552        0.096      335.208        5.691      845.288
03/01/2014  00:27:00       -8.584        4.885       -8.683       17.054       18.570        9.929      290.832      344.829       98.585        0.045        0.037        9.876        6.537        0.438      335.195        5.668      845.352
03/01/2014  00:28:00      -23.909       30.448        0.906       18.147       14.263       16.638      329.309      203.421      276.814        0.115        0.040       38.714       13.652        0.124      335.183        5.647      845.357
03/01/2014  00:29:00       22.316       26.971       -8.080       19.952       12.184       14.775      398.084      148.450      218.295        0.103        0.038       35.006       12.092        0.119      335.202        5.680      845.344
03/01/2014  00:30:00       40.106       31.559       -0.045       25.096       22.145       13.990      629.792      490.382      195.723        0.196        0.066       51.034       11.454        0.050      335.221        5.710      845.351
03/01/2014  00:31:00       27.335       38.075       20.163       17.247       18.551       22.859      297.456      344.123      522.526        0.188        0.058       46.871       14.208        0.092      335.199        5.673      845.367
03/01/2014  00:32:00        6.703       29.341       31.768       12.279       18.050        8.654      150.774      325.820       74.896        0.123        0.028       30.097        2.227        0.005      335.250        5.756      845.391
03/01/2014  00:33:00       44.767       52.055       31.402       18.859       11.769       14.842      355.666      138.500      220.271        0.321        0.036       68.657       11.308        0.027      335.250        5.756      845.415
03/01/2014  00:34:00       19.992       55.872       49.267       20.811       17.899       14.109      433.119      320.361      199.062        0.345        0.048       59.341        9.027        0.023      335.276        5.801      845.433
03/01/2014  00:35:00        3.451       34.459       49.857       16.891       24.139        9.637      285.314      582.670       92.880        0.232        0.048       34.632       12.402        0.128      335.253        5.762      845.456
03/01/2014  00:36:00       -3.038       12.807       37.350        9.854       12.444       10.471       97.108      154.861      109.642        0.096        0.018       13.162        9.156        0.484      335.333        5.894      845.499
03/01/2014  00:37:00       -1.783        6.713       19.544        7.562       10.551        5.984       57.180      111.314       35.809        0.032        0.010        6.946        3.855        0.308      335.397        6.001      845.533
03/01/2014  00:38:00       18.740       20.593        9.754       15.918       12.283       11.591      253.396      150.881      134.342        0.070        0.027       27.844        6.294        0.051      335.303        5.846      845.560
03/01/2014  00:39:00       49.335       48.684       34.638       23.157       19.451       14.526      536.257      378.326      211.014        0.356        0.056       69.311        9.613        0.019      335.244        5.748      845.591
03/01/2014  00:40:00       76.338       64.664       21.934       39.163       17.585       21.718     1533.746      309.220      471.680        0.640        0.116      100.045       19.774        0.039      335.220        5.709      845.598
03/01/2014  00:41:00      110.566       59.982       -3.469       20.147       23.272       20.607      405.885      541.600      424.643        0.860        0.069      125.788        7.376        0.003      335.152        5.594      845.587
03/01/2014  00:42:00       48.028       38.200       13.064       26.742       20.371       21.734      715.140      414.976      472.377        0.277        0.080       61.367       15.664        0.065      335.154        5.599      845.589
03/01/2014  00:43:00       18.116       25.401       -2.691       13.454        7.486       11.653      181.001       56.037      135.785        0.068        0.019       31.199       10.327        0.110      335.100        5.510      845.609
03/01/2014  00:44:00      -52.747       13.140       -6.926       34.933       11.606        7.569     1220.303      134.694       57.292        0.221        0.071       54.359        6.852        0.016      335.212        5.695      845.627
03/01/2014  00:45:00      -95.893        3.576      -11.855       22.082       16.254       12.157      487.604      264.205      147.789        0.512        0.045       95.960        9.507        0.010      335.381        5.976      845.613
03/01/2014  00:46:00     -124.796       14.281      -17.236       42.973       40.983       24.411     1846.681     1679.571      595.912        1.010        0.206      125.610       19.507        0.024      335.635        6.400      845.598
03/01/2014  00:47:00     -132.796       73.284      -17.637       72.329       95.241       38.915     5231.451     9070.938     1514.362        1.956        0.791      151.675       30.085        0.039      335.707        6.521      845.600
03/01/2014  00:48:00     -238.879      -64.582      -10.112       86.143       55.625       43.495     7420.619     3094.116     1891.850        3.687        0.620      247.455       39.246        0.025      335.645        6.414      845.609
03/01/2014  00:49:00     -119.278      -60.725       -1.667       64.474       39.282       29.711     4156.842     1543.092      882.754        1.225        0.329      133.846       27.245        0.041      335.698        6.505      845.637
03/01/2014  00:50:00      -49.039      -28.104        6.039       58.239       21.879       27.714     3391.749      478.683      768.082        0.393        0.232       56.522       34.445        0.371      335.709        6.525      845.680
03/01/2014  00:51:00      -15.770        0.362        5.038       19.793       16.086       15.719      391.767      258.753      247.078        0.059        0.045       15.774       11.724        0.552      335.675        6.466      845.686
03/01/2014  00:52:00      -43.720      -36.610       -3.198       29.997       34.715       13.919      899.838     1205.150      193.741        0.278        0.115       57.024        9.708        0.029      335.738        6.572      845.708
03/01/2014  00:53:00      -79.952      -56.372       -2.610       50.447       39.450       17.806     2544.876     1556.325      317.069        0.700        0.221       97.827       16.048        0.027      335.749        6.592      845.754
03/01/2014  00:54:00     -107.397     -102.686        7.291       75.154       51.383       40.867     5648.052     2640.224     1670.079        1.604        0.498      148.588       38.364        0.067      335.685        6.482      845.810
03/01/2014  00:55:00     -136.138     -118.678       -6.043      107.665       89.419       55.020    11591.812     7995.799     3027.236        2.763        1.131      180.605       55.326        0.094      335.610        6.356      845.811
03/01/2014  00:56:00     -185.719     -127.299      -11.683       82.651       72.787       45.727     6831.261     5297.972     2090.962        3.252        0.711      225.159       44.235        0.039      335.620        6.373      845.845
03/01/2014  00:57:00      -89.568      -80.280        6.564       69.622       71.847       40.476     4847.161     5162.057     1638.298        1.308        0.582      120.280       34.513        0.082      335.676        6.467      845.858
03/01/2014  00:58:00     -178.961      -71.120      -14.931       83.372       92.296       51.016     6950.831     8518.629     2602.642        2.769        0.904      192.575        8.769        0.002      335.609        6.355      845.877
03/01/2014  00:59:00     -118.926     -113.854       -7.316       72.696       88.755       30.604     5284.666     7877.375      936.577        2.063        0.705      164.639       22.328        0.018      335.655        6.434      845.906
03/01/2014  01:00:00     -109.729     -163.773       -4.472      136.718       69.001       39.505    18691.769     4761.087     1560.657        3.194        1.251      197.135       41.673        0.045      335.668        6.453      845.918
03/01/2014  01:01:00     -161.756     -116.397       -6.775       58.171       61.241       31.514     3383.848     3750.511      993.138        2.394        0.406      199.282       20.004        0.010      335.601        6.343      845.949
03/01/2014  01:02:00      -93.687      -75.967        1.834       47.300       48.321       30.971     2237.250     2334.886      959.217        1.004        0.277      120.616       30.649        0.065      335.615        6.367      845.974
03/01/2014  01:03:00      -31.036      -60.361       20.612       57.622       47.889       30.226     3320.327     2293.310      913.614        0.578        0.326       67.873       34.987        0.266      335.646        6.419      845.947
03/01/2014  01:04:00      -43.526      -49.410       13.364       78.934       63.912       30.347     6230.505     4084.775      920.948        0.787        0.562       65.847       29.703        0.203      335.631        6.392      845.926
03/01/2014  01:05:00     -185.330      -29.877        2.091      114.740       81.505       44.122    13165.183     6643.082     1946.737        2.850        1.088      187.723       45.418        0.059      335.556        6.267      845.928
03/01/2014  01:06:00     -163.105      -67.034       10.067       89.487       71.321       40.444     8007.921     5086.639     1635.690        2.296        0.737      176.343       32.405        0.034      335.527        6.217      845.945
03/01/2014  01:07:00      -48.803      -41.908       14.430       65.513       41.109       29.797     4292.012     1689.971      887.854        0.561        0.343       64.328       30.123        0.219      335.558        6.272      845.987
03/01/2014  01:08:00     -129.670      -59.868       -3.503      102.840      121.991       54.594    10576.122    14881.710     2980.533        2.442        1.422      142.823       52.615        0.136      335.551        6.259      846.033
03/01/2014  01:09:00     -222.912      -89.443      -12.772       78.967       78.632       35.812     6235.780     6182.916     1282.518        3.577        0.685      240.187       38.420        0.026      335.515        6.197      846.047
03/01/2014  01:10:00      -93.429      -90.993        7.477       72.573       63.777       46.579     5266.772     4067.449     2169.597        1.428        0.575      130.418       48.660        0.139      335.492        6.161      846.051
03/01/2014  01:11:00     -141.247     -122.070        5.485       74.566       67.319       44.034     5560.128     4531.818     1938.971        2.345        0.602      186.686       43.073        0.053      335.478        6.136      846.050
03/01/2014  01:12:00     -110.425     -118.035       -5.352      103.374       85.876       44.059    10686.272     7374.721     1941.185        2.308        1.000      161.635       51.597        0.102      335.512        6.192      846.061
03/01/2014  01:13:00      -26.212      -71.137        8.534       72.237       47.074       34.668     5218.146     2215.951     1201.873        0.723        0.432       75.813       32.965        0.189      335.497        6.171      846.064
03/01/2014  01:14:00      -57.400      -62.178        2.297       71.446       33.547       30.441     5104.532     1125.397      926.637        0.716        0.358       84.622       26.216        0.096      335.501        6.176      846.065
03/01/2014  01:15:00      -67.406      -53.430       -7.310       51.564       51.323       25.794     2658.811     2634.055      665.329        0.670        0.298       86.013       15.098        0.031      335.486        6.153      846.058
03/01/2014  01:16:00      -73.830      -88.397        4.091       46.506       50.186       30.302     2162.799     2518.632      918.188        0.944        0.280      115.173       25.356        0.048      335.502        6.178      846.062
03/01/2014  01:17:00     -111.930     -117.575        1.618       77.248       64.847       47.949     5967.322     4205.164     2299.129        1.941        0.624      162.334       41.431        0.065      335.448        6.087      846.086
03/01/2014  01:18:00     -108.662     -136.153        2.792       84.690       56.578       45.467     7172.377     3201.038     2067.286        2.139        0.622      174.198       47.134        0.073      335.424        6.048      846.097
03/01/2014  01:19:00      -48.873     -118.150        0.007       44.177       48.894       33.717     1951.581     2390.627     1136.810        1.091        0.274      127.860       29.344        0.053      335.482        6.144      846.093
03/01/2014  01:20:00      -60.767      -51.077       11.407       50.809       44.626       27.195     2581.537     1991.462      739.549        0.587        0.266       79.382       29.252        0.136      335.403        6.013      846.107
03/01/2014  01:21:00      -47.704     -103.738        1.146       62.141       60.158       35.124     3861.462     3618.939     1233.706        1.087        0.436      114.181       33.752        0.087      335.437        6.071      846.132
03/01/2014  01:22:00     -134.414      -97.397       -8.215       51.087       34.987       30.061     2609.839     1224.079      903.659        1.618        0.237      165.992       27.423        0.027      335.421        6.044      846.149
03/01/2014  01:23:00     -156.215      -57.065       -3.239       59.993       56.386       30.271     3599.168     3179.390      916.313        1.768        0.385      166.312       33.535        0.041      335.336        5.899      846.154
03/01/2014  01:24:00     -140.290     -119.921        3.459       69.527       73.029       44.638     4833.939     5333.191     1992.517        2.311        0.608      184.560       39.131        0.045      335.335        5.897      846.158
03/01/2014  01:25:00     -146.017     -108.485       -6.204       60.742       43.628       30.440     3689.557     1903.417      926.571        1.982        0.326      181.906       26.323        0.021      335.300        5.839      846.154
03/01/2014  01:26:00     -132.518      -84.187        0.676       52.739       51.833       33.686     2781.411     2686.624     1134.750        1.562        0.330      156.999       29.831        0.036      335.281        5.809      846.168
03/01/2014  01:27:00      -84.458      -78.420       14.111       67.538       43.906       30.836     4561.367     1927.743      950.860        1.046        0.372      115.251       33.506        0.085      335.323        5.879      846.229
03/01/2014  01:28:00     -169.900     -150.467      -13.438       98.792       83.271       37.427     9759.847     6934.086     1400.776        3.489        0.905      226.950       42.165        0.035      335.309        5.853      846.268
03/01/2014  01:29:00     -124.183      -99.257        3.240       81.609       50.182       36.204     6660.102     2518.266     1310.718        1.788        0.524      158.976       39.102        0.060      335.255        5.765      846.268
03/01/2014  01:30:00      -89.021      -98.730       -1.180       65.265       57.712       38.970     4259.512     3330.624     1518.648        1.339        0.455      132.937       39.394        0.088      335.268        5.786      846.294
03/01/2014  01:31:00     -156.906      -77.857      -12.326       65.764       42.876       35.208     4324.902     1838.343     1239.572        1.912        0.370      175.161       33.943        0.038      335.256        5.765      846.312
03/01/2014  01:32:00      -50.740      -79.340        3.776       54.775       37.449       26.817     3000.348     1402.432      719.139        0.700        0.256       94.178       20.580        0.048      335.283        5.811      846.310
03/01/2014  01:33:00      -77.176      -39.156       -5.694       38.273       48.367       24.888     1464.833     2339.336      619.395        0.597        0.221       86.541       18.259        0.045      335.241        5.742      846.255
03/01/2014  01:34:00     -117.606       16.715      -16.360       38.047       19.926       22.295     1447.571      397.035      497.081        0.836        0.117      118.788       18.949        0.025      335.225        5.716      846.232
03/01/2014  01:35:00     -120.903       10.678       -9.360       39.138       42.016       24.004     1531.754     1765.385      576.178        0.935        0.194      121.374       20.754        0.029      335.219        5.705      846.259
03/01/2014  01:36:00     -140.911      -43.763       -4.552       73.671       45.154       31.029     5427.385     2038.907      962.782        1.511        0.421      147.551       38.306        0.067      335.189        5.657      846.324
03/01/2014  01:37:00     -172.511      -62.829        1.624       99.547       67.504       36.959     9909.586     4556.764     1365.958        2.477        0.792      183.596       45.118        0.060      335.134        5.565      846.360
03/01/2014  01:38:00     -164.613      -19.321      -10.242       61.124       59.147       33.668     3736.085     3498.355     1133.505        1.797        0.418      165.743       28.811        0.030      335.118        5.540      846.377
03/01/2014  01:39:00      -71.615       -5.285        9.120       29.451       41.455       25.975      867.350     1718.522      674.715        0.425        0.163       71.810       26.917        0.141      335.091        5.496      846.352
03/01/2014  01:40:00     -154.700     -101.518      -15.653       42.248       52.097       18.979     1784.871     2714.117      360.211        1.967        0.243      185.035       17.164        0.009      335.124        5.549      846.367
03/01/2014  01:41:00     -185.040      -94.034       -5.221      112.163       55.464       47.728    12580.648     3076.232     2277.924        3.052        0.897      207.563       59.116        0.081      335.183        5.644      846.401
03/01/2014  01:42:00     -133.885     -121.480       10.726       90.278       80.708       47.840     8150.038     6513.706     2288.683        2.487        0.848      180.783       46.861        0.067      335.183        5.646      846.418
03/01/2014  01:43:00     -163.899      -86.774       -8.546       69.065       67.109       39.370     4769.950     4503.597     1549.992        2.264        0.541      185.452       34.724        0.035      335.136        5.570      846.429
03/01/2014  01:44:00     -120.831      -49.854        0.848       76.094       46.793       40.181     5790.260     2189.577     1614.510        1.334        0.480      130.712       45.531        0.121      335.137        5.571      846.441
03/01/2014  01:45:00     -128.079      -78.794       -9.356       49.101       38.559       25.743     2410.939     1486.828      662.677        1.363        0.228      150.375       25.372        0.028      335.135        5.569      846.442
03/01/2014  01:46:00      -94.022      -56.918       -1.603       66.227       51.760       26.179     4386.004     2679.092      685.344        0.992        0.388      109.908       18.857        0.029      335.108        5.523      846.437
03/01/2014  01:47:00     -158.064      -51.638      -12.113       53.109       51.684       25.281     2820.548     2671.283      639.127        1.696        0.307      166.285       17.604        0.011      335.065        5.453      846.437
03/01/2014  01:48:00     -165.887      -91.597        4.792       83.274       66.242       36.400     6934.511     4388.053     1324.950        2.429        0.632      189.496       38.476        0.041      335.098        5.507      846.427
03/01/2014  01:49:00     -161.171      -69.509        4.617      103.797       86.100       47.595    10773.868     7413.293     2265.268        2.564        1.023      175.520       55.635        0.100      335.042        5.411      846.420
03/01/2014  01:50:00     -245.274      -73.908       -2.540       61.760       52.113       34.615     3814.244     2715.760     1198.186        3.668        0.386      256.167       32.865        0.016      335.028        5.389      846.411
03/01/2014  01:51:00     -229.186     -103.147       -7.118       90.912       74.024       46.523     8264.923     5479.617     2164.354        3.956        0.795      251.328       38.598        0.024      335.061        5.442      846.417
03/01/2014  01:52:00     -222.417      -16.442       -4.134       72.366       78.355       38.337     5236.901     6139.480     1469.691        3.130        0.642      223.024       38.871        0.030      335.026        5.384      846.429
03/01/2014  01:53:00     -222.746      -85.076        5.557       99.396       78.956       53.591     9879.589     6233.981     2872.016        3.793        0.949      238.440       53.119        0.050      334.994        5.331      846.447
03/01/2014  01:54:00     -173.571      -29.788       -8.048       86.793       64.431       44.838     7532.957     4151.391     2010.442        2.238        0.685      176.109       49.745        0.080      334.982        5.312      846.469
03/01/2014  01:55:00     -167.098      -80.342       -2.901       76.624       68.003       36.560     5871.230     4624.405     1336.612        2.311        0.592      185.409       41.518        0.050      335.016        5.369      846.477
03/01/2014  01:56:00     -163.864      -57.951        0.230       81.994       54.564       29.971     6723.019     2977.195      898.250        2.040        0.530      173.809       33.845        0.038      335.059        5.442      846.489
03/01/2014  01:57:00     -130.063      -69.481        7.762       72.831       76.573       41.560     5304.381     5863.482     1727.273        1.735        0.645      147.458       40.323        0.075      334.993        5.331      846.492
03/01/2014  01:58:00     -272.366      -94.337      -10.495      129.456      101.490       54.104    16758.950    10300.306     2927.269        5.658        1.499      288.241       59.961        0.043      335.058        5.437      846.490
03/01/2014  01:59:00     -218.523      -27.490       -6.786      119.896       61.038       45.954    14375.171     3725.672     2111.789        3.438        1.011      220.245       47.801        0.047      335.049        5.424      846.509
03/01/2014  02:00:00     -181.533      -32.710       -8.285       73.225       56.867       34.169     5361.950     3233.831     1167.546        2.193        0.488      184.456       32.446        0.031      335.082        5.481      846.500
03/01/2014  02:01:00     -329.797      -11.871      -14.806      103.144       73.367       46.365    10638.671     5382.762     2149.736        6.365        0.909      330.011       30.955        0.009      335.112        5.529      846.509
03/01/2014  02:02:00     -295.629      -81.190      -14.549      102.472       64.062       43.790    10500.508     4103.887     1917.556        5.536        0.826      306.575       46.224        0.023      335.117        5.536      846.534
03/01/2014  02:03:00     -163.441     -133.288       -6.868       85.503       72.734       40.513     7310.760     5290.242     1641.322        2.938        0.712      210.900       36.617        0.030      335.103        5.513      846.544
03/01/2014  02:04:00     -225.827      -63.223       -7.547      117.182       84.942       50.045    13731.663     7215.154     2504.510        3.925        1.173      234.510       51.979        0.049      335.097        5.504      846.558
03/01/2014  02:05:00     -175.212      -47.096      -10.426       96.096       73.699       42.787     9234.407     5431.538     1830.754        2.476        0.825      181.432       44.982        0.061      335.049        5.424      846.573
03/01/2014  02:06:00     -172.446      -39.423       -2.590       74.017       61.363       34.850     5478.455     3765.433     1214.550        2.088        0.523      176.895       25.637        0.021      335.055        5.435      846.578
03/01/2014  02:07:00     -159.053      -35.476       -7.949      103.448       65.576       34.842    10701.541     4300.221     1213.968        2.142        0.811      162.962       39.370        0.058      335.048        5.422      846.586
03/01/2014  02:08:00     -278.009      -55.876      -10.307      104.037       88.258       46.072    10823.692     7789.402     2122.595        5.062        1.037      283.569       46.992        0.027      335.042        5.411      846.595
03/01/2014  02:09:00     -351.298      -33.221      -15.485       94.445       77.135       54.619     8919.853     5949.795     2983.249        7.130        0.893      352.865       49.898        0.020      335.043        5.414      846.598
03/01/2014  02:10:00     -321.188     -109.440      -20.204      128.809      129.832       65.184    16591.683    16856.348     4248.957        7.662        1.885      339.321       61.366        0.033      335.123        5.546      846.591
03/01/2014  02:11:00     -186.955      -65.099        9.920      120.439      106.766       61.447    14505.597    11398.966     3775.705        3.448        1.484      197.965       57.496        0.084      335.086        5.485      846.585
03/01/2014  02:12:00     -203.193      -77.757       -3.071      116.082      107.193       51.561    13475.090    11490.242     2658.583        3.748        1.381      217.562       59.785        0.076      335.092        5.495      846.562
03/01/2014  02:13:00     -256.071      -64.294        2.532      207.644      109.785       56.809    43116.232    12052.670     3227.233        6.404        2.920      264.019       72.187        0.075      335.066        5.451      846.552
03/01/2014  02:14:00     -315.176      -84.495       -9.319      128.353      100.306       61.369    16474.392    10061.214     3766.182        6.843        1.515      326.306       69.946        0.046      335.107        5.520      846.531
03/01/2014  02:15:00     -326.469       11.861      -11.235       89.103       95.530       50.204     7939.328     9126.031     2520.395        6.321        0.979      326.684       43.592        0.018      335.044        5.414      846.534
03/01/2014  02:16:00     -301.170      -44.731       -9.454      124.338       88.582       55.296    15459.828     7846.713     3057.699        5.957        1.318      304.474       56.448        0.034      335.018        5.370      846.538
03/01/2014  02:17:00     -241.009      -10.989        7.122      162.613      115.856       68.120    26443.019    13422.573     4640.307        5.137        2.225      241.259       83.228        0.119      335.045        5.418      846.532
03/01/2014  02:18:00     -330.290        6.337      -23.288       96.588       85.728       55.311     9329.318     7349.364     3059.267        6.470        0.987      330.351       58.963        0.032      335.060        5.440      846.536
03/01/2014  02:19:00     -322.224      -62.008      -40.243      196.103      113.074       73.940    38456.279    12785.618     5467.057        8.299        2.835      328.136       79.058        0.058      335.089        5.490      846.503
03/01/2014  02:20:00     -345.924      -89.991       -7.685      126.318      124.187       64.499    15956.359    15422.425     4160.137        8.167        1.777      357.437       58.234        0.027      335.076        5.467      846.524
03/01/2014  02:21:00     -321.021      -36.553       -9.781      139.947      108.100       67.948    19585.187    11685.580     4616.918        7.018        1.794      323.095       72.873        0.051      335.014        5.365      846.541
03/01/2014  02:22:00     -476.239      -76.759       -5.704      193.087      149.103       75.492    37282.423    22231.717     5698.993       14.896        3.261      482.386       78.794        0.027      335.132        5.561      846.548
03/01/2014  02:23:00     -317.880      -97.160       -9.569      118.821      112.569       66.450    14118.527    12671.876     4415.572        7.089        1.560      332.397       61.068        0.034      335.138        5.572      846.557
03/01/2014  02:24:00     -260.809      -70.532        4.258      113.944      101.562       48.310    12983.162    10314.936     2333.887        4.932        1.282      270.178       48.350        0.032      335.086        5.485      846.574
03/01/2014  02:25:00     -338.474     -108.698        4.770      167.534      119.820       65.350    28067.526    14356.747     4270.673        8.654        2.335      355.499       71.812        0.041      335.042        5.411      846.573
03/01/2014  02:26:00     -317.080      -72.727        0.057      105.388      110.606       55.538    11106.641    12233.713     3084.472        6.612        1.321      325.314       50.655        0.024      334.975        5.299      846.597
03/01/2014  02:27:00     -334.442      -74.562       -2.916      152.077       94.049       59.513    23127.302     8845.286     3541.834        7.646        1.776      342.653       65.537        0.037      335.004        5.349      846.614
03/01/2014  02:28:00     -293.792      -78.651      -12.936      104.211      116.900       50.068    10859.838    13665.573     2506.815        5.985        1.352      304.138       35.766        0.014      334.974        5.298      846.612
03/01/2014  02:29:00     -404.854      -76.367      -48.604      109.928       92.701       51.429    12084.070     8593.397     2644.965        9.771        1.166      411.994       47.591        0.013      334.973        5.298      846.637
03/01/2014  02:30:00     -336.506      -85.108      -14.709      137.520       97.963       59.405    18911.754     9596.658     3528.905        7.636        1.602      347.102       61.908        0.032      334.950        5.258      846.657
03/01/2014  02:31:00     -363.727     -129.156      -15.692      101.852       94.771       57.284    10373.928     8981.636     3281.422        8.593        1.132      385.977       48.787        0.016      334.939        5.239      846.653
03/01/2014  02:32:00     -305.771      -73.543      -12.071      143.413      123.889       69.398    20567.284    15348.422     4816.094        6.988        2.037      314.490       70.959        0.051      334.941        5.245      846.653
03/01/2014  02:33:00     -427.867      -34.576      -34.294      113.084       88.873       57.764    12787.980     7898.402     3336.722       10.473        1.201      429.262       54.985        0.016      334.960        5.274      846.648
03/01/2014  02:34:00     -436.162     -111.349      -28.918       98.311      100.929       53.997     9665.109    10186.701     2915.718       11.312        1.138      450.151       51.039        0.013      334.912        5.195      846.649
03/01/2014  02:35:00     -371.241      -94.703      -17.492      130.822       89.199       64.500    17114.522     7956.447     4160.216        8.816        1.462      383.130       65.442        0.029      334.953        5.263      846.663
03/01/2014  02:36:00     -375.976      -90.572      -23.673      103.023      112.658       49.252    10613.755    12691.858     2425.722        8.792        1.287      386.731       52.207        0.018      334.906        5.185      846.681
03/01/2014  02:37:00     -274.043     -109.116      -12.377      116.076      100.668       58.978    13473.711    10134.011     3478.414        5.712        1.354      294.967       60.058        0.041      334.929        5.223      846.690
03/01/2014  02:38:00     -348.076     -134.829      -10.614      164.814      115.003       67.507    27163.566    13225.782     4557.242        9.219        2.247      373.277       74.613        0.040      334.940        5.241      846.710
03/01/2014  02:39:00     -327.972      -76.129      -16.339      118.913       90.688       50.799    14140.242     8224.349     2580.508        6.928        1.247      336.692       50.702        0.023      334.908        5.189      846.726
03/01/2014  02:40:00     -241.024      -59.845       -1.041       73.810       82.720       45.908     5447.921     6842.629     2107.525        3.803        0.720      248.343       41.935        0.029      334.858        5.105      846.729
03/01/2014  02:41:00     -322.959      -60.459       -7.391      109.686       74.488       47.269    12030.923     5548.413     2234.403        6.391        0.991      328.569       52.167        0.025      334.854        5.099      846.735
03/01/2014  02:42:00     -284.227      -67.378       -6.615       94.709      113.315       47.892     8969.804    12840.241     2293.671        5.473        1.205      292.104       43.086        0.022      334.878        5.138      846.737
03/01/2014  02:43:00     -241.634      -51.907       -4.708      115.458       88.724       45.719    13330.549     7872.010     2090.192        4.219        1.165      247.146       49.803        0.041      334.844        5.083      846.739
03/01/2014  02:44:00     -302.180      -96.257       -8.513      137.536       95.957       49.472    18916.146     9207.730     2447.521        6.561        1.529      317.141       60.275        0.036      334.828        5.055      846.726
03/01/2014  02:45:00     -215.674      -46.095       -2.239       92.412       84.466       48.041     8540.059     7134.487     2307.895        3.331        0.899      220.545       51.384        0.054      334.764        4.949      846.714
03/01/2014  02:46:00     -225.554      -75.508       -6.064      104.467       90.659       64.288    10913.298     8218.970     4132.934        3.994        1.163      237.858       53.827        0.051      334.793        4.998      846.705
03/01/2014  02:47:00     -247.525      -61.912       11.101      107.649       97.743       56.290    11588.355     9553.770     3168.508        4.476        1.216      255.151       52.101        0.042      334.773        4.963      846.699
03/01/2014  02:48:00     -346.266      -42.715      -21.115      143.794      104.631       56.892    20676.680    10947.571     3236.715        7.851        1.743      348.891       62.448        0.032      334.779        4.973      846.676
03/01/2014  02:49:00     -280.495      -64.338      -16.809      138.312      109.996       67.316    19130.338    12099.116     4531.439        5.942        1.788      287.779       70.206        0.060      334.798        5.006      846.642
03/01/2014  02:50:00     -391.136      -91.916      -13.264      109.862       96.042       63.121    12069.690     9224.107     3984.318        9.344        1.264      401.791       57.298        0.020      334.806        5.017      846.634
03/01/2014  02:51:00     -360.183     -147.369       -6.953      161.543      108.372       71.934    26096.226    11744.508     5174.544        9.725        2.151      389.165       76.771        0.039      334.782        4.978      846.629
03/01/2014  02:52:00     -452.463      -75.092      -23.586      164.841      113.228       71.936    27172.495    12820.568     5174.719       12.804        2.258      458.651       70.665        0.024      334.794        4.998      846.659
03/01/2014  02:53:00     -421.408      -23.311      -38.622      127.228      116.837       66.836    16186.909    13650.959     4467.039       10.696        1.715      422.052       62.338        0.022      334.811        5.026      846.653
03/01/2014  02:54:00     -435.972     -126.078      -24.108      139.666      130.805       69.521    19506.663    17110.028     4833.136       12.399        2.072      453.836       66.354        0.021      334.802        5.011      846.662
03/01/2014  02:55:00     -417.333      -72.440      -22.056      128.079      120.054       64.958    16404.176    14412.902     4219.578       10.746        1.752      423.574       48.850        0.013      334.807        5.020      846.672
03/01/2014  02:56:00     -328.508      -82.227      -10.551      167.433      131.823       72.675    28033.732    17377.292     5281.587        8.273        2.535      338.643       78.138        0.053      334.807        5.020      846.668
03/01/2014  02:57:00     -368.099      -19.007       -8.509      168.692       94.538       65.707    28457.062     8937.423     4317.426        8.881        2.086      368.589       75.484        0.042      334.778        4.973      846.650
03/01/2014  02:58:00     -348.856      -25.353       -1.351      165.616      124.345       71.765    27428.810    15461.661     5150.238        8.518        2.402      349.776       78.946        0.051      334.786        4.985      846.651
03/01/2014  02:59:00     -297.372      -42.494       -5.560      150.651      104.418       60.462    22695.820    10903.187     3655.664        6.375        1.863      300.393       63.461        0.045      334.771        4.961      846.675
03/01/2014  03:00:00     -328.126      -19.096       -4.714      156.160      105.282       63.532    24385.902    11084.325     4036.267        7.377        1.975      328.681       71.257        0.047      334.762        4.945      846.680
03/01/2014  03:01:00     -254.993      -29.638       -6.316      128.693       95.679       59.781    16561.814     9154.543     3573.782        4.761        1.465      256.710       63.770        0.062      334.793        4.997      846.672
03/01/2014  03:02:00     -304.368        8.869      -13.953      131.858       79.767       61.938    17386.404     6362.709     3836.339        6.024        1.379      304.497       68.407        0.050      334.768        4.955      846.677
03/01/2014  03:03:00     -396.113      -51.520      -24.149      149.839      128.319       65.492    22451.700    16465.666     4289.213       10.167        2.160      399.450       66.480        0.028      334.798        5.006      846.708
03/01/2014  03:04:00     -190.075      -80.443        0.162      104.099       93.456       52.536    10836.666     8734.073     2760.058        3.246        1.117      206.396       57.374        0.077      334.788        4.989      846.746
03/01/2014  03:05:00     -219.056      -45.234        6.919      132.482      120.653       70.958    17551.479    14557.028     5035.106        4.361        1.857      223.678       65.636        0.086      334.781        4.976      846.731
03/01/2014  03:06:00     -227.064      -69.555      -10.730      112.757      131.845       58.423    12714.135    17383.061     3413.193        4.501        1.676      237.478       49.390        0.043      334.795        5.000      846.768
03/01/2014  03:07:00     -293.719      -98.723      -10.945      125.426      113.307       65.390    15731.739    12838.570     4275.879        6.449        1.642      309.866       57.401        0.034      334.804        5.014      846.798
03/01/2014  03:08:00     -233.373     -177.498      -21.173      140.250      134.723       73.246    19669.993    18150.375     5364.936        6.479        2.159      293.204       77.399        0.070      334.795        5.001      846.786
03/01/2014  03:09:00     -319.120     -171.121      -10.143      146.035      130.788       73.253    21326.113    17105.399     5365.965        8.750        2.190      362.105       71.740        0.039      334.783        4.980      846.804
03/01/2014  03:10:00     -280.989      -48.133       -0.932      147.145      114.997       58.543    21651.716    13224.376     3427.246        5.978        1.915      285.081       53.754        0.036      334.780        4.974      846.822
03/01/2014  03:11:00     -462.070      -84.061      -10.499      130.187      159.094       68.970    16948.588    25310.995     4756.794       13.384        2.351      469.654       66.939        0.020      334.901        5.176      846.840
03/01/2014  03:12:00     -346.048      -98.836       -4.702      202.983      132.884       70.053    41201.988    17658.210     4907.365        9.664        3.188      359.886       93.840        0.068      334.813        5.030      846.849
03/01/2014  03:13:00     -299.482      -37.474        0.191      168.745      144.329       71.112    28474.864    20830.833     5056.976        7.272        2.718      301.817       79.731        0.070      334.852        5.094      846.854
03/01/2014  03:14:00     -266.346      -83.409       -4.239      124.745      110.802       73.704    15561.403    12276.980     5432.309        5.559        1.664      279.101       75.045        0.072      334.855        5.099      846.857
03/01/2014  03:15:00     -158.218      -86.517       15.926      130.554       98.726       58.316    17044.414     9746.738     3400.769        3.148        1.510      180.328       62.352        0.120      334.857        5.105      846.871
03/01/2014  03:16:00     -289.119     -131.132      -16.773      144.388      103.052       59.890    20847.813    10619.644     3586.823        6.805        1.753      317.467       50.614        0.025      334.809        5.023      846.871
03/01/2014  03:17:00     -434.802      -59.602      -14.542      170.804      124.161       63.226    29174.058    15416.021     3997.484       12.069        2.429      438.868       66.044        0.023      334.803        5.015      846.852
03/01/2014  03:18:00     -320.227     -161.500      -16.345      124.404       96.632       63.101    15476.236     9337.812     3981.752        7.884        1.440      358.647       56.721        0.025      334.806        5.018      846.921
03/01/2014  03:19:00     -275.282      -92.750      -15.193      129.719      142.767       64.026    16827.102    20382.380     4099.372        6.295        2.065      290.487       61.260        0.044      334.816        5.035      846.911
03/01/2014  03:20:00     -215.853      -59.445       -0.288      120.458      110.234       64.126    14510.047    12151.608     4112.123        4.044        1.539      223.889       67.700        0.091      334.803        5.012      846.910
03/01/2014  03:21:00     -203.080      -73.747       -8.887      107.809       70.857       42.032    11622.730     5020.771     1766.667        3.258        0.921      216.056       44.189        0.042      334.782        4.979      846.897
03/01/2014  03:22:00     -372.847       20.526      -11.890      153.357      102.289       69.296    23518.327    10462.955     4801.986        8.917        1.939      373.411       74.478        0.040      334.797        5.003      846.887
03/01/2014  03:23:00     -329.657      -34.176      -14.523       99.591      117.758       57.366     9918.315    13867.059     3290.876        6.856        1.354      331.423       48.282        0.021      334.806        5.016      846.902
03/01/2014  03:24:00     -298.009      -52.787      -11.837      137.586      128.396       58.660    18929.989    16485.492     3440.994        6.529        1.943      302.648       62.046        0.042      334.826        5.051      846.910
03/01/2014  03:25:00     -317.478      -57.834      -13.753      109.349       93.087       46.531    11957.132     8665.115     2165.120        6.355        1.139      322.703       46.619        0.021      334.814        5.031      846.910
03/01/2014  03:26:00     -363.169      -72.844      -15.021      129.776      105.522       65.951    16841.682    11134.876     4349.509        8.487        1.616      370.403       64.564        0.030      334.836        5.067      846.919
03/01/2014  03:27:00     -301.732      -31.158       -0.670      136.800       64.824       59.009    18714.346     4202.115     3482.056        5.920        1.320      303.337       65.816        0.047      334.826        5.051      846.923
03/01/2014  03:28:00     -276.936     -105.590      -21.241      113.591      101.558       45.732    12902.840    10313.956     2091.447        5.680        1.265      296.383       14.306        0.002      334.790        4.991      846.927
03/01/2014  03:29:00     -274.409      -88.316       -5.259      100.174       71.912       52.350    10034.775     5171.389     2740.477        5.053        0.897      288.271       51.798        0.032      334.799        5.005      846.917
03/01/2014  03:30:00     -227.770      -22.695      -18.545       96.086      101.609       47.726     9232.545    10324.466     2277.797        3.728        1.092      228.898       42.990        0.035      334.740        4.908      846.909
03/01/2014  03:31:00     -327.701     -100.431      -25.854      137.104       90.920       51.781    18797.498     8266.415     2681.279        7.394        1.487      342.745       49.442        0.021      334.763        4.948      846.908
03/01/2014  03:32:00     -348.906      -59.891      -13.136       87.500       79.851       49.529     7656.279     6376.255     2453.100        7.099        0.824      354.009       43.100        0.015      334.774        4.964      846.921
03/01/2014  03:33:00     -294.743      -25.577       -9.829      136.781      113.263       65.869    18709.097    12828.605     4338.712        6.174        1.794      295.851       72.805        0.061      334.767        4.953      846.922
03/01/2014  03:34:00     -251.046      -29.106      -17.255       95.395       88.456       50.705     9100.195     7824.420     2570.948        4.183        0.975      252.728       45.555        0.032      334.743        4.912      846.936
03/01/2014  03:35:00     -354.345        4.561      -16.404      129.793       71.777       52.641    16846.262     5151.890     2771.091        7.531        1.238      354.375       56.556        0.025      334.777        4.971      846.939
03/01/2014  03:36:00     -281.616      -37.252      -16.271      111.112      123.246       48.632    12345.942    15189.495     2365.070        5.543        1.495      284.069       55.919        0.039      334.772        4.962      846.927
03/01/2014  03:37:00     -203.079      -70.047       -6.092      102.513       76.007       45.042    10508.954     5777.050     2028.756        3.225        0.916      214.820       38.457        0.032      334.745        4.917      846.935
03/01/2014  03:38:00     -283.725      -64.518      -12.326       99.746       76.469       47.291     9949.187     5847.502     2236.400        5.142        0.902      290.968       44.517        0.023      334.729        4.890      846.940
03/01/2014  03:39:00     -289.435      -41.375       -8.337      110.417       91.106       47.272    12191.863     8300.216     2234.650        5.414        1.136      292.377       42.770        0.021      334.691        4.827      846.950
03/01/2014  03:40:00     -259.522      -63.310       -1.557      107.959       84.680       44.304    11655.168     7170.748     1962.825        4.607        1.039      267.132       48.600        0.033      334.698        4.837      846.936
03/01/2014  03:41:00     -300.355      -15.422      -24.377      105.903       76.130       45.573    11215.367     5795.741     2076.932        5.506        0.954      300.750       46.591        0.024      334.702        4.844      846.949
03/01/2014  03:42:00     -213.353      -34.875      -13.286       91.643       73.449       43.820     8398.487     5394.707     1920.196        3.131        0.786      216.185       34.584        0.026      334.657        4.773      846.960
03/01/2014  03:43:00     -196.303      -15.703      -11.870       89.081      100.315       45.860     7935.388    10063.037     2103.127        2.951        1.005      196.930       43.738        0.049      334.640        4.742      846.959
03/01/2014  03:44:00     -172.621      -59.239       -8.947       68.488       64.985       33.073     4690.661     4223.109     1093.817        2.170        0.500      182.503       33.105        0.033      334.629        4.725      846.946
03/01/2014  03:45:00     -286.657      -69.269       -7.687       98.034       74.499       33.119     9610.647     5550.090     1096.848        5.164        0.813      294.908       28.943        0.010      334.655        4.768      846.953
03/01/2014  03:46:00     -286.513      -57.888      -11.082      105.342       85.037       46.305    11096.983     7231.231     2144.119        5.301        1.024      292.302       50.840        0.030      334.668        4.788      846.958
03/01/2014  03:47:00     -269.789      -51.291        2.280      121.739       92.803       57.957    14820.398     8612.437     3358.965        5.110        1.340      274.621       69.411        0.064      334.636        4.734      846.972
03/01/2014  03:48:00     -320.488      -41.225       -9.174       94.248       78.166       49.691     8882.726     6109.917     2469.173        6.098        0.873      323.128       49.286        0.023      334.650        4.757      846.972
03/01/2014  03:49:00     -276.590      -64.887       -8.604      108.092       63.944       47.833    11683.906     4088.881     2288.026        4.942        0.903      284.099       42.768        0.023      334.650        4.758      846.975
03/01/2014  03:50:00     -245.242      -62.302      -13.017       84.163       70.781       45.012     7083.411     5010.019     2026.093        3.915        0.706      253.032       44.098        0.030      334.647        4.753      846.984
03/01/2014  03:51:00     -233.857      -64.863      -10.218       91.297       94.046       53.165     8335.179     8844.684     2826.557        3.950        1.000      242.685       42.281        0.030      334.647        4.754      846.988
03/01/2014  03:52:00     -214.715      -49.298       -7.029       99.239      105.530       54.650     9848.434    11136.581     2986.612        3.627        1.199      220.302       50.090        0.052      334.641        4.742      846.999
03/01/2014  03:53:00     -247.375      -25.493      -19.523      110.349       77.844       57.171    12176.993     6059.647     3268.536        4.186        1.075      248.685       47.948        0.037      334.640        4.743      847.001
03/01/2014  03:54:00     -202.024      -86.241      -16.633      119.968       70.672       41.841    14392.345     4994.582     1750.664        3.483        1.057      219.661       46.523        0.045      334.668        4.789      847.025
03/01/2014  03:55:00     -181.574      -36.935      -13.191       62.978       63.557       29.815     3966.198     4039.439      888.954        2.170        0.445      185.292       30.893        0.028      334.647        4.755      847.039
03/01/2014  03:56:00     -246.894      -96.111       -6.553       64.260       48.068       32.786     4129.402     2310.523     1074.913        3.887        0.376      264.941       29.046        0.012      334.645        4.749      847.081
03/01/2014  03:57:00     -157.936      -67.964        8.816       96.096       84.145       44.231     9234.515     7080.408     1956.344        2.395        0.914      171.938       49.787        0.084      334.633        4.732      847.121
03/01/2014  03:58:00     -255.193      -66.302      -15.318      125.480      102.573       50.645    15745.142    10521.157     2564.884        4.929        1.442      263.665       58.792        0.050      334.710        4.858      847.118
03/01/2014  03:59:00     -258.139      -29.865      -21.346      143.908       91.278       50.899    20709.428     8331.740     2590.662        4.980        1.582      259.861       59.634        0.053      334.719        4.874      847.123
03/01/2014  04:00:00     -166.229       -7.529       -2.857       99.492       65.949       49.805     9898.739     4349.275     2480.559        2.221        0.836      166.400       52.618        0.100      334.706        4.853      847.159
03/01/2014  04:01:00     -149.740      -70.382       -0.759       90.413       71.601       47.269     8174.447     5126.642     2234.377        2.145        0.777      165.456       43.850        0.070      334.745        4.917      847.228
03/01/2014  04:02:00     -177.731      -85.290       -8.425       77.119       34.369       29.726     5947.367     1181.208      883.620        2.347        0.401      197.136       30.874        0.025      334.797        5.002      847.284
03/01/2014  04:03:00      -76.643      -42.283        3.366       47.642       36.453       23.494     2269.727     1328.816      551.945        0.591        0.208       87.533       14.366        0.027      334.786        4.988      847.320
03/01/2014  04:04:00      -27.394      -82.778       -2.763       34.551       41.455       27.540     1193.794     1718.521      758.478        0.564        0.184       87.193       18.696        0.046      334.926        5.222      847.360
03/01/2014  04:05:00      -28.084      -38.690        2.608       54.777       68.952       33.674     3000.547     4754.355     1133.947        0.559        0.444       47.808       23.599        0.244      334.913        5.199      847.374
03/01/2014  04:06:00      -33.571      -65.740       -4.883       38.313       36.370       20.133     1467.864     1322.765      405.335        0.433        0.160       73.816       15.762        0.046      334.864        5.119      847.387
03/01/2014  04:07:00      -44.987      -44.850       -3.987       40.185       33.209       22.489     1614.851     1102.864      505.736        0.364        0.161       63.524        8.466        0.018      334.892        5.164      847.412
03/01/2014  04:08:00      -34.937      -31.595        0.258       39.855       19.683       17.220     1588.433      387.440      296.530        0.225        0.114       47.104       15.828        0.113      334.874        5.135      847.435
03/01/2014  04:09:00     -108.203      -43.697       -4.951       27.023       43.939       20.955      730.261     1930.678      439.124        0.837        0.155      116.694        7.760        0.004      334.771        4.964      847.454
03/01/2014  04:10:00     -120.287      -76.470       -7.867       38.527       33.471       24.215     1484.351     1120.334      586.375        1.178        0.160      142.537       13.972        0.010      334.757        4.939      847.466
03/01/2014  04:11:00      -53.115     -115.064        0.551       63.047       41.108       31.269     3974.933     1689.848      977.774        1.135        0.332      126.732       16.935        0.018      334.722        4.882      847.476
03/01/2014  04:12:00      -19.854      -34.899       -4.425       25.616       25.363       19.405      656.199      643.266      376.539        0.165        0.084       40.151       14.382        0.128      334.748        4.926      847.468
03/01/2014  04:13:00      -43.928      -15.629        9.999       36.762       32.942       23.173     1351.446     1085.145      536.973        0.262        0.149       46.626       21.647        0.216      334.673        4.802      847.481
03/01/2014  04:14:00     -122.996     -104.425       -8.828       82.339       63.825       34.339     6779.634     4073.666     1179.149        1.907        0.602      161.346       34.897        0.047      334.735        4.902      847.516
03/01/2014  04:15:00     -143.649      -60.363       -4.918       66.349       67.268       32.979     4402.165     4524.941     1087.644        1.716        0.501      155.817       24.021        0.024      334.655        4.769      847.549
03/01/2014  04:16:00      -72.399      -38.295       -2.889       51.220       45.152       30.936     2623.470     2038.732      957.041        0.617        0.281       81.903       20.772        0.064      334.635        4.738      847.568
03/01/2014  04:17:00     -152.775      -32.032       -1.122       46.561       37.861       28.767     2167.905     1433.419      827.562        1.440        0.221      156.097       21.839        0.020      334.591        4.664      847.564
03/01/2014  04:18:00     -145.125      -86.037       -1.841       67.735       38.260       28.326     4588.093     1463.830      802.383        1.766        0.343      168.712       27.545        0.027      334.663        4.783      847.564
03/01/2014  04:19:00     -127.971      -80.292        1.396       52.242       45.082       31.757     2729.223     2032.369     1008.518        1.430        0.289      151.074       31.027        0.042      334.742        4.915      847.564
03/01/2014  04:20:00     -209.480      -57.597       -7.235       79.062       76.656       35.682     6250.768     5876.101     1273.236        3.032        0.670      217.254       32.331        0.022      334.810        5.026      847.548
03/01/2014  04:21:00     -229.371      -75.404       -0.229       94.027       55.565       44.878     8841.066     3087.454     2014.059        3.612        0.697      241.447       49.744        0.042      334.788        4.989      847.545
03/01/2014  04:22:00     -123.686      -57.566        5.970       95.016       72.485       48.177     9028.015     5254.146     2320.981        1.762        0.830      136.426       48.697        0.127      334.734        4.900      847.556
03/01/2014  04:23:00     -173.150      -75.262       -1.010       67.777       50.935       34.517     4593.657     2594.357     1191.401        2.201        0.419      188.800       34.289        0.033      334.717        4.871      847.600
03/01/2014  04:24:00      -57.476      -70.060       14.458       84.968       80.028       55.730     7219.484     6404.500     3105.823        1.257        0.836       90.620       46.633        0.265      334.809        5.027      847.611
03/01/2014  04:25:00     -135.478      -42.082      -11.699       32.984       33.426       21.502     1087.948     1117.274      462.330        1.146        0.133      141.863       17.637        0.015      334.724        4.885      847.618
03/01/2014  04:26:00      -89.726      -62.358       11.671       62.730       61.137       29.579     3934.996     3737.693      874.897        1.031        0.427      109.267       33.270        0.093      334.771        4.963      847.636
03/01/2014  04:27:00     -175.710      -46.556        1.356       83.971       61.863       51.547     7051.201     3827.054     2657.104        2.329        0.677      181.773       54.435        0.090      334.763        4.946      847.660
03/01/2014  04:28:00      -88.741      -63.368        2.384       77.242       53.795       40.377     5966.290     2893.937     1630.327        1.119        0.525      109.043       44.749        0.168      334.718        4.875      847.673
03/01/2014  04:29:00     -167.138      -51.982      -20.991       78.141       72.675       43.163     6105.974     5281.631     1863.039        2.216        0.663      175.035       43.593        0.062      334.773        4.966      847.679
03/01/2014  04:30:00      -71.232      -36.647        5.067       62.547       45.960       25.072     3912.186     2112.307      628.627        0.655        0.333       80.106       27.840        0.121      334.742        4.916      847.677
03/01/2014  04:31:00     -138.001      -33.836        0.755       81.237       60.756       36.264     6599.452     3691.276     1315.075        1.590        0.580      142.088       38.652        0.074      334.749        4.925      847.687
03/01/2014  04:32:00     -123.385     -118.926       -2.732       71.153       69.515       37.648     5062.701     4832.300     1417.368        2.034        0.566      171.369       37.294        0.047      334.825        5.051      847.688
03/01/2014  04:33:00     -136.565      -41.186      -15.736       48.274       49.759       21.451     2330.357     2475.960      460.161        1.293        0.263      142.640       18.012        0.016      334.768        4.956      847.676
03/01/2014  04:34:00     -142.163      -59.988      -15.125       56.994       44.910       28.220     3248.304     2016.867      796.362        1.505        0.303      154.302       26.025        0.028      334.747        4.922      847.689
03/01/2014  04:35:00     -174.981      -70.745      -13.922       65.852       54.582       31.133     4336.478     2979.187      969.289        2.205        0.414      188.741       31.164        0.027      334.785        4.983      847.704
03/01/2014  04:36:00     -202.320      -11.262       -5.937       65.303       56.555       36.454     4264.464     3198.449     1328.894        2.494        0.440      202.633       38.792        0.037      334.774        4.965      847.709
03/01/2014  04:37:00     -155.646      -19.960       -0.455       52.789       49.523       27.821     2786.654     2452.558      774.025        1.532        0.301      156.920       24.623        0.025      334.662        4.781      847.743
03/01/2014  04:38:00     -116.815      -41.263        1.330       61.983       41.413       30.691     3841.864     1715.053      941.956        1.092        0.325      123.889       31.375        0.064      334.681        4.814      847.790
03/01/2014  04:39:00     -101.196      -34.395       -5.193       34.769       39.007       22.350     1208.869     1521.536      499.523        0.734        0.161      106.881       20.042        0.035      334.788        4.991      847.828
03/01/2014  04:40:00     -136.443      -62.973      -12.070       52.194       51.420       24.906     2724.200     2643.976      620.324        1.436        0.299      150.274       26.234        0.030      334.948        5.256      847.849
03/01/2014  04:41:00      -91.369      -28.612      -11.150       45.022       32.944       20.378     2026.939     1085.325      415.271        0.641        0.176       95.744       22.660        0.056      334.863        5.115      847.877
03/01/2014  04:42:00      -76.037      -45.986       -1.226       35.355       38.841       16.378     1249.994     1508.637      268.238        0.546        0.151       88.862       16.849        0.036      334.802        5.017      847.910
03/01/2014  04:43:00      -93.390      -44.407       -0.296       33.024       31.140       18.700     1090.558      969.709      349.688        0.655        0.120      103.411       12.169        0.014      334.717        4.875      847.933
03/01/2014  04:44:00      -97.547      -32.603       -1.188       38.080       30.110       18.459     1450.057      906.614      340.729        0.664        0.135      102.851       17.601        0.029      334.712        4.864      847.951
03/01/2014  04:45:00     -108.838       14.705       -3.882       35.653       32.888       22.923     1271.130     1081.588      525.486        0.748        0.144      109.827       14.508        0.017      334.656        4.772      847.958
03/01/2014  04:46:00      -56.084      -49.225        9.902       68.988       28.536       32.324     4759.340      814.284     1044.844        0.614        0.331       74.623       36.468        0.239      334.703        4.851      847.967
03/01/2014  04:47:00     -118.545      -25.224        7.226       51.599       33.963       20.843     2662.427     1153.519      434.436        0.950        0.213      121.199       22.085        0.033      334.674        4.802      847.969
03/01/2014  04:48:00     -117.021      -33.295        2.562       57.252       44.497       26.484     3277.774     1980.003      701.424        1.038        0.298      121.665       27.268        0.050      334.685        4.820      847.974
03/01/2014  04:49:00     -109.321      -54.096       -4.072       46.848       36.728       17.532     2194.722     1348.957      307.386        0.937        0.193      121.974        5.985        0.002      334.752        4.931      847.971
03/01/2014  04:50:00     -118.776      -27.181       -0.856       53.991       28.941       24.517     2915.069      837.553      601.089        0.960        0.218      121.846       27.871        0.052      334.697        4.840      847.962
03/01/2014  04:51:00     -121.684      -48.512        4.065       55.127       32.801       28.567     3039.004     1075.900      816.067        1.105        0.247      130.998       23.849        0.033      334.682        4.816      847.963
03/01/2014  04:52:00     -126.004      -70.571       -0.419       73.689       43.739       30.150     5430.003     1913.136      909.017        1.455        0.413      144.421       37.779        0.068      334.884        5.150      847.956
03/01/2014  04:53:00      -89.725      -59.319        1.440       52.309       35.550       24.008     2736.230     1263.826      576.376        0.807        0.229      107.561       26.923        0.063      334.950        5.260      847.945
03/01/2014  04:54:00      -87.014      -71.110       -5.368       33.609       23.039       17.814     1129.547      530.778      317.350        0.732        0.099      112.375       16.072        0.020      334.903        5.183      847.946
03/01/2014  04:55:00      -94.615      -57.930       -1.317       59.611       26.839       26.691     3553.512      720.345      712.432        0.865        0.249      110.941       28.268        0.065      334.944        5.251      847.939
03/01/2014  04:56:00      -74.351     -101.634        4.044       59.682       33.193       28.405     3561.927     1101.782      806.840        1.067        0.274      125.927       33.405        0.070      334.963        5.282      847.944
03/01/2014  04:57:00      -81.982     -144.726       -6.528       31.206       55.512       24.721      973.831     3081.618      611.140        1.619        0.233      166.333       23.353        0.020      335.015        5.369      847.953
03/01/2014  04:58:00      -42.633     -131.381       10.359       51.909       57.807       31.595     2694.553     3341.600      998.243        1.311        0.352      138.125       24.848        0.032      334.996        5.337      847.972
03/01/2014  04:59:00      -56.647      -81.348        5.276       39.988       31.203       26.669     1599.046      973.603      711.261        0.657        0.164       99.128       13.738        0.019      334.954        5.270      847.987
03/01/2014  05:00:00      -89.608     -111.519       -3.517       43.972       28.752       21.208     1933.531      826.654      449.773        1.184        0.160      143.060       16.665        0.014      334.902        5.180      848.002
03/01/2014  05:01:00      -49.421      -46.859        4.108       44.357       51.428       18.066     1967.535     2644.853      326.362        0.480        0.247       68.104       16.748        0.060      334.872        5.132      848.013
03/01/2014  05:02:00      -28.819      -30.428        6.756       33.345       28.514       19.437     1111.871      813.025      377.802        0.205        0.115       41.910       19.027        0.206      334.851        5.097      848.027
03/01/2014  05:03:00      -23.106      -21.086        7.998       22.302       19.071       16.457      497.387      363.702      270.828        0.109        0.057       31.281       17.475        0.312      334.858        5.108      848.048
03/01/2014  05:04:00      -50.504      -69.408       -4.328       27.433       26.117       13.380      752.551      682.085      179.032        0.450        0.081       85.838       11.864        0.019      334.874        5.135      848.075
03/01/2014  05:05:00      -69.646      -11.013       -7.749       15.980       29.147       10.994      255.349      849.543      120.862        0.313        0.061       70.511        6.858        0.009      334.834        5.069      848.108
03/01/2014  05:06:00      -63.955       21.084       -2.216       18.825       16.226       10.354      354.385      263.282      107.207        0.263        0.036       67.341        6.336        0.009      334.789        4.994      848.139
03/01/2014  05:07:00        6.010       27.528       19.024       18.495       21.311       14.473      342.065      454.154      209.466        0.108        0.050       28.177       14.334        0.259      334.585        4.654      848.164
03/01/2014  05:08:00       68.438       47.390      -12.286       46.432       28.714       25.885     2155.952      824.506      670.022        0.536        0.183       83.244       22.204        0.071      334.402        4.351      848.182
03/01/2014  05:09:00      139.413       58.514       13.532       47.964       44.078       36.991     2300.578     1942.846     1368.365        1.433        0.281      151.195       17.971        0.014      334.125        3.891      848.189
03/01/2014  05:10:00      133.909       89.409       28.450       50.510       29.453       38.315     2551.230      867.488     1468.045        1.581        0.244      161.014       34.809        0.047      334.035        3.742      848.190
03/01/2014  05:11:00       50.597       96.691      103.792       51.823       44.578       41.300     2685.592     1987.214     1705.673        1.453        0.319      109.129       26.918        0.061      334.040        3.750      848.194
03/01/2014  05:12:00      140.392       95.838       90.722       62.282       52.234       48.470     3879.097     2728.399     2349.332        2.304        0.448      169.985       39.556        0.054      334.070        3.797      848.190
03/01/2014  05:13:00       38.851       74.837       79.905       51.570       48.421       47.897     2659.486     2344.588     2294.088        1.040        0.365       84.320       40.252        0.228      334.087        3.827      848.194
03/01/2014  05:14:00       17.480       24.380       46.710       39.563       34.251       38.807     1565.212     1173.118     1506.013        0.366        0.212       29.999       27.687        0.852      334.065        3.791      848.193
03/01/2014  05:15:00       58.404       37.295       73.991       64.165       61.660       45.689     4117.122     3802.000     2087.478        1.014        0.500       69.296       49.124        0.503      334.084        3.822      848.197
03/01/2014  05:16:00       68.579       55.076       78.007       58.028       55.596       45.404     3367.299     3090.952     2061.508        1.117        0.426       87.957       41.594        0.224      334.091        3.833      848.198
03/01/2014  05:17:00       63.707       66.381       87.503       55.085       50.998       35.005     3034.404     2600.769     1225.375        1.149        0.343       92.006       30.738        0.112      334.102        3.853      848.181
03/01/2014  05:18:00       68.949       68.085       66.049       48.552       46.493       37.867     2357.337     2161.627     1433.917        0.985        0.298       96.900       18.604        0.037      334.162        3.952      848.159
03/01/2014  05:19:00       65.021       62.723       54.647       47.530       30.472       33.945     2259.056      928.556     1152.239        0.774        0.217       90.344       13.128        0.021      334.170        3.965      848.140
03/01/2014  05:20:00       60.541       67.355       62.252       40.535       28.247       30.930     1643.062      797.877      956.638        0.774        0.170       90.564       22.159        0.060      334.195        4.007      848.153
03/01/2014  05:21:00       33.969       25.727       47.935       35.985       52.500       24.368     1294.911     2756.213      593.787        0.438        0.232       42.612       30.360        0.508      334.197        4.011      848.176
03/01/2014  05:22:00       48.059       43.077       52.975       29.972       22.394       19.044      898.322      501.486      362.690        0.437        0.088       64.539        5.887        0.008      334.113        3.872      848.208
03/01/2014  05:23:00       63.902       46.715       28.830       50.100       26.361       25.528     2510.019      694.882      651.694        0.548        0.193       79.157       30.229        0.146      334.254        4.105      848.229
03/01/2014  05:24:00       32.078       41.001       53.781       27.033       23.059       11.408      730.760      531.712      130.152        0.350        0.070       52.058       11.252        0.047      334.347        4.262      848.251
03/01/2014  05:25:00       68.959       48.817       34.413       23.327       14.302       17.967      544.151      204.542      322.829        0.470        0.054       84.489        5.526        0.004      334.423        4.386      848.236
03/01/2014  05:26:00       47.180       32.485       12.220       14.538       10.647       13.901      211.346      113.349      193.236        0.197        0.026       57.282       10.365        0.033      334.405        4.356      848.230
03/01/2014  05:27:00       39.971       18.542        7.558       12.617        9.544       10.945      159.178       91.092      119.789        0.118        0.019       44.062        4.817        0.012      334.401        4.349      848.243
03/01/2014  05:28:00       50.549       32.474        5.950       22.721       12.469       13.730      516.242      155.467      188.512        0.225        0.043       60.081        7.863        0.017      334.293        4.171      848.270
03/01/2014  05:29:00       57.897       36.198        1.087        7.998       10.055        6.967       63.974      101.097       48.539        0.244        0.011       68.282        3.986        0.003      334.319        4.214      848.296
03/01/2014  05:30:00       42.871       29.400        3.959       19.528       10.353       12.465      381.362      107.175      155.370        0.168        0.032       51.984        9.613        0.034      334.248        4.097      848.325
03/01/2014  05:31:00       53.186       34.844       12.274       14.766       15.605       20.819      218.026      243.512      433.449        0.254        0.045       63.583       12.223        0.037      334.206        4.025      848.352
03/01/2014  05:32:00       62.244       55.207       32.812       24.575       16.803       22.831      603.954      282.357      521.248        0.470        0.070       83.199       18.439        0.049      334.195        4.007      848.371
03/01/2014  05:33:00       80.431       67.006       40.343       44.051       16.404       20.733     1940.460      269.095      429.868        0.761        0.132      104.684       25.851        0.061      334.212        4.036      848.373
03/01/2014  05:34:00      111.451       79.514       48.551       28.362       25.639       32.266      804.397      657.354     1041.088        1.180        0.125      136.908       16.308        0.014      334.256        4.109      848.382
03/01/2014  05:35:00       95.058       99.397       69.019       37.067       21.979       30.380     1373.980      483.081      922.967        1.323        0.139      137.534       26.773        0.038      334.212        4.035      848.396
03/01/2014  05:36:00       56.046       62.173       82.132       55.485       45.580       27.187     3078.633     2077.569      739.141        0.982        0.295       83.706       37.449        0.200      334.233        4.071      848.439
03/01/2014  05:37:00       57.234       69.809       78.624       60.439       55.324       39.590     3652.854     3060.750     1567.381        1.130        0.414       90.272       41.468        0.211      334.194        4.005      848.482
03/01/2014  05:38:00       60.961       53.645       63.477       48.222       47.998       42.158     2325.398     2303.773     1777.273        0.851        0.320       81.204       32.197        0.157      334.161        3.951      848.512
03/01/2014  05:39:00       84.124        8.384       23.663       47.324       27.591       29.098     2239.550      761.244      846.692        0.578        0.192       84.541       16.895        0.040      334.132        3.903      848.542
03/01/2014  05:40:00       29.857       17.958       11.822       29.655       29.558       18.076      879.425      873.650      326.753        0.172        0.104       34.842       16.040        0.212      334.109        3.865      848.565
03/01/2014  05:41:00        9.729       -2.628       13.390       20.648       42.379       26.130      426.345     1796.013      682.756        0.159        0.145       10.078       24.500        5.910      334.131        3.901      848.589
03/01/2014  05:42:00       30.310     -104.979      -13.815       27.770       45.953       23.178      771.190     2111.646      537.239        0.777        0.171      109.267       21.668        0.039      334.473        4.469      848.613
03/01/2014  05:43:00       18.797      -46.051       -5.348       36.194       36.819       22.618     1309.992     1355.631      511.553        0.284        0.159       49.740       18.383        0.137      334.360        4.283      848.627
03/01/2014  05:44:00      -18.993        5.273       13.107       15.150       14.793       13.628      229.511      218.820      185.727        0.060        0.032       19.711       11.212        0.324      334.240        4.083      848.634
03/01/2014  05:45:00      -11.679       10.509       18.540       15.024       11.912       16.924      225.719      141.895      286.409        0.062        0.033       15.711        9.194        0.342      334.218        4.046      848.640
03/01/2014  05:46:00      -10.327       24.864       40.802       18.421       14.614       18.867      339.324      213.581      355.955        0.165        0.045       26.923       12.208        0.206      334.237        4.077      848.638
03/01/2014  05:47:00        2.584      -25.627       14.220       24.606       32.769       24.744      605.468     1073.814      612.250        0.158        0.115       25.757       23.712        0.847      334.398        4.346      848.635
03/01/2014  05:48:00       -6.030       31.488       60.287       17.415       30.044       18.050      303.288      902.639      325.793        0.310        0.077       32.061       18.631        0.338      334.233        4.070      848.646
03/01/2014  05:49:00        1.692       53.948       73.986       20.677       36.141       20.478      427.550     1306.192      419.337        0.527        0.108       53.974       24.317        0.203      334.147        3.928      848.673
03/01/2014  05:50:00       -0.790       66.716       86.422       22.369       40.648       22.712      500.384     1652.268      515.815        0.729        0.133       66.720       26.377        0.156      334.187        3.994      848.709
03/01/2014  05:51:00       19.868      -10.533       45.533       23.563       39.647       22.541      555.208     1571.848      508.087        0.261        0.132       22.487       22.751        1.024      334.206        4.026      848.728
03/01/2014  05:52:00       55.185       30.503       25.521       36.713       46.105       31.182     1347.816     2125.681      972.337        0.454        0.222       63.054       28.620        0.206      334.100        3.850      848.731
03/01/2014  05:53:00      110.204       52.340        0.279       33.768       34.423       20.871     1140.289     1184.969      435.578        0.882        0.138      122.001       13.438        0.012      333.911        3.538      848.728
03/01/2014  05:54:00       93.408       57.566       -6.739       29.469       29.940       21.072      868.418      896.428      444.012        0.715        0.110      109.722       12.959        0.014      333.819        3.383      848.728
03/01/2014  05:55:00       69.891       45.011        4.344       25.957       25.899       20.228      673.771      670.747      409.161        0.434        0.088       83.131       14.465        0.030      333.812        3.372      848.733
03/01/2014  05:56:00       17.265       47.950        5.012       19.748       22.466       18.353      389.997      504.707      336.817        0.193        0.062       50.964       15.069        0.087      333.745        3.262      848.751
03/01/2014  05:57:00       18.742       68.315      -12.350       17.600       19.148        9.679      309.763      366.633       93.692        0.297        0.039       70.840        9.379        0.018      333.869        3.467      848.791
03/01/2014  05:58:00        5.108       61.935       -7.416       21.939       17.113       11.268      481.300      292.864      126.963        0.241        0.045       62.145       12.873        0.043      333.939        3.585      848.840
03/01/2014  05:59:00       -3.579       51.125       -4.807       17.106       17.579        9.132      292.619      309.034       83.387        0.167        0.034       51.251        8.697        0.029      333.887        3.497      848.879
03/01/2014  06:00:00      -39.562       44.630      -13.316       18.443       18.250       14.588      340.148      333.054      212.797        0.231        0.044       59.640       12.582        0.045      333.796        3.344      848.895
03/01/2014  06:01:00      -72.481       50.507      -15.246       19.221       27.841       14.584      369.459      775.115      212.702        0.470        0.068       88.343       14.472        0.027      333.826        3.396      848.896
03/01/2014  06:02:00      -92.419       81.545      -27.967       20.029       24.446       12.047      401.147      597.618      145.123        0.856        0.057      123.251        9.167        0.006      333.864        3.458      848.886
03/01/2014  06:03:00      -81.775       37.645       -8.346       22.365       23.295       15.373      500.172      542.648      236.325        0.473        0.064       90.023        9.534        0.011      333.931        3.570      848.874
03/01/2014  06:04:00      -57.996       22.436       -7.247       18.662       25.540       14.297      348.254      652.268      204.409        0.256        0.060       62.184       15.702        0.064      333.999        3.682      848.875
03/01/2014  06:05:00      -72.044      -25.053      -18.951       17.391       13.131       10.667      302.452      172.412      113.791        0.338        0.029       76.275        6.113        0.006      333.813        3.375      848.884
03/01/2014  06:06:00      -86.854      -20.495       -4.907       32.102       29.327       20.832     1030.514      860.096      433.959        0.516        0.116       89.239       15.601        0.031      333.771        3.303      848.893
03/01/2014  06:07:00      -46.564      -31.242        1.500       29.625       29.526       16.510      877.624      871.785      272.568        0.258        0.101       56.074       12.543        0.050      333.773        3.306      848.898
03/01/2014  06:08:00      -25.535      -28.765        2.738       37.035       22.756       13.762     1371.562      517.813      189.393        0.178        0.104       38.464       14.489        0.142      333.893        3.507      848.901
03/01/2014  06:09:00     -104.964      -54.274       -3.369       56.051       22.233       21.557     3141.663      494.316      464.709        0.904        0.205      118.165       26.830        0.052      333.800        3.351      848.889
03/01/2014  06:10:00     -113.094      -30.517       -8.175       28.464       26.753       18.591      810.207      715.737      345.611        0.783        0.094      117.139       14.222        0.015      333.826        3.396      848.880
03/01/2014  06:11:00     -101.041      -14.209       -9.946       18.905       14.391       14.892      357.411      207.105      221.772        0.565        0.039      102.036       13.176        0.017      333.946        3.596      848.864
03/01/2014  06:12:00      -75.139      -33.333       -4.670       16.046       23.047       18.926      257.471      531.180      358.177        0.396        0.057       82.201       13.989        0.029      333.915        3.542      848.862
03/01/2014  06:13:00     -102.817      -13.782       -6.633       46.912       40.163       21.351     2200.708     1613.040      455.859        0.754        0.213      103.736       19.289        0.035      333.846        3.429      848.862
03/01/2014  06:14:00     -157.198       -9.658      -18.442       34.056       25.581       19.903     1159.791      654.389      396.132        1.368        0.111      157.495       14.042        0.008      333.828        3.398      848.882
03/01/2014  06:15:00     -119.801      -44.983      -16.870       26.908       26.452       16.337      724.032      699.725      266.894        0.918        0.085      127.967        6.658        0.003      333.771        3.304      848.890
03/01/2014  06:16:00     -106.590      -37.814       -5.168       37.022       26.887       17.919     1370.638      722.896      321.084        0.762        0.121      113.099       14.966        0.018      333.697        3.181      848.888
03/01/2014  06:17:00     -116.989      -31.064      -18.850       29.448       22.644       15.244      867.193      512.773      232.368        0.831        0.081      121.043       14.238        0.014      333.659        3.120      848.892
03/01/2014  06:18:00      -79.858      -43.294       -3.990       29.389       17.882       18.108      863.724      319.766      327.915        0.489        0.076       90.838       16.974        0.035      333.651        3.103      848.900
03/01/2014  06:19:00      -70.464      -40.977       -1.937       31.347       20.486       18.387      982.646      419.668      338.092        0.419        0.087       81.513       16.045        0.039      333.654        3.110      848.919
03/01/2014  06:20:00      -97.026      -55.719       -2.094       37.544       27.987       17.732     1409.568      783.248      314.425        0.751        0.125      111.887       19.177        0.029      333.681        3.154      848.951
03/01/2014  06:21:00     -111.640      -60.713       -9.492       26.265       21.464       15.267      689.862      460.722      233.092        0.881        0.069      127.081       12.586        0.010      333.658        3.116      848.993
03/01/2014  06:22:00     -156.798      -52.660       -9.419       21.095       19.537       13.933      445.007      381.694      194.138        1.423        0.051      165.404        9.043        0.003      333.674        3.142      849.017
03/01/2014  06:23:00     -127.564      -17.614       -0.021       47.202       27.402       18.027     2228.048      750.843      324.960        0.994        0.165      128.775       23.477        0.033      333.664        3.126      849.027
03/01/2014  06:24:00     -108.752      -34.035       -3.333       36.951       20.682       15.074     1365.369      427.730      227.219        0.751        0.101      113.954       17.954        0.025      333.690        3.171      849.018
03/01/2014  06:25:00      -93.229      -47.927       -7.012       24.966       22.271       12.303      623.283      495.992      151.374        0.615        0.064      104.827       11.601        0.012      333.727        3.231      849.003
03/01/2014  06:26:00      -10.366      -22.249       10.822       29.162       15.610       17.601      850.418      243.674      309.808        0.106        0.070       24.545       11.278        0.211      333.779        3.318      848.994
03/01/2014  06:27:00      -71.182      -70.714       -7.696       23.304       38.740       13.918      543.063     1500.802      193.715        0.618        0.112      100.337       10.790        0.012      333.917        3.548      848.991
03/01/2014  06:28:00      -16.936      -24.991        9.036       17.930       25.682       15.565      321.478      659.583      242.261        0.111        0.061       30.189       10.393        0.119      333.924        3.559      848.993
03/01/2014  06:29:00      -49.372      -31.711        5.016       35.858       29.276       17.143     1285.801      857.105      293.887        0.295        0.122       58.679       11.066        0.036      333.987        3.663      849.001
03/01/2014  06:30:00      -61.323      -59.412       -0.069       43.306       40.776       26.502     1875.388     1662.695      702.371        0.576        0.212       85.383       28.801        0.114      333.939        3.583      849.013
03/01/2014  06:31:00      -91.287      -57.774        6.722       47.543       29.776       24.161     2260.347      886.636      583.740        0.772        0.187      108.033       11.890        0.012      333.883        3.491      849.022
03/01/2014  06:32:00      -88.981      -50.648        4.149       36.334       27.712       18.973     1320.183      767.953      359.958        0.647        0.122      102.386       18.354        0.032      333.868        3.465      849.020
03/01/2014  06:33:00      -95.716      -45.686        0.450       32.471       24.269       15.075     1054.337      588.981      227.267        0.656        0.094      106.060       15.589        0.022      334.029        3.731      849.008
03/01/2014  06:34:00      -39.990      -41.528        4.420       47.468       22.936       17.597     2253.219      526.051      309.645        0.322        0.154       57.652       19.641        0.116      334.020        3.719      849.007
03/01/2014  06:35:00      -54.168      -83.099        6.065       49.855       51.874       24.554     2485.475     2690.872      602.876        0.783        0.289       99.195       22.215        0.050      334.029        3.731      849.019
03/01/2014  06:36:00      -70.666      -75.760       -3.982       63.102       56.529       32.571     3981.836     3195.498     1060.851        0.949        0.412      103.601       27.218        0.069      333.913        3.540      849.041
03/01/2014  06:37:00     -133.756     -127.415       -4.576       67.441       55.094       37.504     4548.265     3035.323     1406.561        2.157        0.450      184.730       41.693        0.051      333.773        3.304      849.072
03/01/2014  06:38:00     -142.217     -123.695      -10.180       43.919       58.735       28.564     1928.853     3449.804      815.903        2.091        0.310      188.484       33.577        0.032      333.771        3.300      849.102
03/01/2014  06:39:00     -115.101     -116.086      -10.404       30.941       45.649       20.083      957.332     2083.875      403.338        1.514        0.172      163.476       12.009        0.005      333.860        3.450      849.110
03/01/2014  06:40:00      -91.087      -86.160        6.530       58.654       33.228       25.517     3440.325     1104.079      651.142        1.048        0.260      125.381       27.923        0.050      333.879        3.484      849.123
03/01/2014  06:41:00     -110.062     -116.904       -4.430       27.930       28.422       21.006      780.069      807.830      441.235        1.391        0.101      160.563       15.228        0.009      333.953        3.605      849.143
03/01/2014  06:42:00      -95.041     -103.805        1.868       45.964       43.583       23.847     2112.686     1899.488      568.678        1.220        0.229      140.742       22.813        0.026      333.922        3.555      849.158
03/01/2014  06:43:00     -113.179     -121.280       -7.347       66.778       49.342       40.902     4459.265     2434.613     1672.964        1.807        0.428      165.887       40.029        0.058      333.964        3.624      849.169
03/01/2014  06:44:00      -88.785     -107.315        2.232       68.140       58.866       39.603     4643.066     3465.211     1568.381        1.454        0.484      139.282       41.908        0.091      333.909        3.534      849.172
03/01/2014  06:45:00      -87.291      -92.321      -16.017       49.702       42.076       23.281     2470.298     1770.399      542.022        1.059        0.239      127.054       12.616        0.010      333.974        3.640      849.182
03/01/2014  06:46:00      -47.643      -86.023        2.194       67.740       46.007       24.545     4588.774     2116.681      602.445        0.849        0.365       98.335       25.678        0.068      334.025        3.725      849.180
03/01/2014  06:47:00       -8.441      -63.964       11.449       29.677       30.872       24.658      880.700      953.073      607.999        0.337        0.122       64.518       16.275        0.064      334.126        3.894      849.185
03/01/2014  06:48:00      -80.434     -105.455       -4.863       26.410       35.351       14.546      697.468     1249.670      211.598        0.989        0.108      132.629       12.337        0.009      334.115        3.874      849.192
03/01/2014  06:49:00      -89.055      -69.483       -8.678       59.198       32.138       19.713     3504.456     1032.871      388.621        0.888        0.246      112.954       18.748        0.028      334.211        4.035      849.210
03/01/2014  06:50:00      -66.259      -65.587        2.600       42.565       35.303       23.439     1811.750     1246.330      549.394        0.615        0.180       93.231       23.681        0.065      334.209        4.030      849.249
03/01/2014  06:51:00      -70.600      -98.843       -5.827       45.249       39.887       31.702     2047.437     1590.959     1005.043        0.972        0.232      121.467       30.630        0.064      334.230        4.066      849.289
03/01/2014  06:52:00      -72.846     -110.020       -4.315       30.780       37.354       19.820      947.402     1395.341      392.849        1.008        0.137      131.951       13.764        0.011      334.220        4.050      849.309
03/01/2014  06:53:00      -29.488      -65.664       -2.035       26.031       50.180       22.059      677.610     2518.035      486.616        0.443        0.184       71.981        9.193        0.016      334.219        4.049      849.320
03/01/2014  06:54:00      -54.396      -42.317       -1.321       29.891       27.578       19.121      893.488      760.528      365.604        0.339        0.101       68.918       16.432        0.057      334.251        4.102      849.335
03/01/2014  06:55:00      -56.931      -81.984        1.378       35.967       40.314       22.251     1293.636     1625.210      495.111        0.669        0.171       99.812       20.152        0.041      334.350        4.266      849.362
03/01/2014  06:56:00      -43.814      -37.941        4.132       31.424       23.608       17.469      987.455      557.325      305.155        0.261        0.092       57.958       13.358        0.053      334.363        4.287      849.393
03/01/2014  06:57:00      -35.131      -22.079        6.037       38.729       23.941       14.797     1499.903      573.173      218.956        0.202        0.115       41.493       15.983        0.148      334.333        4.237      849.423
03/01/2014  06:58:00      -69.408      -30.585        3.493       28.801       19.691       16.305      829.522      387.737      265.837        0.362        0.074       75.848       13.313        0.031      334.187        3.995      849.451
03/01/2014  06:59:00      -56.755      -19.904       -1.071       27.166       19.427       12.761      738.008      377.404      162.844        0.245        0.064       60.144        9.694        0.026      334.124        3.889      849.480
03/01/2014  07:00:00      -49.695      -31.460        5.154       18.448       12.671       14.491      340.344      160.546      209.984        0.210        0.036       58.816       12.522        0.045      334.209        4.029      849.530
03/01/2014  07:01:00      -28.727      -46.185        7.181       25.253       28.668       13.682      637.735      821.837      187.204        0.233        0.082       54.390       15.063        0.077      334.264        4.122      849.588
03/01/2014  07:02:00       -8.605      -13.184       10.953       15.946       16.754        9.107      254.261      280.688       82.942        0.049        0.031       15.744        5.473        0.121      334.319        4.213      849.639
03/01/2014  07:03:00       14.620       50.286        0.584       15.971       26.106       17.634      255.084      681.518      310.955        0.199        0.062       52.368       18.238        0.121      333.952        3.605      849.675
03/01/2014  07:04:00       20.122       59.221       -4.385       30.521       49.099       26.929      931.556     2410.714      725.185        0.400        0.203       62.547       29.203        0.218      333.784        3.327      849.696
03/01/2014  07:05:00       16.987      153.281      -24.909       21.824       47.441       18.297      476.307     2250.686      334.763        1.373        0.153      154.220       24.319        0.025      333.711        3.203      849.716
03/01/2014  07:06:00      -10.353      122.226      -12.130       26.758       63.554       22.460      715.998     4039.050      504.432        1.023        0.263      122.664       29.464        0.058      333.804        3.358      849.757
03/01/2014  07:07:00      -18.849      133.880       -5.593       23.274       48.053       18.762      541.675     2309.074      352.030        1.076        0.160      135.200       22.721        0.028      334.070        3.800      849.806
03/01/2014  07:08:00      -35.703       56.579       -7.187       22.019       29.370       20.066      484.819      862.574      402.664        0.314        0.088       66.903       14.870        0.049      333.999        3.683      849.846
03/01/2014  07:09:00      -43.412       53.944        0.534       25.676       31.525       19.630      659.240      993.808      385.323        0.342        0.102       69.242       16.261        0.055      334.001        3.687      849.877
03/01/2014  07:10:00        1.609      124.817      -16.781       28.728       28.253       13.839      825.271      798.228      191.515        0.884        0.091      124.828       10.907        0.008      334.224        4.055      849.894
03/01/2014  07:11:00       27.768      112.144      -14.576       17.537       29.380       12.791      307.540      863.180      163.611        0.745        0.067      115.531       11.506        0.010      333.982        3.654      849.893
03/01/2014  07:12:00       46.186       79.485       -9.105       24.057       43.546       23.329      578.719     1896.258      544.258        0.578        0.151       91.929       24.043        0.068      334.000        3.684      849.903
03/01/2014  07:13:00       32.913       54.465       -2.092       34.075       39.734       25.221     1161.095     1578.791      636.115        0.371        0.169       63.637       21.964        0.119      334.011        3.702      849.934
03/01/2014  07:14:00       59.605       38.002        4.625       22.289       22.582       13.618      496.790      509.946      185.451        0.311        0.060       70.689        4.763        0.005      333.971        3.636      849.977
03/01/2014  07:15:00       43.551       44.834       -1.339       21.221       17.403       12.982      450.320      302.869      168.532        0.241        0.046       62.504       11.273        0.033      333.971        3.637      850.021
03/01/2014  07:16:00       19.181       51.064       -8.024       13.068       15.044        6.309      170.784      226.324       39.798        0.174        0.022       54.547        4.611        0.007      334.042        3.755      850.044
03/01/2014  07:17:00       -4.184       70.102      -11.932       10.842       13.669        6.959      117.539      186.842       48.432        0.271        0.018       70.226        4.706        0.004      334.129        3.897      850.052
03/01/2014  07:18:00      -25.321       50.649       -2.568       31.238       33.583       20.150      975.821     1127.840      406.027        0.286        0.125       56.625       17.326        0.094      334.177        3.978      850.047
03/01/2014  07:19:00      -53.474       48.907      -13.830       19.858       24.547       17.852      394.333      602.574      318.694        0.338        0.066       72.466       13.323        0.034      334.229        4.064      850.057
03/01/2014  07:20:00      -85.990        7.329       -9.845       27.083       19.603       10.192      733.485      384.275      103.873        0.438        0.061       86.301        6.503        0.006      334.111        3.868      850.069
03/01/2014  07:21:00     -115.796        0.443      -13.569       15.752       24.092       12.734      248.134      580.407      162.146        0.729        0.050      115.797        4.760        0.002      334.115        3.874      850.076
03/01/2014  07:22:00      -96.422      -10.807       -5.337       38.763       19.440       15.619     1502.594      377.901      243.952        0.578        0.106       97.026       20.409        0.044      334.108        3.863      850.085
03/01/2014  07:23:00     -124.509      -14.240      -18.306       28.617       26.093       10.478      818.931      680.844      109.793        0.882        0.080      125.320        6.396        0.003      334.130        3.899      850.118
03/01/2014  07:24:00      -78.210      -53.802      -11.734       40.457       23.801       15.468     1636.747      566.474      239.263        0.580        0.122       94.929        3.742        0.002      334.182        3.987      850.149
03/01/2014  07:25:00      -12.528      -16.854        2.809       31.235       15.860       17.555      975.610      251.555      308.188        0.099        0.077       21.000       16.834        0.643      334.241        4.084      850.178
03/01/2014  07:26:00      -35.008      -26.946       -3.188       25.334       17.800       13.488      641.791      316.857      181.923        0.155        0.057       44.178       13.168        0.089      334.221        4.052      850.189
03/01/2014  07:27:00      -83.936      -40.772      -11.216       25.528       14.169       13.888      651.673      200.763      192.887        0.494        0.052       93.315        9.576        0.011      334.250        4.101      850.209
03/01/2014  07:28:00      -70.457      -31.811       -4.601       31.741       15.406       12.939     1007.497      237.347      167.412        0.370        0.071       77.306        7.665        0.010      334.246        4.093      850.232
03/01/2014  07:29:00      -79.119      -23.830       -4.098       17.068       20.733       13.573      291.302      429.866      184.222        0.387        0.045       82.630       11.661        0.020      334.240        4.082      850.239
03/01/2014  07:30:00      -46.338      -20.554       -1.557       29.068       14.512       12.808      844.975      210.591      164.034        0.190        0.061       50.691       11.984        0.056      334.308        4.194      850.235
03/01/2014  07:31:00      -59.978      -36.009       -8.355       16.974       12.981       10.311      288.107      168.509      106.317        0.276        0.028       69.957        3.898        0.003      334.307        4.194      850.239
03/01/2014  07:32:00      -47.084      -32.182       -8.743       17.940       13.578       10.269      321.859      184.357      105.446        0.197        0.031       57.032        4.273        0.006      334.340        4.248      850.261
03/01/2014  07:33:00      -63.428      -28.884       -5.634       18.805       13.386        8.493      353.611      179.178       72.132        0.275        0.030       69.695        6.043        0.008      334.319        4.212      850.294
03/01/2014  07:34:00      -82.384      -23.944       -7.548       13.691       14.354       11.644      187.439      206.047      135.585        0.397        0.026       85.793        8.580        0.010      334.307        4.195      850.326
03/01/2014  07:35:00      -71.199      -22.301       -4.359       11.021       16.775       10.571      121.456      281.401      111.744        0.305        0.026       74.610        7.267        0.009      334.356        4.276      850.349
03/01/2014  07:36:00      -71.027        1.477       -6.427       12.911       18.492        7.332      166.693      341.970       53.765        0.283        0.028       71.043        5.530        0.006      334.367        4.294      850.359
03/01/2014  07:37:00      -51.427       19.667       -9.437       13.329        6.587        5.567      177.666       43.387       30.994        0.169        0.013       55.059        2.907        0.003      334.385        4.324      850.368
03/01/2014  07:38:00      -41.285        9.877       -4.567        8.276       10.251        8.046       68.490      105.074       64.734        0.103        0.012       42.450        5.394        0.016      334.446        4.424      850.361
03/01/2014  07:39:00      -24.779        5.254        7.348       23.896        6.055        9.469      571.036       36.662       89.660        0.070        0.035       25.330       12.834        0.257      334.497        4.510      850.361
03/01/2014  07:40:00       -2.753       -2.709        8.580       11.905        7.049        7.589      141.718       49.689       57.593        0.017        0.012        3.863        7.424        3.694      334.498        4.510      850.373
03/01/2014  07:41:00      -15.214        0.727       -2.298        7.897        8.001        7.465       62.365       64.015       55.723        0.021        0.009       15.231        6.137        0.162      334.530        4.564      850.403
03/01/2014  07:42:00       -8.275      -11.184        7.438        9.266       16.615        8.582       85.858      276.051       73.651        0.034        0.022       13.912        4.767        0.117      334.576        4.639      850.416
03/01/2014  07:43:00      -41.745        5.071        0.367       27.114       17.338       11.940      735.188      300.592      142.567        0.147        0.059       42.052       11.798        0.079      334.531        4.565      850.415
03/01/2014  07:44:00      -49.139       -8.406       -6.728       11.065        9.380        7.924      122.434       87.991       62.789        0.140        0.014       49.853        4.167        0.007      334.520        4.547      850.406
03/01/2014  07:45:00      -36.945       -2.527       -2.981        9.365       10.056        6.507       87.708      101.122       42.337        0.081        0.012       37.031        3.527        0.009      334.526        4.554      850.395
03/01/2014  07:46:00      -35.906       -2.994       -4.176       15.162       10.777        7.763      229.892      116.149       60.266        0.086        0.020       36.031        6.212        0.030      334.541        4.582      850.369
03/01/2014  07:47:00      -33.285       -8.232       -1.855       18.391       11.269        6.837      338.233      126.985       46.743        0.085        0.026       34.288        4.548        0.018      334.565        4.620      850.367
03/01/2014  07:48:00      -45.793      -20.666       -4.527       10.625       10.565        6.341      112.893      111.617       40.212        0.140        0.013       50.240        2.231        0.002      334.535        4.572      850.362
03/01/2014  07:49:00      -77.884      -27.277       -2.622       16.400       17.203       11.778      268.959      295.960      138.729        0.376        0.035       82.522        8.467        0.011      334.378        4.312      850.365
03/01/2014  07:50:00      -93.408      -39.039       -4.361       33.920       26.309       13.234     1150.593      692.183      175.144        0.614        0.101      101.238       15.770        0.024      334.267        4.131      850.383
03/01/2014  07:51:00     -100.868      -42.019        0.443       26.844       21.826       19.424      720.594      476.380      377.287        0.676        0.079      109.271       19.085        0.031      334.267        4.129      850.406
03/01/2014  07:52:00      -95.592      -18.537       -5.187       18.711       18.403       12.555      350.119      338.685      157.627        0.518        0.042       97.372        5.547        0.003      334.329        4.230      850.407
03/01/2014  07:53:00      -77.369       -7.530       -3.572       31.123       15.967       14.454      968.615      254.938      208.914        0.374        0.072       77.734       15.530        0.040      334.349        4.263      850.419
03/01/2014  07:54:00     -111.108        6.674       -9.738       16.571       17.196       11.916      274.589      295.702      141.993        0.660        0.036      111.308       10.424        0.009      334.364        4.288      850.449
03/01/2014  07:55:00     -103.631      -28.607       -4.547       22.729       23.466       19.713      516.595      550.639      388.619        0.652        0.073      107.507       14.665        0.019      334.409        4.364      850.480
03/01/2014  07:56:00     -122.808        4.653       -6.714       41.035       31.346       17.511     1683.869      982.589      306.644        0.906        0.149      122.896       19.282        0.025      334.357        4.275      850.509
03/01/2014  07:57:00     -119.769       -0.291       -8.381       29.049       22.727       20.650      843.866      516.498      426.426        0.810        0.089      119.770       16.865        0.020      334.346        4.259      850.520
03/01/2014  07:58:00     -113.317      -10.362      -16.400       24.573       22.939       11.810      603.844      526.198      139.470        0.724        0.063      113.789       10.172        0.008      334.384        4.321      850.533
03/01/2014  07:59:00     -111.013        8.660      -16.522       24.078       24.148       13.981      579.746      583.134      195.472        0.701        0.068      111.351       10.166        0.008      334.410        4.365      850.561
03/01/2014  08:00:00     -110.103       -1.856      -15.658       21.407       24.084       13.663      458.263      580.058      186.671        0.680        0.061      110.119        9.689        0.008      334.392        4.335      850.584
03/01/2014  08:01:00      -92.145      -10.901       -8.102       29.230       24.347       19.870      854.396      592.784      394.810        0.526        0.092       92.788       15.162        0.027      334.422        4.385      850.613
03/01/2014  08:02:00     -119.824        6.182      -18.015       36.898       19.631       18.856     1361.429      385.383      355.555        0.841        0.105      119.983       16.180        0.018      334.430        4.399      850.632
03/01/2014  08:03:00     -170.291       12.127      -14.252       26.775       22.385       14.069      716.874      501.067      197.933        1.538        0.071      170.722       10.870        0.004      334.410        4.366      850.661
03/01/2014  08:04:00     -138.259       12.961      -12.164       33.895       30.203       21.775     1148.886      912.214      474.135        1.098        0.127      138.866       14.601        0.011      334.420        4.384      850.686
03/01/2014  08:05:00     -141.114       31.449       -7.190       44.101       30.837       20.331     1944.902      950.930      413.340        1.213        0.165      144.576       17.296        0.014      334.392        4.336      850.706
03/01/2014  08:06:00     -140.177       42.515      -11.629       37.685       31.111       18.675     1420.142      967.871      348.771        1.216        0.137      146.482       15.725        0.012      334.438        4.411      850.713
03/01/2014  08:07:00      -58.948       36.572       -8.951       32.683       20.106       16.109     1068.184      404.240      259.497        0.331        0.087       69.371       12.977        0.035      334.516        4.539      850.718
03/01/2014  08:08:00      -43.968        7.448       -0.929       17.460       14.815       10.821      304.845      219.498      117.104        0.132        0.032       44.594        7.150        0.026      334.574        4.636      850.726
03/01/2014  08:09:00      -66.268      -10.620      -11.761       33.293       26.086       19.189     1108.420      680.477      368.230        0.340        0.108       67.114       15.692        0.055      334.602        4.683      850.744
03/01/2014  08:10:00      -61.879      -59.349       -2.827       40.978       23.945       20.183     1679.226      573.356      407.350        0.501        0.133       85.740        8.722        0.010      334.561        4.613      850.753
03/01/2014  08:11:00      -50.699      -48.649      -12.363       46.979       23.893       24.246     2207.011      570.859      587.875        0.423        0.168       70.264        6.279        0.008      334.561        4.615      850.760
03/01/2014  08:12:00      -41.759        1.253        0.385       25.371       23.403       15.489      643.686      547.722      239.905        0.159        0.072       41.777       13.775        0.109      334.612        4.700      850.760
03/01/2014  08:13:00      -32.716        8.400       -1.751       14.949       13.210        8.486      223.486      174.516       72.012        0.081        0.024       33.777        4.526        0.018      334.584        4.654      850.763
03/01/2014  08:14:00      -34.142        4.777        4.862       17.688        7.497       10.033      312.872       56.207      100.651        0.084        0.023       34.475       10.189        0.087      334.689        4.830      850.770
03/01/2014  08:15:00       26.090       11.793        5.140       11.904        7.610       10.596      141.712       57.909      112.286        0.058        0.016       28.631        6.775        0.056      334.758        4.941      850.795
03/01/2014  08:16:00       13.209       26.014       -2.257       11.021       13.778        8.089      121.467      189.829       65.425        0.062        0.019       29.176        7.186        0.061      334.819        5.042      850.823
03/01/2014  08:17:00       18.793       39.889       32.139       18.676       19.941       21.574      348.809      397.626      465.418        0.209        0.061       44.094        9.427        0.046      334.925        5.220      850.865
03/01/2014  08:18:00       18.137       48.692       58.949       27.020       28.620       17.432      730.079      819.091      303.871        0.401        0.093       51.960       12.835        0.061      334.912        5.199      850.894
03/01/2014  08:19:00       89.089       68.393       35.119       21.353       14.962       24.042      455.942      223.862      578.034        0.755        0.063      112.314       11.118        0.010      334.738        4.910      850.915
03/01/2014  08:20:00       52.726       50.244       17.339       45.610       24.986       23.824     2080.297      624.293      567.592        0.444        0.164       72.832        9.183        0.016      334.789        4.994      850.926
03/01/2014  08:21:00       56.406       38.827        4.198       19.240       21.268       19.937      370.160      452.334      397.465        0.296        0.061       68.478        9.864        0.021      334.770        4.962      850.930
03/01/2014  08:22:00       42.015       32.879       -4.393       16.391       16.491       14.694      268.649      271.955      215.923        0.181        0.038       53.351        7.938        0.022      334.762        4.948      850.931
03/01/2014  08:23:00       50.984       27.352       -1.388       15.142        9.823       13.585      229.283       96.500      184.550        0.193        0.026       57.858        9.221        0.025      334.740        4.915      850.934
03/01/2014  08:24:00       47.419       23.717        2.586       19.625       12.667       15.066      385.160      160.449      226.977        0.180        0.039       53.020        7.058        0.018      334.814        5.036      850.934
03/01/2014  08:25:00       64.690       42.860        6.691       13.314       14.756       14.409      177.259      217.731      207.631        0.333        0.030       77.600        7.682        0.010      334.871        5.131      850.934
03/01/2014  08:26:00       72.001       55.568        8.205       22.441       24.945       26.287      503.583      622.269      690.989        0.508        0.091       90.950        9.561        0.011      334.910        5.195      850.937
03/01/2014  08:27:00       67.283       73.904       69.677       42.667       41.940       38.300     1820.431     1758.958     1466.897        0.994        0.252       99.944       26.900        0.072      334.923        5.217      850.928
03/01/2014  08:28:00       98.496      116.488       71.864       52.515       46.752       46.595     2757.808     2185.779     2171.061        1.777        0.356      152.548       34.109        0.050      334.761        4.946      850.939
03/01/2014  08:29:00       79.704       85.665       88.208       53.035       42.768       30.785     2812.662     1829.131      947.715        1.353        0.279      117.010       22.901        0.038      334.797        5.007      850.960
03/01/2014  08:30:00       72.845       81.110       82.297       54.187       45.207       33.422     2936.210     2043.642     1117.061        1.238        0.305      109.020       24.843        0.052      334.802        5.015      850.968
03/01/2014  08:31:00      121.118       81.731       72.769       72.630       49.644       40.678     5275.166     2464.487     1654.733        1.802        0.470      146.115       37.437        0.066      334.764        4.948      850.981
03/01/2014  08:32:00       99.712       81.199       79.069       80.468       62.188       42.814     6475.042     3867.398     1833.058        1.748        0.609      128.592       44.395        0.119      334.675        4.802      850.979
03/01/2014  08:33:00       59.216       81.248       70.518       81.177       44.259       39.488     6589.716     1958.872     1559.264        1.259        0.505      100.537       37.506        0.139      334.741        4.913      850.982
03/01/2014  08:34:00      100.186      103.911       66.423       73.656       45.312       58.172     5425.186     2053.162     3383.933        1.805        0.543      144.342       56.289        0.152      334.662        4.781      850.997
03/01/2014  08:35:00       90.625       77.526       57.438       52.761       53.050       41.710     2783.741     2814.257     1739.714        1.243        0.367      119.261       23.256        0.038      334.652        4.764      850.994
03/01/2014  08:36:00       56.969       56.393       26.775       43.173       58.126       34.951     1863.927     3378.633     1221.581        0.680        0.323       80.160       23.602        0.087      334.801        5.013      850.987
03/01/2014  08:37:00       43.363       99.623      105.500       50.587       52.067       38.191     2559.010     2710.934     1458.536        1.483        0.336      108.652       35.851        0.109      334.750        4.929      850.980
03/01/2014  08:38:00      130.298       95.475       60.915       56.329       41.216       54.842     3172.996     1698.752     3007.692        1.884        0.394      161.534       34.446        0.045      334.549        4.592      850.988
03/01/2014  08:39:00      155.076       41.932        5.806       58.350       43.820       32.693     3404.701     1920.197     1068.811        1.612        0.320      160.645       20.156        0.016      334.516        4.540      850.998
03/01/2014  08:40:00       38.870       24.259       53.541       52.863       31.471       32.201     2794.460      990.415     1036.910        0.489        0.241       45.819       31.676        0.478      334.795        5.004      851.011
03/01/2014  08:41:00       65.244       47.464       58.484       51.814       37.187       28.973     2684.684     1382.892      839.457        0.742        0.245       80.682       30.165        0.140      334.782        4.982      851.020
03/01/2014  08:42:00       89.865       57.491       41.500       32.684       43.316       27.247     1068.215     1876.252      742.374        0.839        0.184      106.681       18.768        0.031      334.730        4.894      851.022
03/01/2014  08:43:00       95.327       78.511       37.659       38.311       30.516       31.878     1467.754      931.198     1016.226        1.004        0.171      123.496       21.434        0.030      334.796        5.006      851.008
03/01/2014  08:44:00       52.461       52.906       53.450       38.045       42.261       35.247     1447.417     1786.024     1242.370        0.644        0.224       74.506       20.398        0.075      334.921        5.213      851.007
03/01/2014  08:45:00       47.284      -69.125       24.641       30.377       41.632       29.623      922.772     1733.232      877.495        0.558        0.177       83.750       18.713        0.050      334.966        5.288      851.019
03/01/2014  08:46:00       30.830      -20.910       24.244       23.554       37.191       38.385      554.809     1383.160     1473.420        0.269        0.171       37.253       30.078        0.652      335.305        5.850      851.037
03/01/2014  08:47:00       46.344       11.560       44.617       52.003       51.614       37.335     2704.295     2664.050     1393.931        0.552        0.338       47.764       35.636        0.557      335.213        5.698      851.049
03/01/2014  08:48:00       48.469       51.275       55.814       35.376       33.382       34.746     1251.459     1114.355     1207.282        0.583        0.179       70.558       27.213        0.149      334.971        5.295      851.041
03/01/2014  08:49:00       60.565       47.693       21.580       23.749       29.065       24.143      564.023      844.797      582.893        0.420        0.100       77.089        6.984        0.008      334.961        5.279      851.038
03/01/2014  08:50:00       56.062      -19.115       16.817       33.466       25.465       25.462     1119.960      648.451      648.333        0.310        0.121       59.232       16.050        0.073      335.195        5.668      851.060
03/01/2014  08:51:00       62.100       14.738       27.897       36.311       28.702       24.959     1318.483      823.805      622.933        0.381        0.138       63.825       19.111        0.090      335.250        5.760      851.103
03/01/2014  08:52:00       79.316       74.436       25.288       22.251       21.134       25.665      495.116      446.650      658.688        0.704        0.080      108.774       15.273        0.020      335.015        5.368      851.127
03/01/2014  08:53:00        0.306       45.807       65.806       26.535       47.482       28.563      704.118     2254.566      815.830        0.510        0.189       45.808       21.052        0.211      335.604        6.348      851.131
03/01/2014  08:54:00       51.214       59.964       54.691       31.514       30.296       29.731      993.124      917.861      883.957        0.600        0.140       78.858       22.081        0.078      335.334        5.899      851.136
03/01/2014  08:55:00       60.175       -2.015       22.559       35.902       61.073       46.730     1288.919     3729.885     2183.728        0.567        0.360       60.208       48.233        0.642      335.278        5.806      851.166
03/01/2014  08:56:00       42.108       46.651       37.123       43.975       40.256       39.542     1933.797     1620.512     1563.594        0.522        0.256       62.844       31.447        0.250      335.430        6.057      851.204
03/01/2014  08:57:00       57.296       64.998       26.438       22.376       28.720       24.131      500.690      824.866      582.303        0.506        0.095       86.646       15.753        0.033      335.169        5.625      851.200
03/01/2014  08:58:00       78.776       76.060       20.565       23.250       24.242       22.853      540.570      587.689      522.248        0.703        0.083      109.502        8.283        0.006      335.197        5.670      851.191
03/01/2014  08:59:00       54.092       23.798       14.568       33.460       23.685       27.292     1119.548      560.975      744.835        0.306        0.121       59.096       12.514        0.045      335.291        5.827      851.199
03/01/2014  09:00:00       37.002       32.240       16.683       26.969       22.235       30.066      727.348      494.382      903.981        0.241        0.106       49.077       13.753        0.079      335.596        6.336      851.202
03/01/2014  09:01:00       31.440       62.219       -2.210       29.425       22.715       23.787      865.816      515.990      565.814        0.341        0.097       69.712       13.302        0.036      335.512        6.195      851.214
03/01/2014  09:02:00       28.883       35.863       31.757       29.354       40.203       27.225      861.686     1616.288      741.220        0.317        0.161       46.047       29.674        0.415      335.831        6.727      851.222
03/01/2014  09:03:00       28.063       50.196       -0.269       22.283       23.651       39.963      496.533      559.391     1597.007        0.298        0.133       57.508       26.984        0.220      335.460        6.109      851.219
03/01/2014  09:04:00      -18.494       81.657       -0.762       20.731       40.088       24.116      429.763     1607.050      581.594        0.481        0.131       83.725       21.474        0.066      335.571        6.294      851.217
03/01/2014  09:05:00       -8.298       99.387        1.813       21.820       33.551       20.384      476.123     1125.694      415.525        0.598        0.101       99.733       13.571        0.019      335.745        6.584      851.218
03/01/2014  09:06:00       -2.679       47.509       10.500       23.885       29.880       23.011      570.488      892.811      529.484        0.218        0.100       47.585       21.343        0.201      336.267        7.455      851.227
03/01/2014  09:07:00      -22.984       78.261        4.954       17.147       21.652       20.884      294.004      468.796      436.121        0.394        0.060       81.566       11.142        0.019      335.855        6.767      851.249
03/01/2014  09:08:00       -4.093       15.742       22.462       14.172       15.710       17.391      200.852      246.797      302.442        0.076        0.038       16.265        8.723        0.288      336.551        7.928      851.272
03/01/2014  09:09:00        8.101       13.386       29.951       17.756       14.953       18.694      315.259      223.591      349.450        0.101        0.044       15.646       10.661        0.464      336.570        7.960      851.277
03/01/2014  09:10:00      -21.741       24.638       26.742       18.937       15.062       19.351      358.593      226.872      374.449        0.138        0.048       32.859        8.012        0.059      336.041        7.075      851.271
03/01/2014  09:11:00       -3.316       16.272        4.179       30.156       23.476       24.826      909.402      551.105      616.311        0.118        0.104       16.606       16.976        1.045      336.159        7.274      851.273
03/01/2014  09:12:00       45.334       40.316        0.475       35.868       28.316       22.244     1286.518      801.787      494.779        0.313        0.129       60.667       14.591        0.058      335.797        6.671      851.265
03/01/2014  09:13:00        2.952       26.885        7.079       27.010       18.496       21.034      729.554      342.111      442.408        0.115        0.076       27.047       13.920        0.265      335.709        6.523      851.271
03/01/2014  09:14:00       20.259       24.482       13.494       23.883       22.630       26.433      570.398      512.104      698.691        0.149        0.089       31.777       19.092        0.361      335.973        6.963      851.283
03/01/2014  09:15:00       22.288       37.891       10.511       24.031       26.804       24.627      577.498      718.475      606.488        0.197        0.095       43.960       17.432        0.157      335.871        6.794      851.287
03/01/2014  09:16:00      -13.808       93.358       13.570       25.681       49.781       30.403      659.500     2478.141      924.321        0.658        0.203       94.374       26.716        0.080      335.920        6.875      851.280
03/01/2014  09:17:00        9.220       11.317       21.641       20.756       20.941       24.585      430.829      438.529      604.424        0.108        0.074       14.597       13.961        0.915      336.252        7.429      851.277
03/01/2014  09:18:00       13.815        4.823       27.613       16.989       23.437       17.288      288.633      549.307      298.873        0.106        0.057       14.632        8.682        0.352      336.287        7.487      851.272
03/01/2014  09:19:00       77.172       58.932       18.103       40.140       19.949       20.507     1611.192      397.970      420.549        0.609        0.121       97.100        9.322        0.009      335.777        6.635      851.272
03/01/2014  09:20:00       59.801       37.655       16.650       25.985       20.667       20.535      675.241      427.105      421.667        0.340        0.076       70.669       10.485        0.022      335.782        6.645      851.278
03/01/2014  09:21:00       75.652       61.882       45.492       37.959       34.546       37.221     1440.919     1193.394     1385.390        0.782        0.201       97.738       20.248        0.043      335.806        6.684      851.277
03/01/2014  09:22:00       41.341       -1.128       32.757       40.073       47.640       22.061     1605.809     2269.561      486.703        0.357        0.218       41.356       22.894        0.306      335.779        6.640      851.289
03/01/2014  09:23:00      132.776       67.322       14.679       41.068       35.142       36.197     1686.594     1234.957     1310.237        1.330        0.212      148.868       17.508        0.014      335.650        6.426      851.299
03/01/2014  09:24:00       24.678       59.481       -6.298       39.958       36.816       25.091     1596.624     1355.450      629.547        0.388        0.179       64.397       18.160        0.080      335.876        6.800      851.307
03/01/2014  09:25:00       -7.628       83.576        3.297       18.923       38.247       22.332      358.096     1462.839      498.700        0.469        0.116       83.924       23.814        0.081      336.091        7.161      851.314
03/01/2014  09:26:00        7.026       47.241        7.209       23.815       43.585       26.456      567.169     1899.637      699.915        0.275        0.158       47.761       24.802        0.270      336.355        7.602      851.317
03/01/2014  09:27:00       60.943       46.910        9.257       40.229       36.139       29.211     1618.406     1306.019      853.290        0.489        0.189       76.906       20.453        0.071      335.946        6.920      851.300
03/01/2014  09:28:00       51.389       38.197       -0.751       34.106       26.823       26.042     1163.203      719.490      678.189        0.333        0.128       64.030       18.418        0.083      335.804        6.680      851.287
03/01/2014  09:29:00       96.772       40.198       -3.466       43.405       28.136       23.926     1884.031      791.644      572.457        0.712        0.162      104.788        8.517        0.007      335.694        6.498      851.270
03/01/2014  09:30:00       48.066       40.460       19.944       20.333       19.509       26.135      413.444      380.589      683.044        0.291        0.074       62.828       13.690        0.047      335.751        6.594      851.275
03/01/2014  09:31:00       13.891       47.157       60.309       40.125       48.787       25.390     1609.989     2380.208      644.649        0.534        0.232       49.160       24.209        0.243      336.459        7.777      851.278
03/01/2014  09:32:00        0.860       41.442       63.924       27.976       34.988       29.822      782.668     1224.182      889.350        0.435        0.145       41.451       26.480        0.408      336.361        7.612      851.281
03/01/2014  09:33:00       26.940       17.715       56.690       43.322       55.073       36.899     1876.806     3033.084     1361.533        0.526        0.314       32.242       32.200        0.997      336.229        7.390      851.280
03/01/2014  09:34:00       47.201       21.932       41.619       48.023       46.209       32.552     2306.192     2135.264     1059.620        0.497        0.275       52.047       27.288        0.275      336.123        7.214      851.282
03/01/2014  09:35:00       65.945       22.929       51.162       39.001       49.662       43.918     1521.093     2466.297     1928.827        0.670        0.296       69.817       39.465        0.320      336.073        7.131      851.279
03/01/2014  09:36:00       43.713       42.998       49.207       27.610       22.442       25.178      762.316      503.639      633.927        0.404        0.095       61.316       15.247        0.062      335.963        6.946      851.275
03/01/2014  09:37:00       85.419       51.683       14.220       28.479       29.309       26.152      811.065      858.993      683.924        0.626        0.118       99.838       14.294        0.020      335.933        6.896      851.268
03/01/2014  09:38:00       35.595       59.341       65.324       44.557       41.206       33.854     1985.287     1697.938     1146.118        0.694        0.241       69.198       30.465        0.194      336.329        7.559      851.269
03/01/2014  09:39:00      109.947       55.325       21.881       35.282       29.190       28.619     1244.843      852.060      819.075        0.927        0.146      123.082       21.068        0.029      335.776        6.636      851.280
03/01/2014  09:40:00       31.546       36.504       32.666       36.411       24.674       27.077     1325.784      608.799      733.146        0.303        0.133       48.246       21.357        0.196      336.274        7.467      851.290
03/01/2014  09:41:00       53.053      -33.697       -4.491       46.711       57.935       22.565     2181.871     3356.480      509.172        0.501        0.302       62.850       23.217        0.136      336.361        7.612      851.285
03/01/2014  09:42:00       21.382      -78.243       21.959       47.148       72.242       49.245     2222.918     5218.904     2425.057        0.846        0.493       81.112       50.891        0.394      336.570        7.961      851.285
03/01/2014  09:43:00        5.716       48.531       60.855       26.631       32.050       26.775      709.218     1027.194      716.882        0.427        0.123       48.866       13.262        0.074      336.536        7.903      851.317
03/01/2014  09:44:00       14.698       48.806       39.998       35.056       28.367       28.852     1228.926      804.678      832.412        0.353        0.143       50.971       23.350        0.210      336.411        7.694      851.336
03/01/2014  09:45:00       16.452      -16.693       28.166       28.882       71.906       29.558      834.167     5170.485      873.673        0.411        0.344       23.437       27.472        1.374      336.784        8.317      851.340
03/01/2014  09:46:00      -21.918       12.013       21.307       25.359       24.828       35.758      643.058      616.434     1278.653        0.181        0.127       24.994       23.521        0.886      336.601        8.010      851.347
03/01/2014  09:47:00       15.661      -25.251       12.042       37.734       21.687       20.844     1423.827      470.313      434.463        0.168        0.116       29.713       11.560        0.151      336.614        8.034      851.339
03/01/2014  09:48:00       -0.729      -36.005       -1.291       27.246       26.886       18.222      742.326      722.872      332.045        0.155        0.090       36.012       14.502        0.162      336.324        7.549      851.323
03/01/2014  09:49:00      -12.228       29.112       64.991       17.619       35.497       17.658      310.446     1260.071      311.809        0.355        0.094       31.576       16.046        0.258      337.319        9.214      851.290
03/01/2014  09:50:00      -26.885      -39.076       22.219       25.270       36.566       24.248      638.578     1337.084      587.943        0.265        0.128       47.431       20.416        0.185      336.881        8.482      851.279
03/01/2014  09:51:00       10.486      -34.077       52.490       40.986       49.352       33.946     1679.868     2435.574     1152.299        0.465        0.263       35.654       29.574        0.688      337.090        8.832      851.261
03/01/2014  09:52:00      -40.502      -31.177       14.787       58.862       54.209       24.658     3464.727     2938.637      608.028        0.492        0.351       51.112       20.410        0.159      336.750        8.260      851.245
03/01/2014  09:53:00       34.857      -20.390       22.664       58.633       77.465       42.847     3437.772     6000.798     1835.873        0.671        0.564       40.383       47.657        1.393      336.910        8.529      851.217
03/01/2014  09:54:00       -8.830        8.039       45.127       17.353       32.726       22.868      301.143     1070.962      522.966        0.204        0.095       11.942        9.265        0.602      337.233        9.069      851.201
03/01/2014  09:55:00        8.394       59.966       92.245       36.401       62.537       56.776     1325.042     3910.824     3223.467        1.032        0.423       60.550       51.735        0.730      336.946        8.589      851.178
03/01/2014  09:56:00       35.751       44.962       89.761       42.260       56.357       30.847     1785.868     3176.099      951.524        0.863        0.296       57.443       35.941        0.391      336.556        7.938      851.186
03/01/2014  09:57:00       66.259       26.360       27.317       28.485       42.607       32.620      811.399     1815.396     1064.049        0.476        0.185       71.310       22.497        0.100      336.283        7.481      851.199
03/01/2014  09:58:00       29.955      -25.100       13.696       30.351       52.207       29.976      921.208     2725.563      898.544        0.313        0.227       39.081       26.549        0.461      336.640        8.077      851.208
03/01/2014  09:59:00       19.472      -27.305       22.653       31.922       69.175       32.838     1019.018     4785.209     1078.362        0.426        0.344       33.537       32.279        0.926      336.704        8.184      851.231
03/01/2014  10:00:00       49.889      109.054      107.403       78.622       85.743       58.639     6181.364     7351.852     3438.492        2.144        0.849      119.924       60.677        0.256      336.880        8.478      851.241
03/01/2014  10:01:00       88.965      127.183      108.473       67.233       51.027       40.377     4520.287     2603.739     1630.342        2.230        0.438      155.210       28.093        0.033      336.357        7.602      851.260
03/01/2014  10:02:00       93.316       25.635       68.413       78.004       72.492       51.406     6084.701     5255.075     2642.553        1.401        0.699       96.773       56.923        0.346      336.702        8.181      851.272
03/01/2014  10:03:00       62.351       87.739      106.204       96.370       86.282       72.073     9287.164     7444.628     5194.493        2.239        1.096      107.638       86.770        0.650      336.798        8.340      851.276
03/01/2014  10:04:00       97.372       66.869       77.208       60.676       66.607       52.104     3681.537     4436.456     2714.775        1.537        0.542      118.122       46.187        0.153      336.525        7.885      851.301
03/01/2014  10:05:00      106.856       87.250       56.108       56.653       42.654       54.195     3209.523     1819.380     2937.083        1.507        0.398      137.952       36.672        0.071      336.325        7.551      851.306
03/01/2014  10:06:00      131.559       84.038       40.119       48.129       44.849       49.098     2316.362     2011.390     2410.611        1.636        0.337      156.109       35.094        0.051      336.343        7.582      851.307
03/01/2014  10:07:00      105.726       88.937      -12.189       51.027       39.441       35.802     2603.735     1555.574     1281.779        1.234        0.272      138.159       18.785        0.018      336.390        7.661      851.306
03/01/2014  10:08:00      123.097       90.042        8.191       60.260       62.598       42.364     3631.292     3918.453     1794.690        1.633        0.467      152.514       35.914        0.055      336.435        7.733      851.319
03/01/2014  10:09:00       73.940       86.841       -8.332       64.569       22.773       25.880     4169.103      518.630      669.792        0.922        0.268      114.055       28.558        0.063      336.126        7.219      851.329
03/01/2014  10:10:00      -19.623        2.538      -21.516       23.412       33.504       18.603      548.145     1122.508      346.054        0.144        0.101       19.786       16.107        0.663      336.432        7.730      851.329
03/01/2014  10:11:00       34.691       38.995       19.097       33.025       21.183       27.508     1090.646      448.707      756.710        0.269        0.115       52.193       10.834        0.043      336.984        8.652      851.347
03/01/2014  10:12:00       33.835       34.212       39.658       33.154       32.860       39.155     1099.173     1079.796     1533.095        0.380        0.186       48.117       25.413        0.279      337.003        8.684      851.364
03/01/2014  10:13:00       20.929      -72.243       19.548       30.335       73.848       37.360      920.217     5453.585     1395.804        0.690        0.388       75.214       28.422        0.143      336.706        8.187      851.385
03/01/2014  10:14:00       -7.687        6.323       39.939       19.279       28.151       20.299      371.679      792.491      412.052        0.163        0.079        9.953        9.931        0.995      337.707        9.862      851.405
03/01/2014  10:15:00      -26.719       -3.960       45.912       20.262       38.301       24.262      410.544     1466.969      588.648        0.265        0.123       27.011       22.608        0.701      337.223        9.054      851.417
03/01/2014  10:16:00      -24.465       17.632       31.031       23.290       24.447       22.576      542.419      597.661      509.667        0.176        0.082       30.157       16.922        0.315      337.217        9.043      851.438
03/01/2014  10:17:00       52.059      -13.558       32.552       97.644      111.272       64.951     9534.318    12381.522     4218.645        1.504        1.307       53.795       71.824        1.783      337.068        8.792      851.455
03/01/2014  10:18:00      146.986       70.915       63.211       96.954       82.829       69.808     9399.986     6860.564     4873.124        2.588        1.057      163.199       63.466        0.151      336.611        8.029      851.469
03/01/2014  10:19:00      103.554      -31.879       41.637       76.657       89.851       50.370     5876.237     8073.268     2537.146        1.498        0.824      108.350       35.496        0.107      336.936        8.571      851.478
03/01/2014  10:20:00       77.211      -12.116       52.598       78.125       98.731       65.072     6103.478     9747.857     4234.421        1.448        1.004       78.156       64.104        0.673      337.108        8.857      851.496
03/01/2014  10:21:00       53.348     -129.755        1.486       69.482       89.554       48.859     4827.808     8019.950     2387.228        1.746        0.762      140.293       46.196        0.108      336.922        8.547      851.509
03/01/2014  10:22:00       29.651       42.864       76.474       58.956       65.808       56.755     3475.854     4330.675     3221.140        0.979        0.551       52.120       51.113        0.962      337.140        8.914      851.523
03/01/2014  10:23:00       47.997       86.979      107.294       57.665       78.166       55.172     3325.273     6109.848     3043.906        1.693        0.624       99.343       50.540        0.259      336.942        8.582      851.541
03/01/2014  10:24:00       61.390      -70.030        7.217       48.551       51.507       35.432     2357.225     2653.012     1255.403        0.749        0.313       93.128       28.434        0.093      336.730        8.228      851.552
03/01/2014  10:25:00       77.334       14.631       44.800       75.485      119.904       53.062     5697.922    14377.011     2815.622        1.554        1.145       78.706       41.692        0.281      337.078        8.810      851.552
03/01/2014  10:26:00      133.755       98.080       30.532       55.605       65.171       35.486     3091.940     4247.242     1259.285        1.852        0.430      165.862       23.201        0.020      336.364        7.614      851.578
03/01/2014  10:27:00       67.843        0.747       39.053       73.949       87.618       62.072     5468.484     7676.871     3852.904        1.156        0.850       67.847       58.928        0.754      336.787        8.323      851.581
03/01/2014  10:28:00      110.092      135.131       85.856       73.295       52.917       63.071     5372.145     2800.222     3977.998        2.495        0.608      174.301       53.164        0.093      336.739        8.242      851.592
03/01/2014  10:29:00       77.636       18.839        6.584       35.001       44.360       27.822     1225.100     1967.774      774.045        0.520        0.198       79.889       25.595        0.103      336.512        7.864      851.611
03/01/2014  10:30:00       -9.521      -12.978        0.427       30.292       34.810       28.261      917.595     1211.724      798.711        0.159        0.146       16.096       28.136        3.055      336.614        8.034      851.596
03/01/2014  10:31:00       19.784       33.261       24.262       33.731       65.613       42.645     1137.756     4305.072     1818.592        0.467        0.363       38.700       22.222        0.330      337.136        8.906      851.585
03/01/2014  10:32:00      120.811       64.406       31.356       96.092       71.054       52.250     9233.592     5048.647     2730.078        1.837        0.851      136.907       38.372        0.079      337.070        8.795      851.566
03/01/2014  10:33:00        4.876       44.655       82.496       81.386       50.095       53.949     6623.703     2509.517     2910.464        1.043        0.602       44.920       47.391        1.113      337.395        9.340      851.568
03/01/2014  10:34:00       75.218       55.922       21.561       71.423       52.591       34.394     5101.296     2765.861     1182.915        0.915        0.453       93.728       37.928        0.164      337.390        9.331      851.562
03/01/2014  10:35:00      128.452       71.212       21.129       63.235       76.953       43.740     3998.688     5921.755     1913.170        1.692        0.592      146.871       31.457        0.046      336.807        8.356      851.564
03/01/2014  10:36:00       22.692       70.045      -16.476       39.028       46.344       33.055     1523.161     2147.731     1092.627        0.523        0.238       73.629       33.116        0.202      336.814        8.368      851.569
03/01/2014  10:37:00       68.348       92.213       -9.266       34.533       47.728       32.282     1192.501     2277.982     1042.114        0.889        0.226      114.781       26.438        0.053      336.890        8.495      851.577
03/01/2014  10:38:00      107.102       93.496       44.035       43.593       45.291       56.711     1900.369     2051.293     3216.161        1.466        0.358      142.170       30.121        0.045      337.041        8.747      851.588
03/01/2014  10:39:00      133.234       94.247       73.522       84.505      101.693       60.986     7141.161    10341.555     3719.337        2.662        1.060      163.199       46.270        0.080      337.153        8.933      851.606
03/01/2014  10:40:00      134.166      157.105      121.503       98.461       68.998       74.238     9694.480     4760.676     5511.321        3.870        0.998      206.598       63.668        0.095      337.104        8.849      851.606
03/01/2014  10:41:00       44.457       24.682       92.629       90.400      118.463       64.050     8172.199    14033.401     4102.430        1.873        1.315       50.849       70.687        1.932      337.441        9.416      851.604
03/01/2014  10:42:00       27.228      -42.583       68.777       73.685      125.604       65.725     5429.415    15776.461     4319.753        1.640        1.276       50.544       81.308        2.588      337.690        9.833      851.619
03/01/2014  10:43:00       68.521       73.153      101.539       79.107       90.979       69.692     6257.953     8277.266     4856.992        1.987        0.970      100.232       74.136        0.547      337.224        9.053      851.644
03/01/2014  10:44:00       55.321      -38.241       15.115       52.615       76.157       68.361     2768.385     5799.851     4673.257        0.899        0.662       67.252       46.820        0.485      337.030        8.728      851.638
03/01/2014  10:45:00       56.229       42.023       48.701       42.179       46.100       49.043     1779.066     2125.195     2405.193        0.680        0.315       70.197       30.011        0.183      337.020        8.714      851.669
03/01/2014  10:46:00       43.599       37.327       59.927       51.506       43.175       29.497     2652.868     1864.058      870.066        0.614        0.269       57.395       33.192        0.334      336.964        8.618      851.661
03/01/2014  10:47:00       74.793       46.690       48.112       55.648       46.987       33.432     3096.682     2207.733     1117.687        0.825        0.321       88.170       29.708        0.114      337.152        8.935      851.667
03/01/2014  10:48:00       58.971      -34.172       20.161       31.681      105.682       40.222     1003.690    11168.768     1617.813        0.942        0.690       68.157       58.475        0.736      336.949        8.594      851.678
03/01/2014  10:49:00        0.486      -14.804        8.380       35.301       47.676       34.953     1246.161     2273.022     1221.680        0.251        0.237       14.812       31.017        4.385      337.075        8.804      851.697
03/01/2014  10:50:00       62.551     -148.732      -29.333       43.460       42.954       32.994     1888.757     1845.013     1088.588        1.586        0.241      161.350       14.339        0.008      336.989        8.661      851.709
03/01/2014  10:51:00       61.599     -126.161      -12.040       40.682       62.761       29.731     1655.024     3939.001      883.908        1.317        0.324      140.396       10.524        0.006      336.764        8.285      851.734
03/01/2014  10:52:00       11.691       -2.311       -4.697       29.891       31.177       21.835      893.465      972.014      476.785        0.125        0.117       11.917        8.431        0.501      337.032        8.732      851.748
03/01/2014  10:53:00       55.827      -34.404       34.336       74.090       72.094       43.727     5489.302     5197.488     1912.017        0.904        0.630       65.577       35.522        0.293      337.221        9.048      851.748
03/01/2014  10:54:00       75.776      104.193       82.528       70.977       45.031       54.456     5037.762     2027.781     2965.466        1.672        0.502      128.834       30.104        0.055      337.012        8.698      851.742
03/01/2014  10:55:00      146.609      108.440       67.795       73.528       51.880       43.266     5406.330     2691.563     1871.940        2.391        0.498      182.355       27.497        0.023      336.714        8.199      851.733
03/01/2014  10:56:00       25.251       72.458      106.185       54.867       54.466       32.441     3010.369     2966.495     1052.447        1.209        0.351       76.731       27.889        0.132      337.081        8.814      851.712
03/01/2014  10:57:00      -24.431       59.514      103.256       30.693       63.056       42.730      942.080     3976.060     1825.827        1.077        0.337       64.334       38.091        0.351      337.263        9.120      851.697
03/01/2014  10:58:00       38.601      -31.864       40.434       37.327       64.947       42.926     1393.318     4218.176     1842.630        0.580        0.373       50.053       29.418        0.345      337.147        8.925      851.721
03/01/2014  10:59:00       45.527      -69.760       23.640       45.140       55.660       37.593     2037.629     3098.033     1413.266        0.702        0.327       83.302       33.606        0.163      337.107        8.859      851.735
03/01/2014  11:00:00        7.068      -24.285       32.589       29.918       56.126       32.403      895.103     3150.107     1049.924        0.340        0.255       25.292       26.312        1.082      337.218        9.043      851.731
03/01/2014  11:01:00       68.489      -32.816       25.631       47.929       73.356       43.824     2297.235     5381.091     1920.553        0.801        0.480       75.945       45.308        0.356      337.072        8.800      851.724
03/01/2014  11:02:00       61.409       34.332       38.218       68.597       48.860       32.003     4705.499     2387.292     1024.218        0.726        0.406       70.354       34.038        0.234      337.300        9.180      851.723
03/01/2014  11:03:00       57.279       46.449      -14.655       51.438       28.960       29.013     2645.916      838.707      841.780        0.499        0.216       73.746       15.977        0.047      336.990        8.664      851.724
03/01/2014  11:04:00       16.298       35.188       14.739       21.541       37.292       30.864      464.013     1390.697      952.587        0.226        0.140       38.779       21.594        0.310      337.467        9.461      851.723
03/01/2014  11:05:00       56.717       67.939       38.643       43.929       32.322       36.044     1929.762     1044.701     1299.161        0.680        0.214       88.501       21.415        0.059      337.368        9.295      851.734
03/01/2014  11:06:00       36.956       10.854       11.787       36.223       55.766       41.893     1312.116     3109.860     1754.990        0.390        0.309       38.517       24.830        0.416      337.321        9.218      851.738
03/01/2014  11:07:00       47.012       58.468       48.041       25.851       31.465       28.595      668.255      990.052      817.676        0.521        0.124       75.024       13.337        0.032      337.090        8.830      851.745
03/01/2014  11:08:00       27.811       -5.962       33.545       28.031       33.811       19.904      785.763     1143.151      396.158        0.213        0.116       28.443       17.690        0.387      337.689        9.832      851.746
03/01/2014  11:09:00       40.092       -5.585       31.291       46.572       49.508       25.175     2168.986     2451.073      633.760        0.393        0.263       40.479       23.238        0.330      337.725        9.892      851.763
03/01/2014  11:10:00       30.252       39.902       17.432       25.332       34.463       39.948      641.709     1187.668     1595.882        0.312        0.171       50.073       22.238        0.197      337.529        9.565      851.789
03/01/2014  11:11:00      -35.393      -13.058      -22.032       47.836       32.694       18.804     2288.302     1068.892      353.590        0.281        0.186       37.725       11.545        0.094      337.221        9.048      851.811
03/01/2014  11:12:00      -47.043       42.448       -6.297       44.342       70.710       26.165     1966.236     4999.854      684.623        0.585        0.383       63.363       24.099        0.145      337.262        9.117      851.820
03/01/2014  11:13:00      -39.080       25.916        9.114       42.511       31.676       23.659     1807.227     1003.375      559.772        0.283        0.169       46.893       17.151        0.134      337.464        9.456      851.820
03/01/2014  11:14:00      -29.159       20.910       18.213       68.886       39.743       37.070     4745.328     1579.500     1374.215        0.466        0.385       35.882       46.395        1.672      337.479        9.482      851.820
03/01/2014  11:15:00     -128.258       78.097      -37.124       33.580       34.801       15.692     1127.593     1211.118      246.232        1.326        0.129      150.164       11.069        0.005      336.775        8.302      851.838
03/01/2014  11:16:00      -34.219       27.214       -2.412       43.482       61.039       37.433     1890.675     3725.758     1401.223        0.447        0.351       43.721       24.975        0.326      337.012        8.699      851.845
03/01/2014  11:17:00      -69.672       93.081      -25.220       35.681       41.868       28.721     1273.128     1752.937      824.873        0.900        0.193      116.268       18.675        0.026      337.024        8.719      851.855
03/01/2014  11:18:00      -97.362      120.264      -25.105       41.103       53.069       23.940     1689.486     2816.369      573.126        1.483        0.254      154.735       18.622        0.014      337.057        8.774      851.868
03/01/2014  11:19:00      -72.775       17.946      -28.734       49.880       68.522       26.022     2488.028     4695.213      677.127        0.715        0.393       74.955       18.245        0.059      337.131        8.899      851.867
03/01/2014  11:20:00      -44.452       44.317       17.878       44.437       44.277       35.960     1974.675     1960.444     1293.133        0.474        0.261       62.769       34.607        0.304      337.568        9.629      851.874
03/01/2014  11:21:00      -28.557        8.214       20.835       25.437       24.754       20.810      647.059      612.752      433.062        0.150        0.085       29.715        9.860        0.110      337.355        9.273      851.884
03/01/2014  11:22:00      -35.947       45.370       -4.835       49.402       43.048       32.869     2440.543     1853.120     1080.387        0.437        0.269       57.884       13.564        0.055      337.249        9.096      851.882
03/01/2014  11:23:00      -94.045       12.955      -14.275       32.065       86.497       20.958     1028.152     7481.743      439.229        0.908        0.447       94.933       15.870        0.028      337.014        8.703      851.873
03/01/2014  11:24:00      -49.778      -87.514        7.304       66.544       57.936       35.109     4428.169     3356.532     1232.618        0.960        0.451      100.680       34.923        0.120      337.190        8.996      851.857
03/01/2014  11:25:00      -40.135      -74.829      -13.549       36.673       48.808       20.818     1344.942     2382.184      433.370        0.578        0.208       84.913       11.214        0.017      336.988        8.656      851.849
03/01/2014  11:26:00      -19.461       -8.735        8.811       21.562       31.731       24.594      464.916     1006.858      604.883        0.130        0.104       21.331       15.358        0.518      337.387        9.326      851.842
03/01/2014  11:27:00       21.182       28.935       16.062       22.737       33.247       30.263      516.988     1105.370      915.827        0.204        0.127       35.860       21.074        0.345      337.471        9.467      851.839
03/01/2014  11:28:00      -35.968      -20.174       12.627       47.599       28.703       25.042     2265.627      823.886      627.116        0.279        0.186       41.239       31.164        0.571      337.490        9.498      851.833
03/01/2014  11:29:00     -103.509       11.737      -15.993       29.338       45.812       21.381      860.703     2098.774      457.140        0.726        0.171      104.172       11.202        0.012      337.204        9.021      851.832
03/01/2014  11:30:00      -83.402       41.499      -20.614       27.552       34.564       21.230      759.125     1194.685      450.715        0.575        0.120       93.156        9.873        0.011      337.319        9.213      851.827
03/01/2014  11:31:00      -80.046       16.818       -9.717       31.052       40.899       18.333      964.251     1672.745      336.110        0.488        0.149       81.793       12.998        0.025      337.442        9.418      851.817
03/01/2014  11:32:00      -55.171       -2.165       17.365       55.663       38.406       33.743     3098.348     1475.041     1138.584        0.453        0.286       55.213       31.387        0.323      337.690        9.835      851.795
03/01/2014  11:33:00      -56.394      -55.962      -10.442       55.284       34.442       24.402     3056.341     1186.260      595.461        0.563        0.242       79.448       25.352        0.102      337.172        8.966      851.782
03/01/2014  11:34:00        3.491      -28.071       17.149       21.775       26.151       19.409      474.164      683.870      376.696        0.131        0.077       28.287       14.260        0.254      337.567        9.628      851.762
03/01/2014  11:35:00       14.425      -35.817       37.247       66.025       35.940       31.902     4359.347     1291.674     1017.729        0.477        0.333       38.613       25.631        0.441      337.707        9.862      851.745
03/01/2014  11:36:00     -115.899      -24.575        0.773       58.947       54.515       29.644     3474.794     2971.867      878.777        1.068        0.366      118.476       27.893        0.055      337.274        9.137      851.741
03/01/2014  11:37:00      -97.987      -41.405      -13.891       45.998       23.711       18.716     2115.803      562.227      350.290        0.727        0.151      106.376       10.100        0.009      337.026        8.722      851.745
03/01/2014  11:38:00       -4.455      -13.439        8.161       19.157       13.138       18.721      366.982      172.605      350.480        0.058        0.045       14.158       12.847        0.823      337.458        9.446      851.730
03/01/2014  11:39:00      -23.611      -49.803       -2.166       26.782       32.901       15.978      717.250     1082.452      255.293        0.255        0.103       55.117       15.616        0.080      337.220        9.046      851.735
03/01/2014  11:40:00     -105.255      -50.559        0.847       77.050       42.004       27.884     5936.762     1764.318      777.542        1.106        0.424      116.768       31.304        0.072      337.319        9.212      851.740
03/01/2014  11:41:00      -34.401      -74.994       11.134       53.055       54.206       27.833     2814.807     2938.330      774.700        0.673        0.326       82.507       25.739        0.097      337.464        9.455      851.756
03/01/2014  11:42:00     -100.414      -61.678        8.117       90.650       65.557       35.867     8217.501     4297.770     1286.456        1.388        0.690      117.843       41.666        0.125      337.389        9.329      851.749
03/01/2014  11:43:00     -126.167      -45.757      -12.313       25.969       32.787       17.384      674.382     1074.964      302.204        1.011        0.103      134.208        9.460        0.005      337.103        8.850      851.755
03/01/2014  11:44:00     -132.033      -54.665       -3.996       64.974       52.890       27.787     4221.639     2797.327      772.099        1.411        0.390      142.902       27.650        0.037      337.307        9.193      851.746
03/01/2014  11:45:00     -182.914      -37.342       -8.673       62.484       44.142       27.878     3904.244     1948.552      777.185        2.078        0.331      186.686       25.767        0.019      337.223        9.051      851.741
03/01/2014  11:46:00     -199.706      -68.177      -25.397       47.140       38.943       22.162     2222.154     1516.584      491.138        2.470        0.211      211.022       13.705        0.004      337.017        8.705      851.738
03/01/2014  11:47:00      -74.828      -40.675      -18.350       39.183       15.210       10.551     1535.298      231.331      111.321        0.473        0.094       85.168       11.378        0.018      337.022        8.716      851.730
03/01/2014  11:48:00      -47.893      -33.869        3.389       24.476       32.533       27.773      599.068     1058.391      771.360        0.294        0.121       58.659       20.693        0.124      337.263        9.118      851.720
03/01/2014  11:49:00      -82.996       17.710       -2.309       40.653       32.986       26.022     1652.667     1088.045      677.119        0.531        0.171       84.864       23.489        0.077      337.436        9.409      851.724
03/01/2014  11:50:00      -98.791      -43.650       -6.368       31.218       41.360       18.300      974.539     1710.679      334.884        0.736        0.151      108.005       13.920        0.017      337.286        9.158      851.726
03/01/2014  11:51:00      -50.895      -29.386       10.462       65.658       42.450       30.382     4310.988     1802.024      923.040        0.530        0.352       58.770       34.512        0.345      337.546        9.593      851.729
03/01/2014  11:52:00      -86.635      -95.085       -1.570       40.705       41.710       23.461     1656.910     1739.754      550.417        1.025        0.197      128.634       20.638        0.026      337.208        9.027      851.713
03/01/2014  11:53:00      -64.060      -67.966       14.843       68.651       47.538       29.530     4712.996     2259.852      871.995        0.839        0.392       93.397       34.346        0.135      337.385        9.325      851.695
03/01/2014  11:54:00     -191.104      -80.612        3.994       67.484       38.770       32.636     4554.151     1503.105     1065.100        2.508        0.356      207.410       30.408        0.021      337.267        9.121      851.678
03/01/2014  11:55:00     -122.804      -85.012       -4.679       41.359       22.263       21.886     1710.561      495.658      478.982        1.251        0.134      149.358       17.258        0.013      337.104        8.852      851.673
03/01/2014  11:56:00     -199.743      -83.817      -17.396       47.679       36.562       29.525     2273.249     1336.783      871.700        2.585        0.224      216.616       30.337        0.020      337.168        8.957      851.660
03/01/2014  11:57:00     -172.276      -47.471      -19.055       34.453       20.924       16.364     1186.994      437.805      267.781        1.709        0.095      178.696       13.395        0.006      337.100        8.845      851.654
03/01/2014  11:58:00     -161.426       41.554      -18.230       37.934       41.551       27.346     1439.022     1726.495      747.789        1.601        0.196      166.689       18.207        0.012      337.189        8.994      851.646
03/01/2014  11:59:00      -88.730       20.843       -5.644       56.234       50.522       29.366     3162.309     2552.468      862.344        0.746        0.329       91.145       19.223        0.044      337.359        9.280      851.638
03/01/2014  12:00:00      -94.647       35.356      -22.753       29.022       64.048       20.911      842.251     4102.100      437.284        0.805        0.269      101.035        9.867        0.010      337.232        9.068      851.629
03/01/2014  12:01:00      -22.538      -70.659        4.105       57.928       25.471       21.998     3355.656      648.788      483.896        0.500        0.224       74.166       20.468        0.076      337.239        9.079      851.643
03/01/2014  12:02:00       62.355      -13.064       35.240       47.603       67.744       33.236     2266.010     4589.203     1104.619        0.663        0.398       63.709       44.087        0.479      337.571        9.636      851.650
03/01/2014  12:03:00       45.459       84.417        8.571       47.185       56.347       35.425     2226.397     3175.037     1254.957        0.796        0.333       95.879       35.749        0.139      337.661        9.786      851.643
03/01/2014  12:04:00      124.070       93.085       13.475       46.985       32.620       34.640     2207.571     1064.073     1199.910        1.435        0.224      155.107       22.911        0.022      337.197        9.010      851.647
03/01/2014  12:05:00       47.668       54.566       17.743       35.110       21.117       28.159     1232.702      445.944      792.931        0.402        0.124       72.455       26.079        0.130      337.340        9.248      851.657
03/01/2014  12:06:00       -0.315       20.777       47.499       21.581       24.268       23.291      465.751      588.927      542.464        0.214        0.080       20.779       10.911        0.276      337.966       10.297      851.650
03/01/2014  12:07:00      -22.890       16.128       16.332       37.471       23.005       43.916     1404.077      529.211     1928.579        0.246        0.193       28.001       36.783        1.726      337.802       10.023      851.651
03/01/2014  12:08:00      -47.130      -21.290       -3.923       27.900       31.506       17.899      778.383      992.645      320.362        0.239        0.105       51.716       10.346        0.040      337.408        9.362      851.656
03/01/2014  12:09:00      -60.113        7.033      -23.609       26.541       16.513       15.683      704.428      272.669      245.966        0.272        0.061       60.523       10.197        0.028      337.408        9.361      851.647
03/01/2014  12:10:00       -2.035       20.265        2.865       20.407       22.281       21.399      416.438      496.445      457.897        0.090        0.069       20.367       12.598        0.383      337.667        9.796      851.649
03/01/2014  12:11:00       16.615      100.332       -6.233       28.318       51.754       27.085      801.883     2678.528      733.623        0.730        0.211      101.699       30.833        0.092      337.586        9.660      851.644
03/01/2014  12:12:00       43.128       65.989       12.174       36.724       29.795       30.954     1348.625      887.728      958.124        0.478        0.160       78.833       11.978        0.023      337.577        9.645      851.633
03/01/2014  12:13:00        2.055       56.826       -6.699       33.099       44.181       21.810     1095.571     1951.979      475.665        0.340        0.176       56.863       21.043        0.137      337.650        9.767      851.628
03/01/2014  12:14:00      -38.997       20.293       -1.346       29.820       49.397       18.806      889.238     2440.060      353.650        0.281        0.184       43.961       18.674        0.180      338.005       10.363      851.624
03/01/2014  12:15:00      -85.970       92.063      -13.575       40.102       43.013       29.466     1608.209     1850.153      868.235        1.019        0.216      125.962       25.382        0.041      337.529        9.564      851.626
03/01/2014  12:16:00      -36.525      100.853      -10.957       37.422       33.633       24.578     1400.407     1131.186      604.067        0.738        0.157      107.264       16.733        0.024      337.583        9.656      851.617
03/01/2014  12:17:00       -1.426       59.575        3.117       26.207       31.372       29.393      686.819      984.187      863.939        0.305        0.127       59.592       12.580        0.045      337.699        9.849      851.606
03/01/2014  12:18:00        2.484       89.421       -6.407       30.661       36.925       29.268      940.080     1363.482      856.608        0.560        0.158       89.456       24.290        0.074      337.656        9.777      851.589
03/01/2014  12:19:00      -53.716       34.162        6.059       34.052       38.705       26.808     1159.521     1498.045      718.680        0.373        0.169       63.659       24.728        0.151      338.037       10.417      851.579
03/01/2014  12:20:00      -31.498       59.023       -1.217       19.488       32.504       25.555      379.787     1056.483      653.041        0.328        0.104       66.902       11.194        0.028      337.720        9.884      851.587
03/01/2014  12:21:00      -77.605       43.053       -2.177       50.628       36.001       28.202     2563.189     1296.099      795.363        0.627        0.233       88.747       19.197        0.047      337.736        9.913      851.589
03/01/2014  12:22:00      -39.474       17.775        0.349       24.648       16.137       18.275      607.505      260.412      333.992        0.154        0.060       43.291       16.703        0.149      337.709        9.866      851.586
03/01/2014  12:23:00     -153.574      -44.051       -6.187       49.157       41.656       28.597     2416.453     1735.254      817.775        1.527        0.248      159.767       12.193        0.006      337.644        9.757      851.588
03/01/2014  12:24:00      -84.247      -22.334        8.904       62.605       49.284       35.396     3919.410     2428.949     1252.874        0.764        0.380       87.157       24.106        0.077      337.964       10.293      851.585
03/01/2014  12:25:00      -16.865       -7.548       13.460       48.546       39.526       35.697     2356.697     1562.313     1274.286        0.286        0.260       18.477       29.978        2.632      338.132       10.575      851.589
03/01/2014  12:26:00     -111.544      -91.566        0.135       58.853       57.843       38.782     3463.724     3345.775     1504.012        1.457        0.416      144.313       37.531        0.068      337.691        9.837      851.589
03/01/2014  12:27:00      -71.759      -61.899       10.308       70.157       47.353       39.309     4922.028     2242.335     1545.216        0.890        0.435       94.768       46.557        0.241      337.852       10.106      851.576
03/01/2014  12:28:00      -92.592      -11.977       -4.943       46.317       65.292       30.997     2145.245     4262.981      960.836        0.805        0.368       93.364       21.644        0.054      337.908       10.199      851.574
03/01/2014  12:29:00      -77.850      131.654      -22.708       39.176       54.099       26.001     1534.757     2926.719      676.059        1.452        0.257      152.948       20.387        0.018      337.753        9.939      851.583
03/01/2014  12:30:00      -46.322       67.195       -4.128       40.718       42.804       29.226     1657.934     1832.193      854.182        0.551        0.217       81.615       18.942        0.054      337.872       10.139      851.584
03/01/2014  12:31:00      -51.664       51.715       -2.563       41.116       27.626       22.880     1690.515      763.172      523.489        0.416        0.149       73.100       23.139        0.100      337.888       10.166      851.593
03/01/2014  12:32:00      -54.869       39.843       -9.986       60.985       53.556       36.752     3719.206     2868.195     1350.728        0.632        0.397       67.809       39.175        0.334      337.993       10.343      851.599
03/01/2014  12:33:00      -56.982      154.017      -10.768       39.587       52.003       29.909     1567.167     2704.280      894.564        1.612        0.258      164.220       30.330        0.034      337.805       10.026      851.593
03/01/2014  12:34:00     -111.088      191.060      -33.331       36.498       58.727       30.387     1332.084     3448.859      923.387        2.783        0.285      221.008       17.784        0.006      337.669        9.797      851.585
03/01/2014  12:35:00     -112.138       39.995      -20.065       41.166       47.792       27.101     1694.632     2284.032      734.480        0.964        0.236      119.057       25.330        0.045      337.861       10.121      851.593
03/01/2014  12:36:00      -92.465       19.492       -5.700       64.581       32.911       22.772     4170.658     1083.117      518.557        0.737        0.289       94.497       24.854        0.069      337.951       10.273      851.591
03/01/2014  12:37:00      -93.298       -8.349       -2.828       78.173       30.947       25.253     6111.013      957.742      637.734        0.824        0.385       93.671       36.939        0.156      337.789       10.002      851.597
03/01/2014  12:38:00       51.488       28.390       31.041       33.849       36.588       24.609     1145.775     1338.707      605.601        0.375        0.155       58.796       21.169        0.130      337.978       10.318      851.587
03/01/2014  12:39:00       34.088       66.185      -26.581       35.411       32.075       25.008     1253.970     1028.786      625.395        0.458        0.145       74.448       17.810        0.057      337.662        9.786      851.579
03/01/2014  12:40:00       13.613       59.141       10.891       31.315       32.409       30.142      980.610     1050.368      908.569        0.337        0.147       60.688       22.646        0.139      337.874       10.142      851.578
03/01/2014  12:41:00      -12.413       48.554       -5.424       62.639       62.186       29.002     3923.649     3867.090      841.139        0.558        0.432       50.116       28.676        0.327      337.890       10.170      851.581
03/01/2014  12:42:00        7.857      135.576       -9.270       48.946       75.478       36.234     2395.753     5696.914     1312.936        1.397        0.470      135.804       39.789        0.086      337.845       10.094      851.589
03/01/2014  12:43:00       11.813       96.472       -3.621       30.949       51.358       28.593      957.850     2637.597      817.537        0.694        0.221       97.193       34.187        0.124      337.900       10.187      851.610
03/01/2014  12:44:00        3.332       79.536       -3.733       18.939       28.102       21.652      358.699      789.708      468.810        0.398        0.081       79.606       18.594        0.055      337.899       10.185      851.625
03/01/2014  12:45:00        6.594       53.821        6.146       26.513       52.244       25.543      702.940     2729.429      652.438        0.353        0.204       54.223       24.641        0.207      337.989       10.336      851.631
03/01/2014  12:46:00      -57.418      -47.554       -5.690       93.610       53.160       30.984     8762.844     2825.996      960.035        0.907        0.627       74.553       23.842        0.102      337.947       10.266      851.660
03/01/2014  12:47:00     -142.157     -237.052      -10.741      128.057      132.229       60.680    16398.707    17484.584     3682.074        5.704        1.878      276.410       67.521        0.060      337.600        9.681      851.687
03/01/2014  12:48:00       12.373     -247.378      -10.776      151.046      126.181       73.509    22814.760    15921.723     5403.512        5.280        2.207      247.687       57.154        0.053      337.356        9.272      851.751
03/01/2014  12:49:00      115.043     -104.937        1.157       60.904       85.116       43.862     3709.244     7244.761     1923.917        1.856        0.644      155.713       46.208        0.088      337.331        9.231      851.730
03/01/2014  12:50:00       -8.380      -86.336        9.057       64.133       72.098       39.632     4113.052     5198.095     1570.668        0.924        0.544       86.742       31.599        0.133      337.402        9.352      851.710
03/01/2014  12:51:00     -133.300     -192.848      -10.491       83.644       82.860       41.397     6996.305     6865.831     1713.732        3.532        0.779      234.434       40.373        0.030      337.158        8.941      851.748
03/01/2014  12:52:00     -114.043     -132.890      -10.729       88.977       87.913       44.025     7916.865     7728.727     1938.187        2.418        0.879      175.116       38.498        0.048      337.163        8.948      851.727
03/01/2014  12:53:00      -97.755      -37.840        2.241       48.747       55.284       31.262     2376.264     3056.370      977.289        0.870        0.320      104.824       30.598        0.085      337.360        9.282      851.722
03/01/2014  12:54:00      -45.097       -6.675        3.351       32.545       34.447       24.380     1059.167     1186.628      594.394        0.246        0.142       45.588       25.510        0.313      337.383        9.320      851.703
03/01/2014  12:55:00      -57.204      -39.250       -0.676       39.711       29.948       17.477     1576.998      896.881      305.459        0.380        0.139       69.375       14.808        0.046      337.259        9.114      851.701
03/01/2014  12:56:00      -46.481      -64.081      -21.353       39.363       42.721       28.305     1549.482     1825.087      801.190        0.545        0.209       79.163       18.462        0.054      337.285        9.157      851.682
03/01/2014  12:57:00      -59.808      -23.593        6.637       50.847       53.495       24.710     2585.428     2861.737      610.576        0.512        0.303       64.293        8.840        0.019      337.327        9.227      851.675
03/01/2014  12:58:00      -57.232      -60.350       -0.370       40.022       40.163       24.660     1601.784     1613.070      608.110        0.537        0.191       83.173       14.489        0.030      337.162        8.950      851.663
03/01/2014  12:59:00      -28.221      -44.718        4.833       55.047       54.314       32.012     3030.129     2949.994     1024.753        0.491        0.350       52.879       24.524        0.215      337.248        9.095      851.649
03/01/2014  13:00:00       -5.216       32.373       51.959       43.515       39.558       29.042     1893.543     1564.827      843.416        0.404        0.215       32.790       25.005        0.582      337.392        9.334      851.643
03/01/2014  13:01:00      -80.502      -42.672       16.110       51.364       48.599       27.373     2638.219     2361.901      749.280        0.715        0.287       91.113       28.432        0.097      337.273        9.136      851.654
03/01/2014  13:02:00      -73.151     -117.059        2.744       84.336       90.724       50.130     7112.523     8230.791     2513.028        1.846        0.893      138.036       48.346        0.123      337.103        8.848      851.653
03/01/2014  13:03:00      -31.899        5.044      -21.094       44.155       51.437       20.423     1949.686     2645.814      417.114        0.325        0.251       32.295       20.459        0.401      336.878        8.476      851.620
03/01/2014  13:04:00        7.617       45.469       15.033       23.074       35.226       26.144      532.427     1240.885      683.508        0.240        0.123       46.103       23.504        0.260      337.217        9.043      851.538
03/01/2014  13:05:00        8.407       61.734        1.427       28.455       54.569       28.453      809.713     2977.791      809.597        0.424        0.230       62.304       29.928        0.231      337.203        9.018      851.508
03/01/2014  13:06:00       82.657       73.811       21.802       35.887       30.414       32.879     1287.909      925.010     1081.059        0.802        0.165      110.816       10.119        0.008      337.200        9.013      851.491
03/01/2014  13:07:00      106.231       88.945       22.979       71.397       46.867       42.710     5097.594     2196.534     1824.139        1.442        0.456      138.550       26.124        0.036      337.308        9.194      851.462
03/01/2014  13:08:00       54.274       54.959       51.142       68.951       54.154       51.183     4754.267     2932.709     2619.662        0.944        0.515       77.241       39.124        0.257      337.567        9.630      851.458
03/01/2014  13:09:00       98.249       76.194        8.879       67.665       57.830       44.515     4578.517     3344.346     1981.620        1.272        0.495      124.332       26.615        0.046      337.567        9.627      851.436
03/01/2014  13:10:00       74.951       87.858       70.523       69.517       45.538       48.296     4832.582     2073.693     2332.518        1.377        0.462      115.485       45.476        0.155      337.764        9.959      851.433
03/01/2014  13:11:00       88.441       39.038       55.490       54.377       46.992       34.875     2956.836     2208.242     1216.295        0.940        0.319       96.673       35.583        0.135      337.672        9.805      851.442
03/01/2014  13:12:00       95.005       71.093       44.867       65.611       61.230       46.235     4304.852     3749.102     2137.631        1.314        0.510      118.660       32.174        0.074      337.646        9.761      851.436
03/01/2014  13:13:00      -18.944       14.574       21.181       53.686       67.124       45.051     2882.240     4505.676     2029.549        0.522        0.471       23.901       43.635        3.333      337.784        9.993      851.427
03/01/2014  13:14:00        5.523       29.051       49.034       27.495       32.884       40.151      755.992     1081.325     1612.113        0.336        0.172       29.572       29.591        1.001      338.114       10.545      851.417
03/01/2014  13:15:00       16.865       58.080       78.178       38.053       38.154       36.110     1448.008     1455.713     1303.968        0.699        0.210       60.479       28.917        0.229      337.830       10.070      851.411
03/01/2014  13:16:00        8.984       11.444       32.728       24.211       63.324       23.909      586.150     4009.964      571.628        0.322        0.258       14.549       17.167        1.392      337.945       10.262      851.413
03/01/2014  13:17:00       -5.637       29.392       22.788       38.056       22.031       31.853     1448.255      485.375     1014.610        0.218        0.147       29.928       30.598        1.045      337.958       10.283      851.415
03/01/2014  13:18:00      -25.720        0.628       15.485       68.812       28.365       24.376     4735.062      804.558      594.188        0.352        0.307       25.727       25.799        1.006      338.093       10.511      851.417
03/01/2014  13:19:00      -88.616      -15.843       -7.631       42.254       28.011       26.444     1785.398      784.595      699.290        0.572        0.163       90.021       25.043        0.077      337.863       10.124      851.417
03/01/2014  13:20:00      -77.471      -23.172       -2.419       41.908       29.054       22.869     1756.253      844.153      522.999        0.483        0.156       80.862       25.069        0.096      337.909       10.202      851.404
03/01/2014  13:21:00      -10.297       -8.552       18.162       26.937       27.667       20.331      725.595      765.446      413.353        0.121        0.095       13.385       17.330        1.676      338.070       10.472      851.384
03/01/2014  13:22:00      -21.557       20.743       20.344       40.424       37.735       29.041     1634.136     1423.952      843.390        0.260        0.195       29.916       25.264        0.713      338.220       10.723      851.366
03/01/2014  13:23:00      -38.728      113.555       -9.098       47.334       51.673       29.500     2240.545     2670.073      870.270        1.013        0.289      119.978       28.880        0.058      338.042       10.425      851.341
03/01/2014  13:24:00      -60.820       85.786       -5.374       38.241       55.139       37.880     1462.389     3040.319     1434.919        0.851        0.297      105.159       20.213        0.037      338.147       10.600      851.307
03/01/2014  13:25:00      -95.577       80.296       -6.367       46.813       52.093       27.433     2191.434     2713.719      752.591        1.064        0.283      124.830       14.080        0.013      338.117       10.550      851.278
03/01/2014  13:26:00      -43.297      225.087      -28.401       42.845       97.187       31.232     1835.689     9445.367      975.411        3.280        0.613      229.213       42.692        0.035      337.763        9.952      851.255
03/01/2014  13:27:00      -77.923      193.419      -18.469       36.895       50.340       34.693     1361.256     2534.112     1203.573        2.446        0.255      208.526       30.525        0.021      337.864       10.124      851.236
03/01/2014  13:28:00      -98.871      169.251      -19.552       65.608       69.520       43.444     4304.445     4833.043     1887.421        2.491        0.551      196.014       43.606        0.049      337.842       10.086      851.224
03/01/2014  13:29:00      -75.398      139.113      -11.392       45.381       53.240       37.015     2059.448     2834.499     1370.132        1.571        0.313      158.232       39.845        0.063      338.056       10.448      851.207
03/01/2014  13:30:00      -88.221      117.840      -23.911       45.176       57.022       26.962     2040.837     3251.526      726.964        1.413        0.301      147.205       16.438        0.012      337.934       10.244      851.195
03/01/2014  13:31:00      -81.841       52.198      -14.280       66.865       61.390       39.133     4470.910     3768.786     1531.389        0.970        0.489       97.069       45.093        0.216      338.143       10.593      851.187
03/01/2014  13:32:00     -128.139      139.109      -26.231       55.697       68.000       41.574     3102.171     4623.932     1728.388        2.296        0.473      189.132       32.988        0.030      337.924       10.224      851.192
03/01/2014  13:33:00     -102.003       -1.166       -8.321       86.121       55.139       41.152     7416.822     3040.333     1693.468        1.131        0.608      102.009       39.314        0.149      337.955       10.279      851.180
03/01/2014  13:34:00     -111.420      128.025      -22.605       56.055       84.591       44.270     3142.211     7155.646     1959.798        2.078        0.613      169.720       39.712        0.055      337.877       10.146      851.193
03/01/2014  13:35:00     -115.507      224.996      -28.966       52.308       75.529       46.556     2736.123     5704.607     2167.488        3.770        0.530      252.913       39.205        0.024      337.846       10.092      851.186
03/01/2014  13:36:00     -152.943       71.672      -21.149       60.419       53.157       34.140     3650.457     2825.714     1165.507        1.831        0.382      168.904       30.623        0.033      337.930       10.237      851.198
03/01/2014  13:37:00     -131.779      -60.444        7.833      116.871       86.779       52.248    13658.889     7530.614     2729.867        2.250        1.196      144.980       50.076        0.119      337.958       10.282      851.192
03/01/2014  13:38:00     -170.289      -47.533       -1.545      102.675       67.637       42.624    10542.109     4574.733     1816.822        2.409        0.847      176.798       50.307        0.081      337.953       10.273      851.204
03/01/2014  13:39:00     -236.616      -75.714        0.728       77.579       73.265       39.324     6018.468     5367.717     1546.376        3.732        0.647      248.435       42.656        0.029      337.808       10.030      851.213
03/01/2014  13:40:00     -216.596      -29.632      -11.740       84.541       84.248       43.004     7147.173     7097.800     1849.377        3.201        0.805      218.614       39.721        0.033      337.861       10.118      851.206
03/01/2014  13:41:00     -153.226      -63.184       -4.699       71.445       73.154       37.694     5104.350     5351.438     1420.865        1.968        0.594      165.742       31.443        0.036      337.892       10.171      851.206
03/01/2014  13:42:00     -115.966      -21.725      -19.480       35.891       47.268       26.951     1288.169     2234.217      726.369        0.927        0.212      117.983       19.738        0.028      337.845       10.095      851.199
03/01/2014  13:43:00     -156.068      -95.938        7.333      112.581       78.740       45.398    12674.438     6199.937     2060.974        2.727        1.047      183.197       58.789        0.103      338.006       10.361      851.179
03/01/2014  13:44:00     -167.288       13.109      -17.297       52.251       70.207       44.397     2730.145     4929.023     1971.102        1.904        0.482      167.801       30.014        0.032      337.879       10.150      851.177
03/01/2014  13:45:00     -240.852      -79.224       -8.753      122.360       73.932       50.414    14972.031     5465.968     2541.566        4.367        1.149      253.547       51.887        0.042      338.000       10.351      851.185
03/01/2014  13:46:00     -328.429      -42.079      -14.718      153.280       95.295       67.921    23494.708     9081.175     4613.199        7.351        1.859      331.114       70.708        0.046      337.798       10.013      851.190
03/01/2014  13:47:00     -469.013      -57.934       -7.931      153.829      147.268       67.604    23663.496    21687.722     4570.266       13.665        2.496      472.578       77.644        0.027      337.449        9.428      851.173
03/01/2014  13:48:00     -385.794      -85.645        0.532      173.399      120.268       65.393    30067.286    14464.511     4276.270       10.248        2.440      395.186       76.491        0.037      337.363        9.283      851.180
03/01/2014  13:49:00     -358.657      -81.403        4.346      140.514      120.060       65.218    19744.050    14414.505     4253.403        8.684        1.921      367.779       74.309        0.041      337.406        9.353      851.189
03/01/2014  13:50:00     -269.335      -21.967      -10.073      159.258       87.308       57.418    25363.244     7622.723     3296.827        5.470        1.814      270.229       64.034        0.056      337.513        9.535      851.198
03/01/2014  13:51:00     -212.760     -102.010       -9.277      106.264      103.460       53.967    11292.033    10704.012     2912.482        4.033        1.245      235.951       60.422        0.066      337.570        9.630      851.222
03/01/2014  13:52:00     -197.985      -52.901       -7.427       95.004      110.433       57.058     9025.746    12195.357     3255.596        3.326        1.224      204.930       50.795        0.061      337.557        9.609      851.233
03/01/2014  13:53:00     -268.305      -17.027       -3.051      164.475       94.730       62.352    27052.025     8973.770     3887.828        5.609        1.996      268.844       75.251        0.078      337.578        9.643      851.237
03/01/2014  13:54:00     -120.627       67.895        2.516      116.813      114.936       63.131    13645.172    13210.231     3985.560        2.500        1.542      138.422       62.895        0.206      337.548        9.595      851.254
03/01/2014  13:55:00     -331.397     -141.626      -14.885      192.082      137.160       66.875    36895.494    18812.767     4472.312        9.513        3.009      360.391       80.776        0.050      337.482        9.483      851.282
03/01/2014  13:56:00     -173.556      -84.770       -4.382       97.527       93.368       46.740     9511.494     8717.570     2184.673        2.887        1.021      193.152       45.649        0.056      337.500        9.513      851.309
03/01/2014  13:57:00     -109.755       27.778        8.812       73.226       74.120       35.302     5362.043     5493.830     1246.260        1.250        0.605      113.216       36.621        0.105      337.536        9.576      851.314
03/01/2014  13:58:00     -105.231      126.727      -25.661       47.273       46.744       29.930     2234.751     2185.047      895.799        1.655        0.266      164.722       28.141        0.029      337.403        9.352      851.313
03/01/2014  13:59:00      -36.927      115.628        2.474       43.195       63.433       37.163     1865.796     4023.687     1381.119        1.100        0.364      121.381       33.252        0.075      337.515        9.541      851.313
03/01/2014  14:00:00      -34.799       35.702        1.641       41.574       50.128       37.233     1728.418     2512.770     1386.296        0.406        0.281       49.856       28.361        0.324      337.671        9.802      851.308
03/01/2014  14:01:00      -52.417       46.711        3.474       43.118       42.902       29.777     1859.153     1840.609      886.662        0.476        0.229       70.210       29.604        0.178      337.560        9.616      851.299
03/01/2014  14:02:00      -22.519       21.254       -4.829       18.023       26.795       18.062      324.831      717.946      326.233        0.118        0.068       30.965        6.868        0.049      337.663        9.788      851.300
03/01/2014  14:03:00       28.131      -26.096        1.962       22.082       30.211       19.163      487.604      912.712      367.224        0.162        0.088       38.371        8.335        0.047      337.640        9.748      851.298
03/01/2014  14:04:00      -28.409      -54.384       -6.047       31.157       31.246       22.197      970.780      976.324      492.723        0.312        0.122       61.357       14.814        0.058      337.566        9.627      851.301
03/01/2014  14:05:00      -50.992      -56.020       -7.002       29.465       35.190       14.470      868.211     1238.328      209.375        0.405        0.116       75.752        6.655        0.008      337.545        9.591      851.298
03/01/2014  14:06:00      -14.130      -44.425        5.242       55.475       41.012       25.238     3077.505     1681.980      636.954        0.380        0.270       46.618       24.848        0.284      337.726        9.896      851.281
03/01/2014  14:07:00      -94.369      -83.031        4.453       69.829       38.895       28.045     4876.028     1512.835      786.524        1.150        0.359      125.696       20.260        0.026      337.598        9.679      851.263
03/01/2014  14:08:00     -102.298      -74.626       -4.500       50.965       43.665       26.488     2597.384     1906.633      701.588        1.063        0.260      126.625       18.536        0.021      337.427        9.394      851.246
03/01/2014  14:09:00      -84.721      -80.725       -2.392       75.525       67.474       39.601     5704.009     4552.757     1568.207        1.276        0.591      117.023       41.632        0.127      337.424        9.388      851.217
03/01/2014  14:10:00      -19.240       40.137       -9.078       60.870       59.020       39.737     3705.159     3483.352     1579.013        0.541        0.438       44.510       37.406        0.706      337.308        9.196      851.196
03/01/2014  14:11:00       13.847       25.044       10.013       34.847       27.956       16.821     1214.325      781.527      282.936        0.160        0.114       28.617       12.669        0.196      337.423        9.388      851.166
03/01/2014  14:12:00     -123.932      -29.392      -12.001       32.769       33.977       16.821     1073.803     1154.464      282.950        0.944        0.126      127.369        7.035        0.003      337.365        9.291      851.168
03/01/2014  14:13:00     -106.531        2.082       -9.504       46.268       27.387       17.579     2140.769      750.065      309.035        0.732        0.160      106.551       21.858        0.042      337.419        9.379      851.167
03/01/2014  14:14:00     -102.847      -15.934      -11.056       59.058       32.117       21.246     3487.860     1031.503      451.407        0.796        0.249      104.074       19.272        0.034      337.384        9.320      851.162
03/01/2014  14:15:00      -82.368       41.586      -12.963       35.350       31.970       21.026     1249.628     1022.094      442.077        0.570        0.136       92.270        9.075        0.010      337.444        9.422      851.161
03/01/2014  14:16:00      -48.204        7.956        2.444       33.693       25.310       24.085     1135.191      640.600      580.082        0.237        0.118       48.857       20.035        0.168      337.523        9.553      851.169
03/01/2014  14:17:00     -101.013      -44.918       -0.288       46.122       42.325       23.563     2127.278     1791.398      555.227        0.835        0.224      110.550       19.897        0.032      337.446        9.425      851.181
03/01/2014  14:18:00      -28.618      -39.025        7.886       51.325       33.585       28.193     2634.268     1127.983      794.873        0.348        0.228       48.394       28.195        0.339      337.577        9.645      851.197
03/01/2014  14:19:00     -107.986      -46.449      -12.244       69.756       45.370       24.855     4865.956     2058.430      617.795        1.075        0.377      117.552       29.871        0.065      337.490        9.499      851.209
03/01/2014  14:20:00     -146.043       46.575      -16.892       48.509       42.260       24.703     2353.136     1785.865      610.219        1.427        0.237      153.290       13.042        0.007      337.501        9.516      851.215
03/01/2014  14:21:00      -58.763        3.181        4.214       35.022       69.986       20.321     1226.520     4898.096      412.923        0.501        0.327       58.849       16.761        0.081      337.592        9.669      851.229
03/01/2014  14:22:00      -83.462      -49.537        4.379       95.016       46.520       33.192     9028.071     2164.080     1101.677        1.086        0.615       97.056       34.039        0.123      337.699        9.849      851.246
03/01/2014  14:23:00     -206.466       -3.005      -12.524       71.868       58.815       34.184     5164.951     3459.193     1168.560        2.629        0.490      206.488       27.890        0.018      337.653        9.770      851.293
03/01/2014  14:24:00     -275.411      -42.247       -2.777      123.015       94.092       54.226    15132.624     8853.274     2940.428        5.228        1.346      278.632       61.122        0.048      337.629        9.729      851.339
03/01/2014  14:25:00     -310.057      -64.068       -2.681      192.424      125.766       66.299    37027.037    15817.181     4395.564        7.873        2.862      316.607       73.085        0.053      337.519        9.546      851.371
03/01/2014  14:26:00     -241.563     -112.809        2.224      172.571      131.514       76.097    29780.801    17295.949     5790.765        6.197        2.643      266.606       88.555        0.110      337.354        9.269      851.376
03/01/2014  14:27:00     -377.504      -54.402      -11.099      156.847      109.835       79.118    24600.884    12063.786     6259.731        9.425        2.146      381.403       73.783        0.037      337.266        9.121      851.370
03/01/2014  14:28:00     -406.621       -0.182      -22.861      140.502      145.018       73.501    19740.716    21030.361     5402.403       10.601        2.309      406.621       64.412        0.025      337.169        8.959      851.390
03/01/2014  14:29:00     -342.492     -136.991      -18.644      148.572      113.890       75.443    22073.557    12970.874     5691.629        8.857        2.037      368.873       74.468        0.041      337.187        8.990      851.392
03/01/2014  14:30:00     -334.533      -93.609      -14.306      157.925      109.599       63.208    24940.291    12012.042     3995.305        8.091        2.047      347.383       66.293        0.036      337.203        9.016      851.398
03/01/2014  14:31:00     -620.834      -87.178      -43.986      175.742      146.246       79.680    30885.229    21387.992     6348.863       22.679        2.931      626.925       76.634        0.015      337.086        8.818      851.400
03/01/2014  14:32:00     -477.878      -33.437      -48.313      139.467      166.152       57.794    19451.152    27606.549     3340.111       14.110        2.520      479.047       54.977        0.013      337.127        8.888      851.415
03/01/2014  14:33:00     -424.279      -49.363      -23.394      188.649      173.299       89.164    35588.507    30032.654     7950.146       12.827        3.679      427.141      103.283        0.058      337.130        8.895      851.421
03/01/2014  14:34:00     -305.274      -42.633      -24.318      163.744      127.886       69.857    26812.193    16354.873     4880.047        7.182        2.402      308.236       63.595        0.043      337.160        8.946      851.427
03/01/2014  14:35:00     -327.009     -106.495       -7.850      129.598      118.296       59.521    16795.615    13993.858     3542.794        7.633        1.717      343.913       63.962        0.035      337.162        8.948      851.436
03/01/2014  14:36:00     -277.098      -93.344      -11.123       97.987       86.481       45.802     9601.485     7478.887     2097.821        5.240        0.959      292.398       37.623        0.017      337.201        9.014      851.457
03/01/2014  14:37:00     -231.116      -17.320      -21.322      109.950      122.113       52.315    12089.071    14911.652     2736.825        4.195        1.487      231.764       29.817        0.017      337.235        9.070      851.465
03/01/2014  14:38:00     -252.272      -72.102      -33.269      106.331       77.679       54.455    11306.328     6034.041     2965.345        4.512        1.015      262.374       33.737        0.017      337.274        9.134      851.464
03/01/2014  14:39:00     -106.544        4.461       -6.409       94.571      134.744       57.111     8943.651    18155.879     3261.675        2.088        1.518      106.638       46.023        0.186      337.316        9.207      851.472
03/01/2014  14:40:00     -113.296      -40.534       -0.873      102.605       80.048       54.238    10527.720     6407.694     2941.799        1.718        0.994      120.329       59.581        0.245      337.358        9.277      851.467
03/01/2014  14:41:00     -205.874      -26.464      -29.297       85.541       99.900       56.370     7317.246     9980.094     3177.560        3.221        1.024      207.568       46.742        0.051      337.341        9.248      851.479
03/01/2014  14:42:00      -87.945       39.740      -36.030       74.752       97.880       50.295     5587.808     9580.443     2529.605        1.415        0.885       96.507       46.584        0.233      337.419        9.380      851.480
03/01/2014  14:43:00     -114.077        3.285      -18.119       97.686      104.829       48.659     9542.561    10989.084     2367.674        1.812        1.145      114.124       51.231        0.202      337.552        9.600      851.470
03/01/2014  14:44:00     -269.185       62.355      -37.892       79.053      108.956       56.520     6249.320    11871.397     3194.472        4.955        1.066      276.313       44.969        0.026      337.509        9.527      851.491
03/01/2014  14:45:00     -127.992      -59.364        5.213      115.933      103.430       61.403    13440.421    10697.710     3770.274        2.392        1.395      141.089       65.850        0.218      337.677        9.810      851.493
03/01/2014  14:46:00     -209.470      -37.154        0.783      116.804       68.835       52.017    13643.067     4738.323     2705.797        3.317        1.054      212.740       60.692        0.081      337.647        9.759      851.512
03/01/2014  14:47:00     -204.191      -10.315      -19.478       81.877      104.941       53.322     6703.816    11012.634     2843.221        3.137        1.028      204.451       40.424        0.039      337.664        9.787      851.545
03/01/2014  14:48:00     -283.216     -106.039      -29.888      116.357       80.640       56.968    13538.862     6502.821     3245.399        5.781        1.164      302.416       40.223        0.018      337.614        9.704      851.561
03/01/2014  14:49:00     -352.622      -35.939      -30.239       90.809      111.113       49.466     8246.281    12346.170     2446.917        7.479        1.152      354.449       46.265        0.017      337.485        9.488      851.588
03/01/2014  14:50:00     -276.792      -27.879      -24.283      139.056       80.099       56.753    19336.523     6415.821     3220.857        5.347        1.449      278.193       70.668        0.065      337.485        9.487      851.594
03/01/2014  14:51:00     -224.426      -24.033      -26.846       94.873      101.332       52.419     9000.903    10268.202     2747.718        3.684        1.101      225.709       43.324        0.037      337.552        9.600      851.598
03/01/2014  14:52:00     -272.342     -102.517      -28.234      128.610       89.968       50.311    16540.648     8094.220     2531.193        5.632        1.358      290.998       31.446        0.012      337.573        9.636      851.602
03/01/2014  14:53:00     -229.338     -124.513      -13.200      143.085       75.765       63.138    20473.307     5740.277     3986.403        4.923        1.510      260.959       72.924        0.078      337.601        9.681      851.600
03/01/2014  14:54:00     -340.053     -118.520      -10.373       90.510       77.130       56.958     8192.101     5948.991     3244.171        7.358        0.869      360.115       38.184        0.011      337.488        9.490      851.607
03/01/2014  14:55:00     -144.354       -9.710      -11.276       95.576      109.558       45.067     9134.682    12002.861     2031.078        2.211        1.158      144.680       50.050        0.120      337.568        9.627      851.613
03/01/2014  14:56:00     -125.844       -3.357      -14.608       59.643       85.842       33.055     3557.267     7368.773     1092.600        1.404        0.601      125.889       27.421        0.047      337.633        9.737      851.612
03/01/2014  14:57:00     -119.760      -10.016       -5.976       82.890       90.131       45.275     6870.806     8123.606     2049.797        1.576        0.852      120.178       34.573        0.083      337.738        9.913      851.623
03/01/2014  14:58:00     -105.919      -10.541       -3.005       59.207       54.100       34.551     3505.467     2926.802     1193.773        0.948        0.381      106.442       17.632        0.027      337.766        9.962      851.635
03/01/2014  14:59:00     -148.520       19.719      -24.662       58.732       83.038       35.554     3449.403     6895.329     1264.097        1.733        0.580      149.823       15.229        0.010      337.747        9.931      851.635
03/01/2014  15:00:00     -179.546       28.642      -21.847       90.309      112.199       48.065     8155.735    12588.719     2310.218        2.829        1.153      181.816       48.610        0.071      337.753        9.937      851.656
03/01/2014  15:01:00     -123.788       80.594       -0.645       92.415       86.804       49.079     8540.540     7535.016     2408.731        2.015        0.924      147.712       46.126        0.098      337.748        9.928      851.664
03/01/2014  15:02:00      -86.271      120.614      -15.501       47.017       68.215       41.287     2210.613     4653.323     1704.623        1.540        0.428      148.291       32.017        0.047      337.699        9.849      851.666
03/01/2014  15:03:00     -150.076       79.441      -38.958       56.672       60.605       38.056     3211.748     3672.918     1448.235        1.934        0.417      169.805       24.988        0.022      337.686        9.826      851.679
03/01/2014  15:04:00     -315.560       -7.978      -31.824       76.236      106.078       43.031     5811.942    11252.507     1851.684        5.978        0.946      315.660       28.498        0.008      337.585        9.656      851.700
03/01/2014  15:05:00     -242.776     -100.550      -10.213       92.646       59.369       31.416     8583.214     3524.723      986.937        4.112        0.655      262.775       22.874        0.008      337.567        9.625      851.696
03/01/2014  15:06:00       23.047       -0.262       36.240       39.421       36.859       37.970     1553.986     1358.576     1441.707        0.310        0.218       23.048       26.675        1.340      337.890       10.171      851.670
03/01/2014  15:07:00     -174.477       39.199      -27.593       79.124       74.351       40.834     6260.657     5528.134     1667.437        2.310        0.673      178.826       43.257        0.059      337.675        9.808      851.688
03/01/2014  15:08:00     -114.912       97.154      -13.870       80.706       97.671       46.434     6513.413     9539.669     2156.077        2.052        0.910      150.478       44.623        0.088      337.633        9.737      851.655
03/01/2014  15:09:00      -69.838       90.026       -4.485       63.767       83.458       31.143     4066.182     6965.260      969.870        1.250        0.600      113.939       26.187        0.053      337.728        9.898      851.646
03/01/2014  15:10:00     -107.715      104.137       -9.072       72.452       57.798       42.979     5249.292     3340.635     1847.190        1.648        0.522      149.823       30.115        0.040      337.677        9.811      851.629
03/01/2014  15:11:00      -82.864       92.356      -11.026       78.300       52.798       38.395     6130.965     2787.635     1474.170        1.295        0.520      124.081       33.063        0.071      337.689        9.832      851.626
03/01/2014  15:12:00      -84.296      163.861      -16.365       64.515       87.054       40.860     4162.140     7578.316     1669.559        2.381        0.671      184.272       34.443        0.035      337.674        9.807      851.625
03/01/2014  15:13:00      -31.706       78.341        0.887       53.402       75.581       33.100     2851.763     5712.485     1095.594        0.840        0.483       84.514       40.829        0.233      337.945       10.262      851.627
03/01/2014  15:14:00      -80.166      167.679      -20.124       70.199       68.594       38.682     4927.885     4705.205     1496.328        2.304        0.556      185.857       42.459        0.052      337.729        9.899      851.629
03/01/2014  15:15:00        9.692      178.550      -14.642       72.155      128.593       45.587     5206.272    16536.285     2078.215        2.800        1.191      178.813       64.552        0.130      337.767        9.961      851.623
03/01/2014  15:16:00      -10.966      149.359      -12.517       46.253       69.934       40.427     2139.350     4890.818     1634.379        1.562        0.433      149.761       43.786        0.085      337.846       10.096      851.619
03/01/2014  15:17:00        8.450      185.417      -26.642       40.217       51.059       35.091     1617.381     2607.017     1231.387        2.031        0.273      185.609       30.350        0.027      337.728        9.897      851.590
03/01/2014  15:18:00      -19.890      157.191      -13.818       64.226       76.960       35.030     4125.006     5922.899     1227.090        1.828        0.564      158.445       38.803        0.060      337.866       10.128      851.574
03/01/2014  15:19:00      -25.137      119.909       -8.217       33.708       75.178       31.747     1136.252     5651.805     1007.847        1.144        0.390      122.516       42.571        0.121      337.923       10.224      851.554
03/01/2014  15:20:00      -30.519       86.635       -5.865       64.204       79.541       43.313     4122.198     6326.703     1875.983        1.040        0.616       91.853       34.788        0.143      337.917       10.215      851.539
03/01/2014  15:21:00      -58.073      201.492      -19.786       58.397       97.260       38.555     3410.168     9459.578     1486.526        2.936        0.718      209.694       47.609        0.052      337.887       10.162      851.518
03/01/2014  15:22:00      -48.998      285.618      -33.493       37.001       44.126       26.319     1369.104     1947.111      692.705        4.455        0.200      289.790       22.291        0.006      337.622        9.715      851.508
03/01/2014  15:23:00      -20.422      186.006      -20.357       47.069       83.146       34.543     2215.454     6913.322     1193.248        2.287        0.516      187.124       39.121        0.044      337.814       10.041      851.498
03/01/2014  15:24:00      -42.018      165.573      -17.036       45.620       77.568       37.522     2081.210     6016.750     1407.899        1.949        0.475      170.822       30.207        0.031      337.889       10.167      851.481
03/01/2014  15:25:00      -27.467      194.529      -24.724       54.092       97.721       30.434     2925.940     9549.368      926.251        2.630        0.670      196.459       38.812        0.039      337.807       10.028      851.463
03/01/2014  15:26:00     -110.457       85.855       -8.552       59.410       43.752       34.095     3529.566     1914.235     1162.501        1.312        0.330      139.899       30.149        0.046      337.932       10.240      851.437
03/01/2014  15:27:00     -136.359       12.048       -5.660       78.187       66.856       46.464     6113.211     4469.749     2158.945        1.575        0.637      136.890       43.582        0.101      338.036       10.414      851.418
03/01/2014  15:28:00     -108.534      166.989      -32.395       48.514       78.184       35.582     2353.629     6112.691     1266.088        2.522        0.487      199.161       23.975        0.014      337.949       10.266      851.429
03/01/2014  15:29:00     -145.482      117.030      -27.001       69.658       62.304       34.118     4852.234     3881.837     1164.025        2.274        0.495      186.711       31.279        0.028      337.740        9.915      851.426
03/01/2014  15:30:00      -47.305       98.759      -26.065       31.510       58.975       25.034      992.879     3478.064      626.710        0.888        0.255      109.504       13.993        0.016      337.797       10.013      851.412
03/01/2014  15:31:00     -107.266      119.668       -4.082       70.443       71.413       49.440     4962.252     5099.810     2444.338        1.917        0.625      160.706       50.583        0.099      338.227       10.733      851.408
03/01/2014  15:32:00     -115.702      103.368      -12.831       74.637       51.236       39.964     5570.735     2625.178     1597.091        1.701        0.490      155.152       41.159        0.070      338.045       10.429      851.410
03/01/2014  15:33:00     -108.762      129.714      -15.108       78.658       87.997       45.868     6187.124     7743.495     2103.893        2.246        0.802      169.278       50.050        0.087      337.965       10.295      851.395
03/01/2014  15:34:00     -189.252      156.067      -57.320       72.591       90.633       37.983     5269.516     8214.346     1442.688        3.919        0.746      245.303       46.726        0.036      337.794       10.008      851.386
03/01/2014  15:35:00     -105.913       78.213      -16.566       56.242       50.306       43.086     3163.195     2530.692     1856.394        1.258        0.378      131.662       26.126        0.039      338.133       10.576      851.364
03/01/2014  15:36:00      -24.835       65.784       -0.607       55.573       56.815       45.264     3088.363     3227.893     2048.826        0.665        0.418       70.315       45.735        0.423      338.047       10.433      851.367
03/01/2014  15:37:00      -31.815      100.191        8.661       29.641       44.048       38.263      878.608     1940.240     1464.031        0.770        0.214      105.121       31.022        0.087      338.162       10.626      851.372
03/01/2014  15:38:00      -82.474       67.489      -14.729       50.091       90.574       34.328     2509.122     8203.649     1178.427        1.173        0.595      106.568       33.261        0.097      338.164       10.629      851.384
03/01/2014  15:39:00      -74.618      127.440      -15.488       46.715       81.884       39.763     2182.276     6705.054     1581.062        1.626        0.523      147.679       31.233        0.045      337.901       10.186      851.401
03/01/2014  15:40:00        6.891      138.707      -13.403       41.288       79.771       36.614     1704.685     6363.364     1340.587        1.444        0.470      138.879       43.987        0.100      337.926       10.230      851.403
03/01/2014  15:41:00      -66.236       73.285        1.686       81.325       69.190       50.519     6613.769     4787.286     2552.210        1.185        0.698       98.782       55.190        0.312      338.302       10.860      851.377
03/01/2014  15:42:00      -39.356      161.005      -20.169       63.407      104.778       34.411     4020.410    10978.506     1184.117        2.203        0.809      165.745       31.968        0.037      338.097       10.514      851.394
03/01/2014  15:43:00      -28.635      208.240      -21.804       41.149       68.968       33.110     1693.230     4756.636     1096.249        2.610        0.377      210.200       33.346        0.025      337.998       10.348      851.392
03/01/2014  15:44:00      -71.237      191.824       -8.083       47.219       79.088       42.770     2229.589     6254.946     1829.313        2.612        0.516      204.625       41.806        0.042      338.055       10.445      851.408
03/01/2014  15:45:00     -143.439      118.501      -18.924       72.978       55.794       42.914     5325.804     3112.968     1841.641        2.263        0.514      186.057       30.981        0.028      338.265       10.797      851.408
03/01/2014  15:46:00     -200.060      -11.935      -24.249       58.539       62.746       27.090     3426.771     3937.008      733.859        2.442        0.405      200.415       27.595        0.019      338.028       10.398      851.414
03/01/2014  15:47:00     -156.901      -61.569      -15.811       68.676       71.120       39.171     4716.384     5058.086     1534.389        1.998        0.565      168.549       29.830        0.031      338.115       10.547      851.418
03/01/2014  15:48:00      -88.589      -10.517      -12.117       80.858       37.986       29.806     6538.003     1442.901      888.379        0.849        0.443       89.211       32.243        0.131      338.137       10.584      851.427
03/01/2014  15:49:00     -162.075      -29.680       -9.904       84.809       56.192       30.344     7192.626     3157.588      920.770        1.926        0.564      164.770       36.846        0.050      338.055       10.446      851.417
03/01/2014  15:50:00     -173.235      -67.496       -9.211       62.933       54.741       37.226     3960.573     2996.605     1385.759        2.150        0.417      185.920       25.255        0.018      338.038       10.417      851.419
03/01/2014  15:51:00      -75.946      -60.799        4.955       65.355       39.958       37.199     4271.267     1596.661     1383.736        0.837        0.363       97.285       33.718        0.120      338.174       10.645      851.428
03/01/2014  15:52:00     -116.997       39.727      -15.366       45.490       55.258       28.835     2069.367     3053.469      831.441        1.073        0.298      123.557       24.400        0.039      338.193       10.679      851.427
03/01/2014  15:53:00      -87.996      -56.542        8.144       85.186       46.458       30.038     7256.610     2158.333      902.281        1.066        0.516      104.596       38.759        0.137      338.170       10.639      851.433
03/01/2014  15:54:00     -141.430      -35.978       -3.778       60.708       62.051       23.176     3685.505     3850.359      537.129        1.469        0.404      145.935       23.002        0.025      337.972       10.306      851.439
03/01/2014  15:55:00     -114.327       12.879       -4.534       72.890       44.765       28.188     5312.952     2003.872      794.575        1.068        0.406      115.050       36.391        0.100      338.075       10.480      851.443
03/01/2014  15:56:00     -142.619       45.820      -13.449       40.443       29.301       24.699     1635.602      858.532      610.023        1.286        0.155      149.798       14.782        0.010      338.048       10.436      851.442
03/01/2014  15:57:00      -95.622       15.244      -10.766       41.871       28.443       19.903     1753.157      809.003      396.132        0.622        0.148       96.829       22.790        0.055      337.964       10.294      851.451
03/01/2014  15:58:00      -94.394      -45.094       -9.601       33.687       29.199       21.314     1134.839      852.604      454.286        0.674        0.122      104.612       14.295        0.019      338.137       10.584      851.457
03/01/2014  15:59:00      -47.164      -20.293        5.493       38.255       25.884       20.206     1463.420      669.983      408.296        0.260        0.127       51.345       19.503        0.144      338.293       10.846      851.469
03/01/2014  16:00:00      -31.296      -23.021        3.511       23.721       21.217       17.619      562.696      450.178      310.441        0.142        0.066       38.852       12.621        0.106      338.273       10.813      851.472
03/01/2014  16:01:00     -129.478        2.586      -16.936       39.264       34.670       27.995     1541.628     1202.032      783.739        1.029        0.176      129.504       15.029        0.013      338.043       10.425      851.477
03/01/2014  16:02:00      -72.255      -30.321      -12.304       18.666       27.371       13.325      348.410      749.148      177.568        0.378        0.064       78.359        7.983        0.010      337.960       10.285      851.475
03/01/2014  16:03:00      -47.446        1.854        5.581       24.802       33.886       23.583      615.154     1148.287      556.161        0.230        0.116       47.482       21.148        0.198      338.195       10.681      851.485
03/01/2014  16:04:00      -75.282       42.932        1.939       36.457       17.151       23.596     1329.148      294.148      556.774        0.485        0.109       86.663       23.624        0.074      338.228       10.737      851.493
03/01/2014  16:05:00      -97.215       16.373      -20.158       26.228       49.449       17.473      687.887     2445.234      305.301        0.678        0.172       98.585       17.434        0.031      338.171       10.642      851.509
03/01/2014  16:06:00      -29.817       37.046       -6.104       49.869       35.277       20.789     2486.891     1244.471      432.178        0.323        0.208       47.555       21.468        0.204      338.136       10.582      851.516
03/01/2014  16:07:00      -14.869      118.096       12.002       32.022       57.313       35.335     1025.411     3284.782     1248.559        0.993        0.278      119.028       33.916        0.081      338.291       10.842      851.521
03/01/2014  16:08:00       -3.432      116.103        5.292       26.010       50.277       32.028      676.534     2527.792     1025.804        0.887        0.212      116.153       27.097        0.054      338.136       10.583      851.519
03/01/2014  16:09:00      -10.175      103.292       -6.497       22.383       29.275       21.194      501.009      857.006      449.167        0.631        0.090      103.792       17.501        0.028      338.050       10.440      851.521
03/01/2014  16:10:00      -17.823      112.066      -13.418       21.113       25.562       15.597      445.746      653.398      243.261        0.720        0.067      113.475       13.498        0.014      337.948       10.268      851.519
03/01/2014  16:11:00      -18.243       31.046      -14.503       12.186       20.028        9.934      148.489      401.106       98.675        0.108        0.032       36.009        6.686        0.034      337.986       10.329      851.530
03/01/2014  16:12:00      -34.822       -9.629        2.805       16.869       21.989       13.630      284.573      483.495      185.778        0.113        0.048       36.129        9.898        0.075      338.236       10.751      851.540
03/01/2014  16:13:00      -48.526       33.057        1.563       49.282       42.956       20.459     2428.748     1845.245      418.570        0.407        0.235       58.716       25.723        0.192      338.241       10.760      851.531
03/01/2014  16:14:00      -10.731      -43.052        0.250       38.822       54.795       24.316     1507.155     3002.505      591.251        0.353        0.255       44.369       24.506        0.305      338.209       10.705      851.532
03/01/2014  16:15:00      -85.573     -102.646       18.445       98.533       95.017       54.270     9708.691     9028.161     2945.236        1.994        1.084      133.637       37.104        0.077      338.192       10.673      851.514
03/01/2014  16:16:00     -151.288      -31.396        7.948      169.339      111.268       75.782    28675.543    12380.497     5742.904        3.536        2.340      154.511       92.159        0.356      338.172       10.641      851.521
03/01/2014  16:17:00     -286.124      -68.316      -21.685      170.973      140.568       77.830    29231.720    19759.396     6057.527        7.102        2.752      294.167       74.560        0.064      337.908       10.196      851.530
03/01/2014  16:18:00     -306.097     -109.759       -8.877      144.645      112.890       57.795    20922.135    12744.173     3340.304        7.141        1.850      325.181       62.767        0.037      337.925       10.224      851.536
03/01/2014  16:19:00     -184.653      -64.540       -7.243      103.293       95.099       43.668    10669.436     9043.746     1906.880        2.996        1.081      195.607       39.876        0.042      337.909       10.200      851.538
03/01/2014  16:20:00     -281.039       -7.771       -3.874      124.698       72.749       44.565    15549.638     5292.372     1986.055        5.094        1.141      281.146       50.956        0.033      337.866       10.126      851.539
03/01/2014  16:21:00     -262.178       27.622       -9.573      165.940      110.530       63.248    27535.967    12216.824     4000.290        5.667        2.188      263.629       75.232        0.081      337.915       10.208      851.539
03/01/2014  16:22:00     -282.585       14.554       -6.446      124.247       85.910       43.742    15437.432     7380.531     1913.364        5.242        1.237      282.959       54.840        0.038      337.911       10.201      851.535
03/01/2014  16:23:00     -297.596       16.694       -9.170      109.334       89.395       47.203    11953.945     7991.482     2228.106        5.555        1.109      298.064       51.495        0.030      337.894       10.172      851.546
03/01/2014  16:24:00     -320.312      -62.771      -10.170      136.438      109.834       52.036    18615.339    12063.521     2707.696        7.001        1.669      326.405       51.055        0.024      337.785        9.991      851.539
03/01/2014  16:25:00     -214.704      -83.701      -15.916      129.686       85.921       51.559    16818.506     7382.482     2658.344        4.010        1.343      230.443       42.991        0.035      337.785        9.991      851.525
03/01/2014  16:26:00     -170.763      -76.687        2.278       97.405       73.895       43.808     9487.815     5460.485     1919.098        2.595        0.843      187.192       39.643        0.045      337.842       10.086      851.528
03/01/2014  16:27:00     -108.285      -23.942       -4.239       60.599       37.728       29.983     3672.222     1423.407      898.987        0.915        0.300      110.900       27.092        0.060      337.815       10.043      851.529
03/01/2014  16:28:00     -160.298      -11.856        3.330      109.042      136.963       59.134    11890.120    18758.763     3496.862        2.999        1.707      160.736       59.935        0.139      337.842       10.087      851.517
03/01/2014  16:29:00     -126.757        7.427       24.148      115.669       52.104       41.834    13379.271     2714.831     1750.074        1.727        0.892      126.974       49.843        0.154      337.949       10.269      851.498
03/01/2014  16:30:00     -284.610      -79.649       -4.328      142.902      101.618       55.632    20420.957    10326.140     3094.912        6.060        1.692      295.545       66.764        0.051      337.757        9.944      851.510
03/01/2014  16:31:00     -372.821      -37.776      -12.025       97.727      108.471       49.787     9550.655    11765.991     2478.714        8.218        1.190      374.730       42.550        0.013      337.721        9.885      851.511
03/01/2014  16:32:00     -368.155      -43.687      -28.853       84.046       85.713       45.718     7063.701     7346.711     2090.175        7.739        0.825      370.738       39.796        0.012      337.716        9.875      851.506
03/01/2014  16:33:00     -328.180      -12.476      -29.490       74.956       89.485       53.277     5618.462     8007.569     2838.413        6.259        0.823      328.417       43.325        0.017      337.715        9.873      851.517
03/01/2014  16:34:00     -243.976       20.975      -20.268       98.544       55.705       41.978     9710.929     3103.080     1762.148        3.747        0.729      244.875       43.806        0.032      337.710        9.865      851.524
03/01/2014  16:35:00     -256.594      -72.566      -20.656      125.555       67.427       40.558    15764.020     4546.422     1644.938        4.674        1.098      266.657       58.395        0.048      337.667        9.793      851.520
03/01/2014  16:36:00     -158.095     -112.033       -5.488       68.699       50.725       36.756     4719.534     2572.991     1351.028        2.311        0.432      193.767       33.481        0.030      337.730        9.900      851.520
03/01/2014  16:37:00     -112.975      -96.568       -2.551       95.403       41.553       36.306     9101.702     1726.645     1318.161        1.712        0.607      148.622       45.037        0.092      337.792       10.004      851.518
03/01/2014  16:38:00      -68.847      -49.569        0.960       40.841       30.737       29.935     1667.990      944.744      896.128        0.535        0.175       84.835       29.026        0.117      337.779        9.982      851.522
03/01/2014  16:39:00     -106.436        0.033        5.567       68.970       38.739       29.739     4756.840     1500.697      884.421        0.925        0.357      106.436       32.823        0.095      337.843       10.091      851.520
03/01/2014  16:40:00     -197.114        5.542        0.044       71.407       44.423       34.413     5098.905     1973.444     1184.240        2.357        0.413      197.192       30.365        0.024      337.846       10.094      851.532
03/01/2014  16:41:00     -171.790      -49.407        2.069       80.749       71.475       40.958     6520.347     5108.632     1677.521        2.263        0.665      178.754       33.613        0.035      337.883       10.156      851.547
03/01/2014  16:42:00     -116.733      -72.628        6.359       70.402       45.900       34.671     4956.374     2106.788     1202.090        1.360        0.413      137.482       40.235        0.086      337.927       10.230      851.574
03/01/2014  16:43:00      -90.285      -50.918       -1.454       51.821       64.849       25.904     2685.367     4205.378      671.015        0.915        0.378      103.653       23.783        0.053      337.952       10.274      851.597
03/01/2014  16:44:00      -35.287      -67.784        5.013       63.366       34.741       33.682     4015.264     1206.910     1134.486        0.611        0.318       76.419       30.083        0.155      337.969       10.302      851.618
03/01/2014  16:45:00      -90.944      -46.915        7.166       51.722       48.298       23.776     2675.144     2332.714      565.282        0.805        0.279      102.332       22.383        0.048      337.987       10.334      851.634
03/01/2014  16:46:00     -106.570      -62.809       -8.720       55.019       42.018       29.761     3027.102     1765.515      885.731        1.053        0.284      123.702       29.128        0.055      337.991       10.340      851.648
03/01/2014  16:47:00      -49.577      -35.427        2.264       35.811       40.905       20.612     1282.414     1673.249      424.865        0.355        0.169       60.934       18.534        0.093      338.031       10.406      851.671
03/01/2014  16:48:00      -69.841      -75.715       12.682       68.851       42.407       32.106     4740.445     1798.338     1030.827        0.917        0.378      103.007       34.625        0.113      338.073       10.477      851.673
03/01/2014  16:49:00     -229.135      -84.937      -19.761       66.175       45.136       30.990     4379.193     2037.260      960.362        3.374        0.369      244.371       27.090        0.012      338.022       10.388      851.679
03/01/2014  16:50:00     -165.614      -69.588      -12.107       49.253       34.634       23.412     2425.820     1199.492      548.117        1.829        0.209      179.640       28.185        0.025      337.991       10.340      851.684
03/01/2014  16:51:00      -35.193      -13.917       27.147       63.114       33.659       31.211     3983.422     1132.923      974.112        0.413        0.305       37.845       37.452        0.979      338.116       10.548      851.695
03/01/2014  16:52:00     -119.216      -98.995       -9.157       50.683       43.600       28.370     2568.807     1900.924      804.862        1.468        0.264      154.960       26.073        0.028      338.056       10.449      851.694
03/01/2014  16:53:00     -226.073     -129.755      -13.124       57.218       54.224       30.136     3273.899     2940.286      908.158        3.762        0.356      260.663       25.070        0.009      338.042       10.419      851.709
03/01/2014  16:54:00      -85.668      -64.981        3.874       61.180       52.645       39.127     3742.979     2771.523     1530.935        0.981        0.402      107.525       39.870        0.137      338.071       10.473      851.708
03/01/2014  16:55:00     -181.580     -106.838      -11.653       65.466       58.610       34.276     4285.770     3435.141     1174.821        2.671        0.445      210.679       19.307        0.008      338.052       10.440      851.710
03/01/2014  16:56:00     -196.864      -95.702      -16.228       66.045       71.656       37.675     4361.905     5134.567     1419.377        2.955        0.546      218.894       33.160        0.023      337.995       10.343      851.707
03/01/2014  16:57:00     -118.422     -105.391       -4.163       72.365       59.933       31.183     5236.739     3591.987      972.374        1.747        0.490      158.528       21.768        0.019      338.028       10.401      851.716
03/01/2014  16:58:00     -132.211     -109.750       -2.257       75.111       76.319       43.262     5641.733     5824.632     1871.607        2.143        0.667      171.828       40.220        0.055      338.059       10.452      851.729
03/01/2014  16:59:00     -130.296     -111.841        3.899      112.371       79.029       51.974    12627.178     6245.619     2701.309        2.553        1.079      171.714       61.654        0.129      338.088       10.499      851.743
03/01/2014  17:00:00     -196.743      -84.501      -12.680       79.668       75.263       33.092     6347.012     5664.511     1095.093        2.956        0.655      214.122       35.157        0.027      337.999       10.350      851.776
03/01/2014  17:01:00      -77.991      -37.126        8.714       75.699       55.289       38.815     5730.403     3056.897     1506.609        0.891        0.515       86.376       43.788        0.257      338.129       10.570      851.773
03/01/2014  17:02:00     -220.330       -4.612      -26.638      208.424       57.599       45.530    43440.407     3317.662     2073.005        4.905        2.442      220.378       83.585        0.144      338.074       10.476      851.774
03/01/2014  17:03:00     -279.112     -145.411      -20.425       92.016       97.928       49.500     8467.024     9589.849     2450.228        5.998        1.025      314.719       29.508        0.009      338.024       10.391      851.777
03/01/2014  17:04:00     -160.248      -73.848       -1.527      128.705       85.962       54.428    16565.090     7389.386     2962.386        2.902        1.346      176.446       68.307        0.150      338.089       10.500      851.801
03/01/2014  17:05:00     -286.139      -44.413       -8.372      144.359       95.954       54.932    20839.490     9207.198     3017.546        5.849        1.653      289.565       65.726        0.052      338.032       10.404      851.837
03/01/2014  17:06:00     -228.173        6.629       -5.320       81.566       82.737       48.636     6653.092     6845.446     2365.470        3.400        0.793      228.270       42.266        0.034      338.043       10.421      851.853
03/01/2014  17:07:00     -272.473      -96.274        3.096       85.823       82.075       49.506     7365.597     6736.331     2450.845        5.003        0.828      288.982       44.813        0.024      337.946       10.260      851.877
03/01/2014  17:08:00     -214.390      -58.717      -17.068       55.946       57.545       31.676     3129.939     3311.451     1003.392        2.857        0.372      222.286       31.799        0.020      337.975       10.308      851.896
03/01/2014  17:09:00     -194.016     -113.753       -7.532       52.158       47.414       36.160     2720.477     2248.082     1307.548        2.846        0.314      224.905       22.041        0.010      338.027       10.397      851.906
03/01/2014  17:10:00     -209.747      -70.843       -7.207      114.979      104.294       57.829    13220.190    10877.150     3344.178        3.825        1.372      221.388       52.895        0.057      338.004       10.358      851.903
03/01/2014  17:11:00     -241.357     -124.720       -9.412      131.702      130.605       53.378    17345.364    17057.771     2849.252        5.557        1.863      271.677       61.364        0.051      337.930       10.235      851.897
03/01/2014  17:12:00     -203.646      -44.614        7.139      119.616      101.763       52.685    14307.978    10355.789     2775.685        3.547        1.372      208.476       55.172        0.070      337.952       10.271      851.915
03/01/2014  17:13:00     -262.123     -106.696        0.039      139.611      104.926       66.327    19491.371    11009.365     4399.228        5.749        1.745      283.007       69.548        0.060      337.866       10.126      851.922
03/01/2014  17:14:00     -231.061       36.312      -25.849       64.451       91.663       35.842     4153.872     8402.099     1284.619        3.461        0.692      233.897       31.189        0.018      337.891       10.167      851.947
03/01/2014  17:15:00     -100.197       49.566       -5.503       50.463       71.196       28.413     2546.490     5068.812      807.322        1.047        0.421      111.786       13.579        0.015      337.924       10.226      851.961
03/01/2014  17:16:00     -120.674        7.595        2.400      103.063       64.472       39.803    10621.954     4156.616     1584.278        1.549        0.818      120.912       38.558        0.102      337.987       10.331      851.965
03/01/2014  17:17:00     -213.085      -20.612      -17.395       75.132       61.936       38.620     5644.754     3836.075     1491.518        2.855        0.549      214.079       35.331        0.027      337.891       10.167      851.986
03/01/2014  17:18:00     -171.108      -48.990       -4.638       60.918       54.284       33.572     3711.037     2946.774     1127.079        1.974        0.389      177.983       27.537        0.024      337.901       10.186      852.009
03/01/2014  17:19:00     -292.975      -41.170      -13.854       94.762       89.861       45.522     8979.880     8075.040     2072.213        5.342        0.956      295.854       31.965        0.012      337.906       10.191      852.027
03/01/2014  17:20:00     -347.093       25.995      -40.155       96.596       94.993       49.780     9330.700     9023.594     2478.001        7.179        1.042      348.065       38.660        0.012      337.879       10.147      852.033
03/01/2014  17:21:00     -148.969      -23.454       -2.433       79.794       54.715       28.261     6367.004     2993.775      798.685        1.645        0.508      150.804       21.492        0.020      337.931       10.237      852.058
03/01/2014  17:22:00     -150.543     -113.205      -13.422      106.662       61.878       46.867    11376.691     3828.901     2196.529        2.653        0.870      188.357       44.684        0.056      337.888       10.164      852.081
03/01/2014  17:23:00     -168.979       -4.494       10.775      107.059       89.638       58.890    11461.618     8035.021     3468.025        2.582        1.148      169.039       64.116        0.144      337.884       10.157      852.100
03/01/2014  17:24:00     -265.512       27.616      -18.104      108.775       68.875       43.081    11831.940     4743.721     1855.967        4.501        0.922      266.945       40.770        0.023      337.824       10.055      852.118
03/01/2014  17:25:00     -173.300      -78.865      -10.589       77.602       59.436       36.286     6022.058     3532.602     1316.652        2.362        0.544      190.401       33.734        0.031      337.814       10.040      852.130
03/01/2014  17:26:00     -162.676      -84.737       -2.775       98.041       57.152       41.762     9612.057     3266.355     1744.041        2.413        0.731      183.423       48.879        0.071      337.832       10.070      852.148
03/01/2014  17:27:00     -141.813      -48.755        6.247       59.865       76.356       34.701     3583.816     5830.292     1204.156        1.657        0.531      149.960       35.038        0.055      337.799       10.018      852.166
03/01/2014  17:28:00     -218.155      -30.028      -12.569       84.368       88.046       36.690     7117.939     7752.084     1346.142        3.243        0.811      220.212       41.409        0.035      337.781        9.984      852.191
03/01/2014  17:29:00     -178.388      -47.838      -13.386       50.367       36.847       31.131     2536.874     1357.675      969.129        1.958        0.243      184.691       21.183        0.013      337.778        9.980      852.211
03/01/2014  17:30:00     -196.662      -41.390      -10.959       65.840       40.741       37.574     4334.929     1659.868     1411.836        2.396        0.370      200.970       37.465        0.035      337.761        9.951      852.234
03/01/2014  17:31:00     -107.882      -32.058        6.714      107.646       73.314       40.818    11587.768     5374.959     1666.080        1.567        0.931      112.545       49.239        0.191      337.809       10.031      852.248
03/01/2014  17:32:00     -309.910       -9.214      -17.649      129.985       61.467       43.348    16896.040     3778.144     1879.061        5.949        1.128      310.047       32.710        0.011      337.758        9.946      852.263
03/01/2014  17:33:00     -101.969      -15.008       15.076       76.623       70.319       38.758     5871.125     4944.717     1502.188        1.158        0.616      103.068       39.015        0.143      337.781        9.986      852.277
03/01/2014  17:34:00      -43.329      -33.509        4.568       54.200       43.575       28.079     2937.655     1898.772      788.415        0.432        0.281       54.774       28.405        0.269      337.804       10.025      852.285
03/01/2014  17:35:00     -154.290      -41.386      -10.325      107.749       54.885       33.837    11609.911     3012.328     1144.942        2.069        0.788      159.744       37.829        0.056      337.760        9.950      852.284
03/01/2014  17:36:00     -117.580      -55.092        6.675       87.379       63.202       41.308     7635.113     3994.438     1706.383        1.512        0.667      129.847       43.130        0.110      337.751        9.937      852.275
03/01/2014  17:37:00     -198.646      -74.689      -18.518       73.514       83.932       33.328     5404.272     7044.518     1110.743        2.947        0.678      212.223       30.502        0.021      337.740        9.915      852.284
03/01/2014  17:38:00     -206.178       33.229       -4.367      115.345       69.956       50.216    13304.467     4893.814     2521.665        3.217        1.036      208.838       58.621        0.079      337.781        9.984      852.267
03/01/2014  17:39:00     -111.948      -15.055        5.647       80.078       61.834       38.903     6412.506     3823.418     1513.455        1.227        0.587      112.956       34.461        0.093      337.847       10.095      852.263
03/01/2014  17:40:00      -95.392      -48.675        9.416       64.350       57.560       29.519     4140.948     3313.134      871.366        0.994        0.416      107.093       34.925        0.106      337.765        9.958      852.267
03/01/2014  17:41:00     -165.615      -18.640       -4.385       47.721       44.114       28.885     2277.261     1946.038      834.354        1.643        0.253      166.660       24.173        0.021      337.740        9.917      852.264
03/01/2014  17:42:00     -116.053      -42.876        1.709       44.683       36.576       29.642     1996.542     1337.835      878.644        0.976        0.211      123.720       18.838        0.023      337.786        9.995      852.257
03/01/2014  17:43:00      -43.512      -23.848       13.849       59.153       28.253       21.369     3499.111      798.257      456.645        0.370        0.238       49.619       30.114        0.368      337.782        9.990      852.258
03/01/2014  17:44:00     -192.331      -63.907      -16.552       46.062       49.029       26.268     2121.686     2403.881      689.990        2.328        0.261      202.671       22.778        0.013      337.699        9.849      852.271
03/01/2014  17:45:00     -125.411      -43.538       -4.551       77.541       44.805       27.311     6012.638     2007.499      745.892        1.320        0.438      132.753       34.548        0.068      337.725        9.893      852.291
03/01/2014  17:46:00      -44.597       -7.223       12.737       60.719       31.631       28.074     3686.742     1000.542      788.160        0.384        0.274       45.178       25.916        0.329      337.782        9.990      852.310
03/01/2014  17:47:00     -169.274      -46.394       -9.109       59.162       57.473       28.968     3500.168     3303.174      839.142        1.926        0.382      175.516       29.361        0.028      337.736        9.910      852.332
03/01/2014  17:48:00     -164.726      -42.681       -2.932       86.085       45.194       36.487     7410.596     2042.470     1331.275        1.987        0.539      170.165       37.327        0.048      337.741        9.919      852.354
03/01/2014  17:49:00     -120.216      -70.336       -8.201       68.524       66.488       41.895     4695.502     4420.637     1755.230        1.517        0.544      139.281       43.624        0.098      337.693        9.841      852.373
03/01/2014  17:50:00     -130.181      -96.428       -9.062       65.699       85.252       32.629     4316.376     7267.915     1064.684        1.949        0.632      162.005       30.264        0.035      337.690        9.834      852.393
03/01/2014  17:51:00     -110.993      -30.531       -9.715       54.474       39.803       23.204     2967.400     1584.260      538.436        0.922        0.255      115.116       18.401        0.026      337.721        9.886      852.423
03/01/2014  17:52:00      -95.178      -46.762        9.141       73.622       56.941       30.425     5420.249     3242.250      925.691        1.046        0.479      106.045       32.755        0.095      337.700        9.851      852.455
03/01/2014  17:53:00      -69.896      -53.869       12.059      103.286       57.298       39.759    10668.043     3283.083     1580.758        1.173        0.777       88.246       46.497        0.278      337.718        9.880      852.472
03/01/2014  17:54:00      -90.833      -50.372        8.914       94.270       69.231       31.701     8886.899     4792.896     1004.985        1.277        0.734      103.865       33.830        0.106      337.731        9.901      852.488
03/01/2014  17:55:00     -143.288      -35.163       -5.849       64.586       37.359       28.589     4171.410     1395.691      817.338        1.409        0.319      147.540       29.623        0.040      337.670        9.802      852.505
03/01/2014  17:56:00      -48.840        2.410       18.726       63.948       47.853       38.270     4089.345     2289.948     1464.593        0.529        0.392       48.900       41.736        0.728      337.854       10.108      852.521
03/01/2014  17:57:00     -189.031      -21.352        0.195      128.824       67.235       37.540    16595.619     4520.486     1409.273        2.935        1.126      190.233       50.303        0.070      337.724        9.889      852.543
03/01/2014  17:58:00     -146.821      -26.102        0.001       72.792       58.217       38.096     5298.700     3389.202     1451.328        1.619        0.507      149.123       30.503        0.042      337.688        9.830      852.556
03/01/2014  17:59:00     -102.432      -47.696        3.145       59.763       66.925       33.216     3571.626     4478.894     1103.274        1.096        0.458      112.992       40.229        0.127      337.722        9.889      852.572
03/01/2014  18:00:00     -106.201      -22.626       -0.497       60.090       45.262       34.887     3610.810     2048.643     1217.070        0.933        0.344      108.585       27.982        0.066      337.730        9.901      852.592
03/01/2014  18:01:00     -139.030      -42.137      -12.166       43.486       44.903       25.623     1890.994     2016.300      656.516        1.291        0.228      145.275       24.383        0.028      337.662        9.786      852.613
03/01/2014  18:02:00     -106.728      -35.130       -7.632       34.436       25.226       17.545     1185.870      636.367      307.815        0.741        0.107      112.361       16.697        0.022      337.638        9.744      852.630
03/01/2014  18:03:00      -65.547      -48.409       -2.858       26.973       29.782       18.330      727.561      886.977      335.983        0.430        0.098       81.485       10.522        0.017      337.683        9.822      852.642
03/01/2014  18:04:00     -134.787       13.049       -2.055       47.319       54.231       27.853     2239.054     2941.011      775.795        1.215        0.298      135.417       26.934        0.040      337.733        9.905      852.656
03/01/2014  18:05:00     -152.719        0.905      -15.129       57.497       42.399       22.283     3305.896     1797.679      496.532        1.458        0.280      152.722       22.411        0.022      337.794       10.009      852.671
03/01/2014  18:06:00     -121.594       -0.415      -12.807       53.965       60.107       30.214     2912.269     3612.820      912.898        1.119        0.372      121.595       25.824        0.045      337.794       10.009      852.669
03/01/2014  18:07:00     -106.568        5.479      -12.910       52.763       30.675       18.363     2783.986      940.977      337.214        0.781        0.203      106.709       25.336        0.056      337.605        9.696      852.675
03/01/2014  18:08:00      -67.617       65.621      -17.250       46.043       64.590       24.418     2119.959     4171.885      596.263        0.803        0.344       94.224       26.098        0.077      337.870       10.136      852.671
03/01/2014  18:09:00      -93.974      121.080      -23.385       37.561       38.124       28.801     1410.812     1453.422      829.511        1.387        0.185      153.269       24.105        0.025      337.716        9.878      852.680
03/01/2014  18:10:00      -20.123      164.672      -27.646       51.075       53.471       20.702     2608.626     2859.179      428.589        1.709        0.295      165.897       22.755        0.019      337.643        9.755      852.676
03/01/2014  18:11:00        7.948       75.520      -12.288       30.464       63.343       29.133      928.036     4012.354      848.716        0.585        0.289       75.937       35.186        0.215      337.535        9.573      852.659
03/01/2014  18:12:00      -21.374       74.140      -25.342       34.789       28.040       18.952     1210.276      786.239      359.171        0.448        0.118       77.160       15.338        0.040      337.625        9.723      852.663
03/01/2014  18:13:00       -0.394       35.360       -6.089       28.939       42.076       26.594      837.469     1770.383      707.247        0.230        0.166       35.362       21.619        0.374      337.595        9.675      852.665
03/01/2014  18:14:00      -87.567      -52.547       -2.978       61.520       42.721       25.903     3784.723     1825.054      670.987        0.836        0.314      102.123       27.474        0.072      337.589        9.663      852.689
03/01/2014  18:15:00     -141.357       71.854      -22.779       45.972       38.890       22.313     2113.464     1512.404      497.879        1.489        0.206      158.572       18.299        0.013      337.635        9.741      852.703
03/01/2014  18:16:00      -38.663      -31.454        8.944       63.440       38.377       29.781     4024.612     1472.822      886.889        0.447        0.319       49.842       31.720        0.405      337.688        9.831      852.718
03/01/2014  18:17:00      -44.989      -58.307       12.125       48.409       36.559       26.897     2343.423     1336.531      723.434        0.499        0.220       73.645       29.527        0.161      337.593        9.671      852.729
03/01/2014  18:18:00       14.782      -51.807        6.340       28.809       27.964       23.144      829.938      781.988      535.653        0.254        0.107       53.874       13.022        0.058      337.716        9.879      852.745
03/01/2014  18:19:00       49.349       15.383       13.407       21.341       34.786       20.310      455.431     1210.080      412.493        0.246        0.104       51.691       14.362        0.077      337.669        9.799      852.771
03/01/2014  18:20:00       29.191       16.244       -2.651       37.654       18.603       15.181     1417.852      346.056      230.473        0.156        0.100       33.406       11.178        0.112      337.588        9.663      852.781
03/01/2014  18:21:00        6.883        3.070       21.271       20.136       14.871       16.621      405.467      221.156      276.243        0.071        0.045        7.537       15.228        4.082      337.706        9.861      852.786
03/01/2014  18:22:00      -17.956      -10.925        5.989       28.957       20.055       19.345      838.487      402.216      374.228        0.105        0.081       21.018       16.006        0.580      337.687        9.830      852.801
03/01/2014  18:23:00      -14.269      -18.594       10.078       28.633       21.159       19.786      819.866      447.724      391.504        0.115        0.083       23.438       16.750        0.511      337.703        9.857      852.810
03/01/2014  18:24:00        0.361       15.786       18.686       19.503       15.143       14.564      380.370      229.299      212.100        0.071        0.041       15.790       13.970        0.783      337.671        9.801      852.818
03/01/2014  18:25:00       28.356       32.660       -6.994       36.729       50.609       22.393     1348.988     2561.232      501.426        0.316        0.221       43.253       15.180        0.123      337.610        9.701      852.827
03/01/2014  18:26:00       -4.468       32.897       59.392       29.341       47.390       41.120      860.911     2245.830     1690.890        0.471        0.240       33.199       36.669        1.220      337.685        9.826      852.823
03/01/2014  18:27:00       -8.369       15.003       57.450       27.812       48.945       36.370      773.511     2395.586     1322.772        0.404        0.225       17.179       38.224        4.951      337.661        9.785      852.852
03/01/2014  18:28:00      -30.680      -55.343        0.873       20.874       34.620       23.283      435.704     1198.510      542.120        0.309        0.109       63.278       13.294        0.044      337.665        9.793      852.886
03/01/2014  18:29:00       -9.211      -21.816       20.568       36.870       33.562       22.202     1359.369     1126.413      492.912        0.198        0.149       23.681       23.160        0.956      337.681        9.819      852.897
03/01/2014  18:30:00      -27.474      -29.567       13.544       32.147       33.658       21.881     1033.444     1132.891      478.757        0.223        0.132       40.361       22.477        0.310      337.713        9.874      852.902
03/01/2014  18:31:00        3.433       14.285       39.663       17.135       15.581       14.080      293.615      242.767      198.236        0.126        0.037       14.692       12.035        0.671      337.640        9.749      852.906
03/01/2014  18:32:00       72.154       52.838       31.788       29.341       28.043       27.520      860.923      786.415      757.365        0.571        0.120       89.432       21.750        0.059      337.573        9.638      852.908
03/01/2014  18:33:00       45.240       68.125       64.134       42.248       46.521       44.713     1784.871     2164.168     1999.285        0.837        0.297       81.778       38.413        0.221      337.546        9.592      852.906
03/01/2014  18:34:00      -17.407       37.152       65.660       19.253       50.923       36.127      370.663     2593.102     1305.164        0.513        0.213       41.027       35.294        0.740      337.616        9.708      852.914
03/01/2014  18:35:00      -36.521       -2.756        8.212       18.950       27.893       26.385      359.121      778.026      696.166        0.162        0.092       36.624       16.565        0.205      337.671        9.800      852.940
03/01/2014  18:36:00       24.706       -4.008       22.644       44.169       27.457       29.841     1950.921      753.886      890.487        0.237        0.180       25.029       22.495        0.808      337.658        9.781      852.955
03/01/2014  18:37:00       22.810       60.840       68.217       27.642       36.285       29.471      764.105     1316.574      868.529        0.591        0.147       64.975       26.819        0.170      337.571        9.634      852.952
03/01/2014  18:38:00       66.412       59.474       40.459       34.257       30.337       42.248     1173.527      920.356     1784.868        0.673        0.194       89.149       29.118        0.107      337.537        9.578      852.946
03/01/2014  18:39:00       26.298       50.439       41.516       36.504       28.382       20.753     1332.553      805.551      430.686        0.376        0.128       56.883       18.226        0.103      337.498        9.512      852.948
03/01/2014  18:40:00       39.564       25.408       45.303       46.944       42.037       30.246     2203.749     1767.104      914.834        0.457        0.244       47.020       32.031        0.464      337.491        9.500      852.962
03/01/2014  18:41:00       22.324       42.252       49.886       27.455       23.107       15.231      753.759      533.920      231.980        0.315        0.076       47.787       13.774        0.083      337.465        9.455      852.967
03/01/2014  18:42:00       52.209       54.359       53.912       42.241       32.872       27.546     1784.264     1080.575      758.803        0.610        0.181       75.370       17.357        0.053      337.448        9.428      852.975
03/01/2014  18:43:00       59.121       63.845       33.173       54.471       40.374       48.371     2967.074     1630.037     2339.731        0.780        0.347       87.015       46.224        0.282      337.431        9.400      852.986
03/01/2014  18:44:00       42.687       43.699        6.973       20.797       20.680       16.905      432.522      427.675      285.789        0.246        0.057       61.089        5.934        0.009      337.391        9.334      852.998
03/01/2014  18:45:00       78.764       55.403       -2.855       35.568       22.184       28.499     1265.049      492.112      812.198        0.592        0.128       96.297       21.590        0.050      337.308        9.194      853.016
03/01/2014  18:46:00       81.604       51.436        3.472       25.936       19.074       23.002      672.695      363.801      529.115        0.544        0.078       96.462       12.158        0.016      337.328        9.228      853.024
03/01/2014  18:47:00       83.985       57.399       32.841       38.681       36.574       36.663     1496.210     1337.643     1344.196        0.780        0.209      101.726       29.529        0.084      337.384        9.322      853.023
03/01/2014  18:48:00       57.439      113.095      101.520       60.390       46.616       51.652     3646.951     2173.087     2667.966        1.744        0.424      126.845       43.977        0.120      337.444        9.422      853.020
03/01/2014  18:49:00       72.792       69.069       61.399       43.119       32.462       39.818     1859.257     1053.759     1585.512        0.917        0.225      100.345       20.906        0.043      337.454        9.440      853.037
03/01/2014  18:50:00       10.781        0.297       18.302       23.475       12.898       18.203      551.086      166.353      331.341        0.075        0.052       10.785       15.710        2.122      337.468        9.461      853.042
03/01/2014  18:51:00       12.470       -8.927       17.513       23.167       40.651       23.797      536.708     1652.489      566.321        0.165        0.138       15.336       25.058        2.670      337.480        9.483      853.055
03/01/2014  18:52:00       -2.755       33.546       42.821       14.601       23.807       23.978      213.187      566.793      574.930        0.216        0.068       33.659       13.675        0.165      337.477        9.476      853.065
03/01/2014  18:53:00       15.405       52.728       61.697       43.435       34.060       21.600     1886.629     1160.092      466.542        0.517        0.176       54.932       21.664        0.156      337.445        9.423      853.078
03/01/2014  18:54:00       84.063       54.574       30.280       30.403       26.164       31.020      924.369      684.535      962.257        0.677        0.129      100.224       14.819        0.022      337.456        9.441      853.090
03/01/2014  18:55:00      109.440       60.264       23.854       40.606       22.713       30.754     1648.884      515.871      945.783        0.964        0.156      124.935       17.612        0.020      337.436        9.408      853.093
03/01/2014  18:56:00       85.382       62.929       41.275       47.081       29.210       31.389     2216.617      853.228      985.244        0.850        0.203      106.067       29.869        0.079      337.407        9.360      853.095
03/01/2014  18:57:00       78.243       32.696       16.591       48.278       22.326       23.110     2330.744      498.466      534.090        0.541        0.168       84.800       13.839        0.027      337.427        9.393      853.106
03/01/2014  18:58:00       17.258       39.653       -5.701       22.998       23.455       18.195      528.926      550.122      331.071        0.166        0.071       43.246       16.566        0.147      337.356        9.274      853.126
03/01/2014  18:59:00       -9.771       77.711      -15.088       16.182       32.623       22.760      261.873     1064.230      518.037        0.410        0.092       78.323       19.831        0.064      337.666        9.794      853.137
03/01/2014  19:00:00      -19.547       62.763      -11.442       23.736       35.281       13.926      563.397     1244.780      193.924        0.323        0.100       65.736       17.405        0.070      337.545        9.591      853.147
03/01/2014  19:01:00      -38.262        8.689       -9.464       21.854       26.328       16.710      477.595      693.186      279.232        0.154        0.073       39.236        9.819        0.063      337.607        9.695      853.160
03/01/2014  19:02:00      -55.741       39.018      -13.027       35.702       34.599       22.276     1274.602     1197.099      496.234        0.388        0.148       68.040       20.133        0.088      337.602        9.687      853.160
03/01/2014  19:03:00       12.560      111.233      -20.220       34.107       37.033       16.830     1163.311     1371.451      283.265        0.788        0.141      111.940       11.588        0.011      337.278        9.143      853.156
03/01/2014  19:04:00        4.495       82.975      -20.219       18.964       31.459        9.428      359.645      989.670       88.882        0.438        0.072       83.097        7.679        0.009      337.149        8.927      853.143
03/01/2014  19:05:00       -0.139       59.686       -8.748       21.819       27.467       18.848      476.058      754.451      355.239        0.261        0.079       59.686       19.352        0.105      337.147        8.926      853.144
03/01/2014  19:06:00      -23.871       20.857        6.811       25.610       20.942       16.324      655.881      438.547      266.475        0.121        0.068       31.700        8.732        0.076      337.225        9.055      853.139
03/01/2014  19:07:00      -13.604       10.927       -6.486       13.474       16.756       13.185      181.554      280.769      173.850        0.049        0.032       17.449        8.090        0.215      337.229        9.061      853.145
03/01/2014  19:08:00      -27.419       -1.978        1.577       19.517       22.643       12.942      380.907      512.694      167.489        0.091        0.053       27.490       11.504        0.175      337.289        9.162      853.142
03/01/2014  19:09:00      -58.852      -20.720       -5.197       26.360       18.728       12.811      694.866      350.720      164.133        0.256        0.060       62.393       16.023        0.066      337.172        8.968      853.142
03/01/2014  19:10:00      -78.286      -20.525      -11.735        9.001       12.667        7.590       81.021      160.441       57.602        0.349        0.015       80.932        6.477        0.006      337.221        9.047      853.150
03/01/2014  19:11:00      -49.815      -14.366       -8.560       11.140        6.693        9.490      124.107       44.794       90.059        0.151        0.013       51.845        4.513        0.008      337.259        9.113      853.169
03/01/2014  19:12:00      -28.757      -13.039       -7.995        9.509        7.738        7.414       90.413       59.881       54.969        0.063        0.010       31.575        4.636        0.022      337.286        9.158      853.194
03/01/2014  19:13:00      -29.340      -26.405       -5.494       20.387       12.479       10.370      415.611      155.732      107.542        0.113        0.034       39.472       10.310        0.068      337.347        9.258      853.213
03/01/2014  19:14:00      -45.048      -21.427       -4.565        8.802        9.364        8.258       77.474       87.692       68.188        0.137        0.012       49.884        4.661        0.009      337.292        9.167      853.233
03/01/2014  19:15:00      -63.003      -47.589       -5.509       10.242        8.409        8.084      104.895       70.713       65.347        0.325        0.012       78.956        6.538        0.007      337.276        9.143      853.261
03/01/2014  19:16:00      -19.957        7.716       -1.341       16.673       23.818       15.555      277.979      567.286      241.959        0.077        0.054       21.397       15.011        0.492      337.410        9.364      853.282
03/01/2014  19:17:00        2.759       48.406       -5.467       18.817       19.918       17.682      354.097      396.712      312.643        0.172        0.053       48.484       12.427        0.066      337.339        9.245      853.302
03/01/2014  19:18:00       19.581       41.908       -4.453       13.658       15.303       10.543      186.530      234.167      111.151        0.135        0.027       46.257        6.625        0.021      337.318        9.211      853.323
03/01/2014  19:19:00       17.354       39.981       -9.091       11.591        9.845        6.868      134.351       96.927       47.169        0.113        0.014       43.585        5.628        0.017      337.291        9.166      853.350
03/01/2014  19:20:00        2.098       29.117       -9.175       17.066       21.019       13.673      291.249      441.805      186.959        0.093        0.046       29.192       14.628        0.251      337.221        9.049      853.381
03/01/2014  19:21:00       10.642       -4.908       13.700        9.215       10.332        9.101       84.921      106.748       82.827        0.030        0.014       11.719        4.521        0.149      337.208        9.028      853.398
03/01/2014  19:22:00       -8.745      -19.868        2.692       15.926       11.048       11.494      253.636      122.048      132.111        0.049        0.025       21.707        5.032        0.054      337.216        9.041      853.409
03/01/2014  19:23:00      -12.208      -26.418        7.330       13.043       17.270        8.342      170.109      298.246       69.583        0.072        0.027       29.102        7.493        0.066      337.224        9.055      853.416
03/01/2014  19:24:00       -3.488      -10.978       10.053        9.508        9.758        8.473       90.411       95.210       71.800        0.025        0.013       11.519        6.971        0.366      337.244        9.088      853.432
03/01/2014  19:25:00       25.183       11.738        7.299       11.771       12.180       10.796      138.568      148.362      116.546        0.061        0.020       27.784        5.236        0.036      337.161        8.950      853.446
03/01/2014  19:26:00       12.867       12.779       17.227       25.623       13.952       15.928      656.554      194.656      253.712        0.087        0.055       18.135        8.426        0.216      337.079        8.810      853.472
03/01/2014  19:27:00       52.347       15.557       -7.214       11.595       14.457       12.370      134.447      209.008      153.012        0.177        0.025       54.610        7.156        0.017      337.087        8.823      853.489
03/01/2014  19:28:00       39.410       30.560        2.496       12.589       14.792       15.744      158.472      218.814      247.860        0.156        0.031       49.870        9.441        0.036      337.054        8.767      853.498
03/01/2014  19:29:00       25.218       20.622       -8.054       14.014       13.398        8.833      196.392      179.500       78.018        0.079        0.023       32.576        7.292        0.050      337.043        8.751      853.516
03/01/2014  19:30:00       -4.976       21.324      -10.619       16.561        8.022        9.441      274.265       64.345       89.138        0.051        0.021       21.896        7.827        0.128      337.033        8.733      853.538
03/01/2014  19:31:00      -34.092       -2.260       -2.900       19.007       20.371       12.782      361.276      414.993      163.374        0.106        0.047       34.167       10.976        0.103      336.969        8.625      853.563
03/01/2014  19:32:00      -27.985      -17.725        6.320       33.883       24.877       13.779     1148.043      618.856      189.858        0.155        0.098       33.126       14.255        0.185      337.036        8.737      853.588
03/01/2014  19:33:00      -67.010      -18.407       -7.762       11.357       11.998        7.686      128.982      143.956       59.073        0.261        0.017       69.493        7.261        0.011      337.166        8.955      853.606
03/01/2014  19:34:00      -65.890       -5.402       -6.523       31.702       21.989       15.854     1005.032      483.518      251.347        0.308        0.087       66.111       14.963        0.051      337.190        8.995      853.625
03/01/2014  19:35:00     -112.576      -13.032      -10.740       35.908       28.214       19.570     1289.365      796.051      382.968        0.771        0.123      113.328       18.480        0.027      337.310        9.198      853.648
03/01/2014  19:36:00      -72.229      -12.968       -2.271       32.326       29.115       18.292     1044.958      847.695      334.603        0.381        0.111       73.384       18.659        0.065      337.148        8.926      853.664
03/01/2014  19:37:00     -117.792      -10.571       -8.301       24.839       34.690       13.022      616.997     1203.426      169.576        0.802        0.099      118.266       11.069        0.009      337.240        9.081      853.682
03/01/2014  19:38:00      -91.782       23.103       -4.047       27.906       28.248       21.063      778.744      797.960      443.656        0.550        0.101       94.645       15.428        0.027      337.354        9.271      853.706
03/01/2014  19:39:00      -36.153       38.667        0.323       26.444       28.407       18.470      699.292      806.934      341.155        0.232        0.092       52.935       14.954        0.080      337.155        8.938      853.721
03/01/2014  19:40:00      -76.608       61.658       -7.877       32.904       39.943       22.984     1082.662     1595.426      528.285        0.647        0.160       98.339       17.484        0.032      337.164        8.953      853.747
03/01/2014  19:41:00     -103.315       70.996      -18.751       38.794       33.138       23.612     1504.975     1098.119      557.522        0.961        0.158      125.357       17.898        0.020      337.257        9.109      853.767
03/01/2014  19:42:00      -90.422        3.244       -6.418       33.027       31.570       17.987     1090.758      996.664      323.549        0.532        0.121       90.480       17.731        0.038      337.052        8.766      853.784
03/01/2014  19:43:00      -80.980      -15.486       -9.902       22.043       27.555       15.612      485.875      759.273      243.744        0.419        0.074       82.447       11.269        0.019      337.156        8.939      853.802
03/01/2014  19:44:00      -66.737      -45.619       -5.906       22.232       14.127       16.165      494.268      199.567      261.311        0.376        0.048       80.839       11.433        0.020      336.970        8.627      853.817
03/01/2014  19:45:00      -69.998      -42.108      -12.084       41.437       24.891       20.567     1717.039      619.548      423.020        0.479        0.138       81.687       20.830        0.065      336.926        8.554      853.824
03/01/2014  19:46:00      -71.653      -11.091       -4.398       29.183       30.224       22.038      851.670      913.518      485.685        0.376        0.113       72.507       20.766        0.082      337.046        8.758      853.835
03/01/2014  19:47:00     -115.565      -28.579       -6.322       46.585       36.376       22.317     2170.117     1323.235      498.059        0.910        0.200      119.046       19.353        0.026      336.947        8.588      853.847
03/01/2014  19:48:00     -129.251      -15.368       -9.898       38.584       26.320       23.236     1488.761      692.731      539.908        0.988        0.136      130.162       23.051        0.031      336.996        8.671      853.855
03/01/2014  19:49:00     -133.320      -21.604      -15.215       24.567       18.632       17.490      603.519      347.145      305.899        0.986        0.063      135.059       15.733        0.014      336.865        8.453      853.871
03/01/2014  19:50:00     -131.540      -36.652      -23.634       23.958       30.323       17.965      573.986      919.488      322.744        1.051        0.091      136.551       13.573        0.010      336.933        8.566      853.876
03/01/2014  19:51:00     -141.945      -20.313      -27.503       42.684       57.283       18.351     1821.916     3281.350      336.748        1.338        0.272      143.391       17.141        0.014      336.973        8.631      853.875
03/01/2014  19:52:00     -122.177      -53.614      -11.695       44.353       36.329       23.010     1967.166     1319.794      529.455        1.088        0.191      133.423       13.708        0.011      336.976        8.637      853.883
03/01/2014  19:53:00      -19.316      -41.320       14.992       58.967       44.265       29.145     3477.150     1959.349      849.439        0.429        0.314       45.612       31.031        0.463      337.046        8.755      853.879
03/01/2014  19:54:00     -100.803      -10.680      -10.321       26.301       25.510       16.381      691.753      650.745      268.328        0.600        0.081      101.367       15.644        0.024      337.120        8.881      853.879
03/01/2014  19:55:00      -41.381      -33.129       -7.853       28.578       19.917       18.587      816.714      396.691      345.494        0.221        0.078       53.008       14.943        0.079      336.976        8.636      853.879
03/01/2014  19:56:00      -22.241       48.877      -14.472       18.822       30.630       16.356      354.253      938.176      267.525        0.233        0.078       53.700       12.842        0.057      336.998        8.674      853.881
03/01/2014  19:57:00      -77.433       -9.032       -7.146       42.287       51.859       16.408     1788.173     2689.317      269.210        0.544        0.237       77.958       16.730        0.046      337.026        8.721      853.893
03/01/2014  19:58:00      -87.320      -62.329      -10.738       77.456       87.754       34.261     5999.441     7700.699     1173.789        1.325        0.744      107.283       34.950        0.106      337.084        8.819      853.917
03/01/2014  19:59:00      -58.378        3.304        9.733       45.224       74.163       37.333     2045.244     5500.171     1393.785        0.622        0.447       58.471       44.005        0.566      337.153        8.934      853.921
03/01/2014  20:00:00      -82.390       38.647      -17.436       38.442       45.206       22.701     1477.797     2043.566      515.315        0.631        0.202       91.004       17.033        0.035      337.132        8.899      853.930
03/01/2014  20:01:00       -2.633       20.407       -5.540       23.218       24.520       13.484      539.082      601.228      181.823        0.089        0.066       20.577        7.426        0.130      337.048        8.759      853.942
03/01/2014  20:02:00     -104.312       53.845      -16.293       94.921       40.393       24.920     9010.028     1631.566      620.988        1.265        0.563      117.390       28.798        0.060      337.147        8.924      853.958
03/01/2014  20:03:00      -84.170       10.007       -8.900       77.263       41.477       29.224     5969.587     1720.356      854.062        0.790        0.427       84.762       40.068        0.223      337.109        8.859      853.990
03/01/2014  20:04:00      -44.994      -15.167       12.051       23.724       21.447       17.485      562.833      459.957      305.738        0.186        0.066       47.482       11.492        0.059      337.067        8.790      853.992
03/01/2014  20:05:00      -45.509      -33.957       -1.448       38.917       31.915       18.058     1514.565     1018.593      326.104        0.304        0.143       56.782       18.919        0.111      337.110        8.861      853.997
03/01/2014  20:06:00      -52.603      -31.438        0.379       29.215       53.699       19.329      853.527     2883.597      373.607        0.393        0.206       61.281       16.956        0.077      337.051        8.764      854.002
03/01/2014  20:07:00       -1.924       75.451       -5.286       37.833       33.943       26.641     1431.327     1152.136      709.753        0.451        0.165       75.475       19.151        0.064      336.999        8.675      853.989
03/01/2014  20:08:00      -25.862      -30.411       -5.461       27.273       48.132       17.041      743.824     2316.703      290.391        0.249        0.168       39.920       14.054        0.124      337.073        8.799      853.985
03/01/2014  20:09:00      -70.612      -30.026      -11.714       45.278       32.337       19.149     2050.073     1045.683      366.696        0.474        0.173       76.731        7.948        0.011      337.008        8.689      853.980
03/01/2014  20:10:00     -115.604       -9.428      -11.140       53.355       42.899       27.151     2846.721     1840.358      737.154        0.950        0.271      115.987       13.292        0.013      337.034        8.735      853.985
03/01/2014  20:11:00     -239.584        3.596       -2.755       77.300       56.302       40.615     5975.309     3169.895     1649.558        3.411        0.540      239.611       42.906        0.032      337.104        8.849      854.001
03/01/2014  20:12:00     -217.604     -118.073       -5.852      125.801       73.099       49.166    15825.842     5343.415     2417.288        4.245        1.179      247.574       48.565        0.038      336.972        8.629      854.019
03/01/2014  20:13:00     -160.241      -66.533       -9.884       95.162       82.444       38.204     9055.884     6797.054     1459.550        2.375        0.866      173.505       35.824        0.043      336.964        8.616      854.009
03/01/2014  20:14:00      -88.376      -28.179       -4.394       53.456       41.606       26.413     2857.572     1731.019      697.665        0.695        0.264       92.760       25.525        0.076      337.072        8.798      854.012
03/01/2014  20:15:00      -90.895      -33.915        8.199       93.957       64.100       44.293     8827.843     4108.869     1961.903        1.219        0.745       97.016       49.421        0.259      336.977        8.639      854.017
03/01/2014  20:16:00      -65.637      -30.731       -2.825       99.191       58.076       43.550     9838.944     3372.856     1896.597        1.018        0.755       72.474       45.283        0.390      336.944        8.583      854.029
03/01/2014  20:17:00     -154.814      -43.803        6.339       60.636       64.962       41.340     3676.726     4220.053     1709.007        1.776        0.480      160.892       33.759        0.044      336.935        8.569      854.044
03/01/2014  20:18:00     -188.306       30.451       -3.730      105.506       96.673       64.601    11131.469     9345.712     4173.252        3.052        1.233      190.752       57.528        0.091      336.941        8.578      854.071
03/01/2014  20:19:00     -293.836      -60.216       -5.612       86.164      112.753       46.572     7424.259    12713.325     2168.935        5.615        1.115      299.943       51.127        0.029      336.859        8.440      854.076
03/01/2014  20:20:00     -283.147     -104.695        2.113      145.993       90.948       59.385    21314.058     8271.551     3526.541        6.212        1.656      301.883       68.562        0.052      336.825        8.384      854.077
03/01/2014  20:21:00     -123.287      -42.911        7.592       81.799       63.902       39.794     6691.079     4083.459     1583.580        1.473        0.618      130.542       48.256        0.137      336.843        8.416      854.077
03/01/2014  20:22:00      -87.105      -32.796        8.247       76.828       62.735       37.483     5902.498     3935.734     1404.990        0.999        0.562       93.075       32.942        0.125      336.838        8.408      854.103
03/01/2014  20:23:00     -293.243       27.649      -32.117      103.238       58.063       41.581    10657.989     3371.298     1728.975        5.177        0.788      294.544       31.862        0.012      336.904        8.513      854.095
03/01/2014  20:24:00     -263.760      -25.842       -9.487      124.926       81.746       54.408    15606.568     6682.401     2960.202        4.778        1.262      265.023       70.360        0.070      336.845        8.416      854.100
03/01/2014  20:25:00     -251.650      -38.472       -9.299      137.065       92.216       59.535    18786.899     8503.707     3544.439        4.786        1.542      254.573       62.346        0.060      336.835        8.399      854.114
03/01/2014  20:26:00     -327.844      -24.897      -23.596      111.131      104.642       53.557    12349.996    10949.897     2868.306        6.741        1.308      328.788       62.708        0.036      336.860        8.443      854.119
03/01/2014  20:27:00     -220.970      -93.276       -3.084      106.993       95.608       49.252    11447.560     9140.857     2425.769        4.027        1.151      239.850       47.169        0.039      336.843        8.415      854.126
03/01/2014  20:28:00     -244.896      -37.115      -13.831       57.652       87.878       43.678     3323.733     7722.599     1907.740        3.725        0.648      247.693       35.594        0.021      336.796        8.333      854.136
03/01/2014  20:29:00     -157.362      -83.319        3.671       88.720       79.306       41.380     7871.258     6289.448     1712.343        2.379        0.794      178.059       41.840        0.055      336.793        8.331      854.120
03/01/2014  20:30:00     -215.275      -87.813        1.456      100.659       89.601       51.419    10132.168     8028.420     2643.919        3.743        1.040      232.497       53.725        0.053      336.774        8.298      854.116
03/01/2014  20:31:00     -180.645      -45.399       -0.541       77.969       55.213       36.424     6079.149     3048.479     1326.674        2.257        0.523      186.262       42.789        0.053      336.755        8.271      854.128
03/01/2014  20:32:00     -328.294      -25.558      -14.473      103.506       84.737       52.204    10713.482     7180.275     2725.290        6.463        1.031      329.287       57.924        0.031      336.832        8.395      854.121
03/01/2014  20:33:00     -272.449      -50.077        4.328      107.516      109.511       57.083    11559.659    11992.582     3258.428        5.178        1.341      277.013       50.113        0.033      336.812        8.362      854.114
03/01/2014  20:34:00     -194.481      -52.964        1.412      145.734       78.882       51.263    21238.398     6222.447     2627.884        3.535        1.504      201.564       60.289        0.089      336.822        8.378      854.123
03/01/2014  20:35:00     -334.956       -4.841      -24.421      106.330       78.764       51.758    11306.054     6203.786     2678.907        6.650        1.009      334.991       45.647        0.019      336.852        8.428      854.122
03/01/2014  20:36:00     -290.908       -8.147       -3.450      105.492       80.363       55.901    11128.474     6458.221     3124.901        5.271        1.036      291.023       55.387        0.036      336.851        8.426      854.126
03/01/2014  20:37:00     -272.277      -87.057       -7.374      106.408       99.977       53.969    11322.726     9995.483     2912.663        5.300        1.212      285.856       50.841        0.032      336.814        8.365      854.144
03/01/2014  20:38:00     -365.053      -73.672      -15.929      139.237       92.324       58.819    19386.993     8523.799     3459.672        8.515        1.569      372.413       66.327        0.032      336.752        8.262      854.153
03/01/2014  20:39:00     -316.532      -42.150      -11.101      125.662       94.990       61.522    15791.055     9023.084     3784.920        6.534        1.430      319.326       64.163        0.040      336.789        8.322      854.154
03/01/2014  20:40:00     -273.721      -24.317      -10.504      121.944      107.346       61.989    14870.286    11523.061     3842.623        5.293        1.512      274.799       65.743        0.057      336.822        8.376      854.166
03/01/2014  20:41:00     -293.916       -7.353      -12.094      116.592       84.084       54.075    13593.621     7070.184     2924.158        5.508        1.179      294.008       49.140        0.028      336.819        8.374      854.168
03/01/2014  20:42:00     -143.723      -40.059       17.396       96.519      104.260       50.745     9315.965    10870.139     2575.013        2.266        1.138      149.202       54.793        0.135      336.794        8.332      854.183
03/01/2014  20:43:00     -297.667      -34.954       -6.368      145.065      102.902       53.743    21043.880    10588.820     2888.322        6.219        1.726      299.712       53.492        0.032      336.764        8.283      854.187
03/01/2014  20:44:00     -264.561      -20.197        5.011      161.908      121.179       69.158    26214.188    14684.424     4782.834        5.805        2.284      265.331       77.030        0.084      336.763        8.279      854.175
03/01/2014  20:45:00     -284.043     -105.900       -7.464      126.441       80.881       62.674    15987.393     6541.729     3928.023        5.920        1.323      303.142       60.814        0.040      336.699        8.174      854.155
03/01/2014  20:46:00     -299.301      -70.796       -9.799      102.894       86.991       53.964    10587.174     7567.479     2912.142        5.787        1.053      307.560       51.165        0.028      336.697        8.171      854.172
03/01/2014  20:47:00     -266.460      -46.230        0.175      112.798       94.664       52.279    12723.366     8961.267     2733.101        4.877        1.221      270.441       57.732        0.046      336.717        8.204      854.182
03/01/2014  20:48:00     -227.224      -46.809       -2.359       99.444       74.986       42.759     9889.104     5622.914     1828.367        3.558        0.867      231.996       30.707        0.018      336.747        8.254      854.193
03/01/2014  20:49:00     -145.823      -20.222        5.041      106.719       76.451       53.720    11388.865     5844.788     2885.890        2.091        1.006      147.218       57.489        0.152      336.806        8.352      854.217
03/01/2014  20:50:00     -256.155     -121.698      -22.298       92.424       89.823       51.213     8542.156     8068.099     2622.722        5.007        0.962      283.594       50.022        0.031      336.684        8.148      854.224
03/01/2014  20:51:00     -173.372      -74.018       -9.489       93.775       72.582       42.970     8793.771     5268.079     1846.408        2.576        0.795      188.511       42.906        0.052      336.690        8.160      854.258
03/01/2014  20:52:00     -134.550       10.192      -11.459       85.202       78.218       47.003     7259.372     6118.098     2209.327        1.696        0.779      134.935       50.025        0.137      336.710        8.195      854.247
03/01/2014  20:53:00     -173.363      -61.906       -7.703       96.293       94.642       54.246     9272.279     8957.034     2942.680        2.756        1.059      184.084       48.985        0.071      336.686        8.153      854.269
03/01/2014  20:54:00     -166.762      -98.679       -9.491       83.290      104.421       48.504     6937.233    10903.711     2352.617        2.891        1.010      193.771       44.568        0.053      336.675        8.135      854.288
03/01/2014  20:55:00     -307.462      -89.161       -7.831      154.235       83.986       54.548    23788.450     7053.726     2975.529        6.818        1.691      320.129       63.787        0.040      336.653        8.098      854.300
03/01/2014  20:56:00     -241.084      -30.077       -7.393      121.538       93.366       57.853    14771.523     8717.275     3346.929        4.295        1.342      242.952       67.748        0.078      336.683        8.147      854.327
03/01/2014  20:57:00     -252.897       -7.778        4.937      168.089       80.765       61.941    28253.819     6523.048     3836.656        5.132        1.931      253.016       82.839        0.107      336.703        8.183      854.340
03/01/2014  20:58:00     -222.521      -20.692       -9.542      112.206       85.889       52.070    12590.133     7376.895     2711.306        3.635        1.134      223.481       54.132        0.059      336.710        8.193      854.339
03/01/2014  20:59:00     -236.479      -98.636      -28.391      106.075       76.963       46.939    11251.834     5923.335     2203.312        4.291        0.969      256.225       42.543        0.028      336.665        8.117      854.353
03/01/2014  21:00:00     -257.971      -34.299        3.673      126.208       92.079       53.781    15928.556     8478.600     2892.378        4.751        1.365      260.241       56.766        0.048      336.657        8.104      854.366
03/01/2014  21:01:00     -235.968      -34.535      -21.637      103.050       76.273       47.556    10619.379     5817.537     2261.577        3.802        0.935      238.481       56.121        0.055      336.698        8.171      854.370
03/01/2014  21:02:00     -265.624      -50.468       -2.001      114.938      109.862       53.456    13210.853    12069.755     2857.588        5.062        1.407      270.376       51.141        0.036      336.713        8.196      854.371
03/01/2014  21:03:00     -196.133     -120.471       -7.259       92.052       83.366       54.963     8473.492     6949.940     3020.981        3.574        0.922      230.177       52.392        0.052      336.636        8.068      854.385
03/01/2014  21:04:00     -249.451      -34.664      -13.657       98.245       84.531       54.556     9652.009     7145.438     2976.386        4.169        0.989      251.848       36.430        0.021      336.661        8.110      854.381
03/01/2014  21:05:00     -238.027      -53.890        1.168      101.185       90.842       56.436    10238.399     8252.237     3185.015        4.062        1.084      244.051       52.145        0.046      336.604        8.014      854.389
03/01/2014  21:06:00     -161.086      -20.939        6.754      156.370       71.428       52.220    24451.545     5101.981     2726.913        2.935        1.614      162.442       70.421        0.188      336.624        8.049      854.406
03/01/2014  21:07:00     -318.510      -33.823       -8.097      142.332      113.145       65.953    20258.342    12801.736     4349.774        7.003        1.870      320.301       69.148        0.047      336.676        8.135      854.415
03/01/2014  21:08:00     -308.212      -59.663       -7.480      133.501       85.616       65.526    17822.420     7330.089     4293.702        6.402        1.472      313.934       63.015        0.040      336.687        8.153      854.416
03/01/2014  21:09:00     -320.351      -94.298      -13.857      117.982       84.494       51.623    13919.643     7139.258     2664.903        6.771        1.186      333.942       58.021        0.030      336.649        8.091      854.439
03/01/2014  21:10:00     -309.259     -118.563      -10.536       82.594      102.612       50.720     6821.738    10529.260     2572.486        6.486        0.996      331.207       45.000        0.018      336.622        8.045      854.465
03/01/2014  21:11:00     -256.189      -48.439       -9.463      123.394       85.555       50.378    15226.041     7319.680     2537.979        4.657        1.254      260.728       50.535        0.038      336.612        8.029      854.492
03/01/2014  21:12:00     -199.671      -24.341       -4.861       99.998      109.398       50.082     9999.657    11967.969     2508.226        3.248        1.224      201.149       47.081        0.055      336.679        8.141      854.514
03/01/2014  21:13:00     -164.059      -31.756       10.019       93.799       86.599       49.198     8798.230     7499.302     2420.490        2.337        0.936      167.104       49.720        0.089      336.672        8.131      854.539
03/01/2014  21:14:00     -155.814      -40.069       -4.828       67.316       51.763       33.806     4531.449     2679.373     1142.871        1.713        0.418      160.884       36.338        0.051      336.638        8.072      854.554
03/01/2014  21:15:00     -212.121      -84.300      -11.649      119.972       90.379       45.546    14393.315     8168.275     2074.471        3.843        1.232      228.258       48.804        0.046      336.652        8.095      854.568
03/01/2014  21:16:00     -154.327      -96.305       -1.184       94.833       65.950       43.724     8993.372     4349.409     1911.819        2.417        0.763      181.911       36.967        0.041      336.642        8.080      854.571
03/01/2014  21:17:00     -187.341      -93.041        2.063       91.635       76.853       48.844     8397.049     5906.326     2385.776        3.022        0.834      209.173       43.966        0.044      336.654        8.097      854.582
03/01/2014  21:18:00     -146.155      -58.073       -5.547       68.467       54.884       35.394     4687.718     3012.259     1252.724        1.686        0.448      157.270       28.662        0.033      336.696        8.170      854.604
03/01/2014  21:19:00     -238.833      -71.515      -13.145       84.753       66.046       54.574     7183.009     4362.039     2978.274        3.842        0.726      249.310       48.729        0.038      336.687        8.152      854.628
03/01/2014  21:20:00     -172.010      -16.037        5.172       86.456       65.271       49.560     7474.570     4260.318     2456.209        2.203        0.710      172.756       46.872        0.074      336.745        8.251      854.659
03/01/2014  21:21:00      -91.051      -39.593       14.430       63.270       49.406       35.476     4003.101     2440.958     1258.515        0.888        0.385       99.287       37.120        0.140      336.726        8.222      854.664
03/01/2014  21:22:00      -90.132      -41.876       -6.847       46.473       44.203       25.343     2159.731     1953.900      642.246        0.734        0.238       99.385       25.257        0.065      336.851        8.431      854.673
03/01/2014  21:23:00      -98.747      -79.459        2.444      102.534       73.161       40.115    10513.308     5352.539     1609.205        1.677        0.874      126.747       51.819        0.167      336.762        8.279      854.686
03/01/2014  21:24:00      -27.066      -57.724       22.650       72.117       66.995       33.869     5200.805     4488.264     1147.080        0.771        0.542       63.754       35.573        0.311      336.746        8.256      854.710
03/01/2014  21:25:00     -200.608      -29.847      -14.674       86.419       69.642       39.745     7468.185     4849.941     1579.643        2.762        0.695      202.816       37.423        0.034      336.735        8.234      854.747
03/01/2014  21:26:00     -153.710     -103.255        7.589      150.834       77.028       45.368    22751.013     5933.312     2058.288        3.254        1.537      185.171       57.150        0.095      336.741        8.244      854.793
03/01/2014  21:27:00     -318.775      -20.276      -21.247      119.558      123.156       58.296    14294.025    15167.431     3398.469        6.766        1.643      319.419       56.600        0.031      336.818        8.371      854.811
03/01/2014  21:28:00     -127.983       88.212      -16.847       78.747       63.239       48.038     6201.152     3999.162     2307.676        1.847        0.625      155.438       44.639        0.082      336.861        8.444      854.799
03/01/2014  21:29:00      -16.166      -32.671       11.070       53.274       46.902       27.937     2838.080     2199.785      780.469        0.363        0.291       36.452       28.041        0.592      336.849        8.426      854.820
03/01/2014  21:30:00      -98.796      -82.444       -4.155       75.088       40.816       41.800     5638.182     1665.976     1747.267        1.281        0.453      128.677       41.624        0.105      336.778        8.308      854.854
03/01/2014  21:31:00     -172.018       22.517       -7.788       74.052       53.597       43.857     5483.727     2872.610     1923.456        2.022        0.514      173.486       32.779        0.036      336.780        8.310      854.899
03/01/2014  21:32:00     -264.246       13.142      -19.857      127.304       98.490       59.289    16206.317     9700.205     3515.166        4.990        1.471      264.573       62.091        0.055      336.793        8.330      854.915
03/01/2014  21:33:00     -252.715     -106.431       -4.707       95.854       78.864       48.486     9187.901     6219.493     2350.917        4.648        0.888      274.213       47.446        0.030      336.716        8.203      854.930
03/01/2014  21:34:00     -214.374      -21.423       -6.437       67.383       76.218       44.449     4540.470     5809.215     1975.689        2.939        0.616      215.442       40.267        0.035      336.773        8.298      854.945
03/01/2014  21:35:00     -221.647      -45.246       -3.501      119.095       80.898       51.047    14183.527     6544.419     2605.827        3.726        1.167      226.218       55.759        0.061      336.738        8.240      854.956
03/01/2014  21:36:00     -157.371       18.715       -6.089       71.329       48.868       33.777     5087.802     2388.070     1140.861        1.688        0.431      158.480       34.988        0.049      336.813        8.366      854.968
03/01/2014  21:37:00     -143.760       25.662       -3.241       96.177       61.626       44.437     9249.937     3797.818     1974.643        1.818        0.751      146.032       37.836        0.067      336.875        8.468      854.965
03/01/2014  21:38:00     -115.697      -50.419       -4.610      116.769       77.010       63.685    13634.907     5930.537     4055.829        1.978        1.181      126.206       65.279        0.268      336.804        8.352      854.965
03/01/2014  21:39:00     -142.136       30.952       15.590      102.470       75.824       57.941    10500.076     5749.240     3357.138        2.050        0.980      145.467       58.110        0.160      336.805        8.352      854.978
03/01/2014  21:40:00     -236.975      -15.650      -11.712      171.357       76.131       57.431    29363.112     5795.976     3298.294        4.749        1.923      237.491       61.654        0.067      336.802        8.346      854.977
03/01/2014  21:41:00     -328.023     -108.788      -16.260      137.140      104.899       56.153    18807.284    11003.865     3153.121        7.633        1.648      345.592       39.976        0.013      336.726        8.219      854.978
03/01/2014  21:42:00     -391.317     -127.592      -22.125      154.987      106.619       60.329    24020.905    11367.675     3639.596       10.446        1.951      411.593       65.758        0.026      336.718        8.204      854.985
03/01/2014  21:43:00     -404.442      -52.953       -8.175      127.679       94.361       56.952    16302.015     8904.025     3243.565        9.744        1.422      407.893       56.882        0.019      336.724        8.215      854.974
03/01/2014  21:44:00     -326.413      -77.806       -3.989      106.600      114.229       62.622    11363.536    13048.233     3921.555        7.047        1.417      335.558       58.033        0.030      336.729        8.223      854.957
03/01/2014  21:45:00     -224.445      -66.855       -6.673       99.170      111.819       54.437     9834.644    12503.380     2963.360        4.009        1.265      234.191       44.307        0.036      336.760        8.275      854.962
03/01/2014  21:46:00     -340.034      -32.274        3.330      130.053      114.148       66.949    16913.743    13029.737     4482.142        7.554        1.721      341.562       64.956        0.036      336.713        8.197      854.972
03/01/2014  21:47:00     -276.830      -18.356      -12.138      111.731      101.763       57.806    12483.841    10355.747     3341.518        5.165        1.309      277.438       64.516        0.054      336.736        8.236      854.970
03/01/2014  21:48:00     -279.743      -15.820        0.119      153.252       88.939       49.737    23486.036     7910.151     2473.743        5.618        1.693      280.190       66.309        0.056      336.760        8.275      854.976
03/01/2014  21:49:00     -179.296      -32.954        8.046      120.196       95.195       55.105    14447.077     9062.052     3036.599        2.992        1.327      182.299       63.573        0.122      336.760        8.275      854.981
03/01/2014  21:50:00     -253.553      -28.912       -6.082      132.089      100.322       56.714    17447.592    10064.571     3216.522        4.794        1.536      255.196       63.916        0.063      336.736        8.235      855.001
03/01/2014  21:51:00     -400.455     -135.495      -16.689      184.300      144.381       84.319    33966.658    20845.988     7109.775       12.045        3.096      422.756       87.730        0.043      336.701        8.178      855.003
03/01/2014  21:52:00     -477.316     -142.223       -7.358      201.635      184.079      101.076    40656.542    33885.155    10216.288       16.642        4.238      498.054      117.808        0.056      336.701        8.176      854.999
03/01/2014  21:53:00     -315.942      -22.017       -4.245      246.475      126.850       72.995    60750.096    16091.000     5328.309        9.123        4.108      316.708       96.357        0.093      336.765        8.285      855.011
03/01/2014  21:54:00     -389.856      -57.322      -15.224      184.755      126.780       70.124    34134.566    16073.175     4917.320       10.531        2.756      394.048       86.923        0.049      336.742        8.245      855.032
03/01/2014  21:55:00     -276.408      -58.282        3.094      185.950      105.143       72.909    34577.430    11054.970     5315.761        6.537        2.547      282.485       93.735        0.110      336.751        8.260      855.067
03/01/2014  21:56:00     -425.937      -66.155      -25.708      147.192      116.031       68.902    21665.454    13463.303     4747.449       11.316        1.994      431.044       58.897        0.019      336.732        8.229      855.087
03/01/2014  21:57:00     -428.439      -91.595      -16.021      186.273      115.886       59.055    34697.780    13429.556     3487.516       12.190        2.581      438.120       66.339        0.023      336.753        8.263      855.072
03/01/2014  21:58:00     -409.673      -24.992      -25.092      133.466      123.790       69.941    17813.239    15324.050     4891.741       10.355        1.901      410.435       62.499        0.023      336.790        8.325      855.065
03/01/2014  21:59:00     -246.347      -53.311        8.247      138.262      120.000       67.069    19116.283    14399.954     4498.242        5.080        1.901      252.049       66.409        0.069      336.743        8.247      855.095
03/01/2014  22:00:00     -240.417      -48.300       -4.974      133.312       88.695       60.354    17772.142     7866.818     3642.656        4.471        1.464      245.221       70.466        0.083      336.770        8.291      855.120
03/01/2014  22:01:00     -133.476      -48.984       -7.458      112.089       82.325       56.344    12563.880     6777.360     3174.697        2.139        1.126      142.181       46.874        0.109      336.758        8.273      855.104
03/01/2014  22:02:00     -223.171      -55.895      -15.084      122.653       65.457       46.856    15043.853     4284.592     2195.477        3.734        1.076      230.065       31.821        0.019      336.759        8.275      855.096
03/01/2014  22:03:00     -440.355      -70.361      -28.499      152.456      128.876       66.321    23242.696    16608.920     4398.506       12.196        2.213      445.941       74.373        0.028      336.734        8.232      855.064
03/01/2014  22:04:00     -314.302      -67.143        0.370      118.139       88.623       59.201    13956.761     7854.053     3504.799        6.430        1.266      321.394       61.298        0.036      336.699        8.174      855.080
03/01/2014  22:05:00     -192.103      -30.946       -3.981      127.891       82.716       49.564    16356.127     6841.929     2456.574        3.176        1.283      194.580       59.921        0.095      336.771        8.296      855.069
03/01/2014  22:06:00     -151.400      -87.025        0.404      126.139       97.785       58.380    15910.986     9561.966     3408.268        2.968        1.444      174.629       69.333        0.158      336.744        8.250      855.050
03/01/2014  22:07:00     -168.558     -120.121      -19.241      111.919       98.751       58.247    12525.932     9751.695     3392.697        3.444        1.284      206.980       41.541        0.040      336.714        8.200      855.019
03/01/2014  22:08:00     -148.487      -67.152       18.710      136.571       90.090       55.228    18651.565     8116.161     3050.113        2.836        1.491      162.966       79.922        0.241      336.708        8.190      854.997
03/01/2014  22:09:00      -73.613      -65.927        8.985       81.288       83.421       35.381     6607.792     6958.991     1251.785        1.233        0.741       98.819       34.233        0.120      336.726        8.224      854.998
03/01/2014  22:10:00     -151.425      -75.611       12.788      158.902      102.551       73.243    25249.734    10516.694     5364.480        3.496        2.057      169.253       96.786        0.327      336.713        8.199      854.991
03/01/2014  22:11:00     -150.448      -82.241        4.693      152.220       91.306       53.759    23170.959     8336.850     2890.025        3.190        1.720      171.459       64.955        0.144      336.700        8.177      854.976
03/01/2014  22:12:00     -119.384     -102.049        4.953      100.856       72.081       44.409    10172.011     5195.713     1972.141        2.101        0.867      157.056       40.097        0.065      336.682        8.148      854.957
03/01/2014  22:13:00       -5.785      -31.078       24.619       73.052       43.842       50.279     5336.651     1922.116     2527.998        0.569        0.489       31.612       40.200        1.617      336.709        8.195      854.934
03/01/2014  22:14:00      -96.858      -80.145        9.401       95.715       68.977       47.642     9161.368     4757.774     2269.807        1.604        0.809      125.716       52.877        0.177      336.691        8.162      854.915
03/01/2014  22:15:00     -195.205     -119.874       -9.329       95.052       73.877       47.871     9034.863     5457.875     2291.624        3.467        0.839      229.074       56.099        0.060      336.679        8.139      854.911
03/01/2014  22:16:00     -128.803     -110.663       -5.306       69.552       61.122       40.419     4837.540     3735.873     1633.663        1.953        0.510      169.814       38.685        0.052      336.681        8.145      854.903
03/01/2014  22:17:00     -144.570     -102.861       -1.059       64.011       58.000       33.618     4097.405     3364.015     1130.146        2.004        0.430      177.429       31.503        0.032      336.705        8.186      854.895
03/01/2014  22:18:00      -61.366      -57.474       10.486       57.885       42.752       31.406     3350.675     1827.696      986.313        0.667        0.308       84.078       33.063        0.155      336.751        8.265      854.893
03/01/2014  22:19:00      -76.953      -64.612       -8.761       47.898       42.078       23.943     2294.179     1770.519      573.281        0.740        0.232      100.481       20.394        0.041      336.720        8.214      854.879
03/01/2014  22:20:00      -99.105      -87.524       -1.155       48.432       64.395       26.629     2345.688     4146.722      709.078        1.234        0.360      132.220       19.977        0.023      336.675        8.136      854.867
03/01/2014  22:21:00      -41.664     -112.928        2.303       52.858       44.644       30.257     2794.009     1993.119      915.475        1.010        0.285      120.369       22.696        0.036      336.723        8.217      854.854
03/01/2014  22:22:00      -59.484     -112.566      -12.074       38.938       46.463       21.638     1516.135     2158.828      468.184        1.025        0.207      127.316       15.643        0.015      336.678        8.141      854.844
03/01/2014  22:23:00      -61.254      -38.180       13.981       36.746       49.674       26.160     1350.291     2467.528      684.365        0.495        0.225       72.179       21.015        0.085      336.709        8.194      854.833
03/01/2014  22:24:00      -30.363        1.065       10.006       39.718       31.265       23.180     1577.505      977.530      537.294        0.206        0.155       30.381       23.323        0.589      336.630        8.063      854.829
03/01/2014  22:25:00      -83.911      -39.643      -18.318       52.517       31.533       26.876     2758.040      994.323      722.315        0.671        0.224       92.804       18.632        0.040      336.651        8.097      854.822
03/01/2014  22:26:00      -36.021      -60.614       -2.428       33.679       25.144       19.036     1134.285      632.198      362.369        0.355        0.106       70.509       13.255        0.035      336.680        8.147      854.816
03/01/2014  22:27:00      -56.651      -45.009        4.499       49.969       25.430       21.138     2496.893      646.674      446.834        0.442        0.180       72.354       23.073        0.102      336.583        7.983      854.802
03/01/2014  22:28:00      -72.118      -90.990       -3.799       34.592       40.727       22.253     1196.626     1658.697      495.207        0.842        0.168      116.104       22.934        0.039      336.597        8.008      854.805
03/01/2014  22:29:00      -91.004      -79.714      -13.795       24.904       29.924       19.843      620.202      895.423      393.747        0.837        0.095      120.979       13.235        0.012      336.598        8.009      854.798
03/01/2014  22:30:00      -26.303      -96.789        3.054       33.176       44.580       26.115     1100.642     1987.356      681.978        0.692        0.188      100.299       23.085        0.053      336.616        8.038      854.802
03/01/2014  22:31:00      -53.955      -45.091       -0.349       36.317       25.016       17.201     1318.931      625.791      295.867        0.359        0.112       70.316       18.169        0.067      336.625        8.054      854.798
03/01/2014  22:32:00      -41.679       17.301       -0.296       34.876       20.914       20.121     1216.310      437.391      404.869        0.205        0.103       45.128       10.393        0.053      336.588        7.990      854.788
03/01/2014  22:33:00      -12.962        9.778       12.556       10.838       18.318       15.893      117.463      335.533      252.581        0.056        0.035       16.236       13.177        0.659      336.520        7.877      854.789
03/01/2014  22:34:00        0.921       -2.797       12.924        9.843       11.176        7.251       96.885      124.907       52.579        0.022        0.014        2.944        6.072        4.253      336.523        7.882      854.792
03/01/2014  22:35:00        0.740       11.899       27.660       15.916       24.837       15.331      253.304      616.872      235.043        0.101        0.055       11.922       15.297        1.646      336.481        7.811      854.796
03/01/2014  22:36:00        2.838       -2.621       29.443       32.719       37.644       24.650     1070.542     1417.068      607.610        0.199        0.155        3.863       23.127       35.840      336.486        7.820      854.802
03/01/2014  22:37:00       78.748      -88.502        3.403       44.400       58.467       39.436     1971.393     3418.376     1555.232        1.049        0.347      118.465       40.600        0.117      336.635        8.069      854.805
03/01/2014  22:38:00       30.162      -30.831       31.629       56.828       44.032       29.818     3229.461     1938.810      889.122        0.446        0.303       43.131       30.011        0.484      336.475        7.801      854.816
03/01/2014  22:39:00       33.613       47.403       75.132       58.498       65.796       48.717     3421.992     4329.150     2373.373        0.957        0.506       58.111       56.696        0.952      336.397        7.670      854.806
03/01/2014  22:40:00       15.393       53.795       88.786       41.503       50.062       34.727     1722.516     2506.198     1205.951        0.822        0.272       55.954       37.227        0.443      336.325        7.551      854.796
03/01/2014  22:41:00       51.177      -47.847       19.963       53.911       72.980       46.260     2906.430     5326.150     2140.018        0.784        0.519       70.061       54.465        0.604      336.296        7.502      854.786
03/01/2014  22:42:00       81.165      -85.339       -5.441       60.498       53.817       33.667     3660.051     2896.266     1133.440        1.079        0.384      117.773       42.222        0.129      336.295        7.500      854.780
03/01/2014  22:43:00      132.078     -148.211      -25.936       33.474       29.311       16.922     1120.494      859.134      286.351        2.117        0.113      198.522       15.018        0.006      336.314        7.531      854.776
03/01/2014  22:44:00      119.247     -140.403      -17.260       54.955       28.869       26.076     3020.057      833.430      679.936        1.938        0.227      184.208       20.348        0.012      336.335        7.567      854.783
03/01/2014  22:45:00       50.205      -74.672       -5.059       43.178       55.738       34.064     1864.366     3106.722     1160.354        0.713        0.307       89.981       31.583        0.123      336.328        7.554      854.796
03/01/2014  22:46:00       12.017      -46.216        3.796       53.143       31.239       20.499     2824.169      975.882      420.199        0.326        0.211       47.753       18.145        0.144      336.362        7.614      854.803
03/01/2014  22:47:00        8.322      -21.645        3.435       20.691       29.498       21.757      428.134      870.140      473.347        0.116        0.089       23.190       18.361        0.627      336.328        7.556      854.798
03/01/2014  22:48:00        1.159      -21.395       10.867       33.307       23.800       17.929     1109.352      566.462      321.437        0.129        0.100       21.426       18.163        0.719      336.373        7.630      854.804
03/01/2014  22:49:00      -46.944      -59.972       -4.917       41.767       52.766       26.735     1744.487     2784.269      714.780        0.553        0.262       76.160       26.119        0.118      336.297        7.504      854.813
03/01/2014  22:50:00      -44.761      -57.387        5.414       49.799       33.569       27.480     2479.921     1126.845      755.171        0.484        0.218       72.779       26.573        0.133      336.230        7.391      854.805
03/01/2014  22:51:00     -111.819      -98.401      -10.028       35.716       43.992       26.043     1275.634     1935.279      678.247        1.309        0.194      148.950       26.383        0.031      336.163        7.281      854.797
03/01/2014  22:52:00      -49.210      -66.939       11.964       66.510       43.601       32.506     4423.559     1901.071     1056.637        0.721        0.369       83.082       37.956        0.209      336.193        7.330      854.797
03/01/2014  22:53:00     -100.852      -88.695       -3.862       47.136       42.149       25.151     2221.836     1776.540      632.562        1.134        0.232      134.306       21.053        0.025      336.108        7.188      854.787
03/01/2014  22:54:00     -103.794     -106.317        2.987       65.654       46.657       29.469     4310.471     2176.915      868.409        1.472        0.368      148.582       28.002        0.036      336.041        7.076      854.779
03/01/2014  22:55:00     -156.692     -113.957       -2.687       72.928       55.006       40.800     5318.470     3025.683     1664.635        2.378        0.500      193.749       38.082        0.039      335.974        6.961      854.775
03/01/2014  22:56:00     -155.267     -125.174       -5.127       91.217       73.004       41.172     8320.569     5329.565     1695.146        2.757        0.767      199.440       45.252        0.051      335.922        6.874      854.777
03/01/2014  22:57:00     -118.395     -106.834       -0.099       62.931       60.345       42.119     3960.365     3641.483     1773.985        1.740        0.469      159.470       36.277        0.052      335.923        6.878      854.777
03/01/2014  22:58:00     -178.114     -144.808      -15.467       61.292       60.734       38.569     3756.699     3688.622     1487.571        3.093        0.447      229.552       25.794        0.013      335.866        6.782      854.790
03/01/2014  22:59:00     -107.383     -120.403       -1.020       59.802       53.141       31.417     3576.225     2823.974      987.028        1.671        0.369      161.332       24.041        0.022      335.848        6.753      854.809
03/01/2014  23:00:00     -130.187      -73.049      -11.466       43.891       40.845       21.857     1926.458     1668.327      477.721        1.324        0.204      149.281       20.995        0.020      335.847        6.753      854.818
03/01/2014  23:01:00     -119.113      -96.826       -7.238       52.285       35.324       22.136     2733.768     1247.766      489.993        1.404        0.224      153.503       14.532        0.009      335.805        6.683      854.827
03/01/2014  23:02:00      -54.701      -54.604       -3.938       37.290       53.474       21.097     1390.544     2859.428      445.095        0.534        0.235       77.291       20.381        0.070      335.801        6.677      854.850
03/01/2014  23:03:00      -51.279      -46.557        1.069       50.141       49.901       21.898     2514.170     2490.151      479.516        0.514        0.274       69.261       23.207        0.112      335.840        6.743      854.860
03/01/2014  23:04:00      -76.597      -66.826        1.213       39.109       28.434       27.368     1529.524      808.469      748.994        0.671        0.154      101.651       19.902        0.038      335.818        6.704      854.864
03/01/2014  23:05:00      -43.297      -60.987        2.224       36.002       47.273       22.029     1296.138     2234.695      485.283        0.481        0.201       74.793       19.971        0.071      335.790        6.659      854.872
03/01/2014  23:06:00      -82.372      -55.191       -7.890       48.273       24.123       17.426     2330.305      581.904      303.668        0.655        0.161       99.152       14.096        0.020      335.826        6.719      854.878
03/01/2014  23:07:00      -68.045      -40.486       10.014       55.939       36.076       29.390     3129.140     1301.466      863.785        0.583        0.265       79.178       30.726        0.151      335.810        6.692      854.904
03/01/2014  23:08:00      -63.556      -62.672        0.488       37.512       29.675       23.294     1407.154      880.626      542.604        0.540        0.142       89.260       15.893        0.032      335.848        6.755      854.938
03/01/2014  23:09:00      -87.980      -54.906       -2.003       31.154       27.872       23.052      970.593      776.834      531.411        0.652        0.114      103.707       17.783        0.029      335.793        6.664      854.963
03/01/2014  23:10:00      -82.950      -58.282        7.291       58.472       35.242       22.079     3418.958     1242.031      487.484        0.774        0.257      101.378       25.929        0.065      335.795        6.666      854.982
03/01/2014  23:11:00     -112.635      -77.703       -3.847       24.692       28.541       20.078      609.706      814.613      403.130        1.028        0.091      136.838       10.590        0.006      335.811        6.693      854.997
03/01/2014  23:12:00     -107.277      -86.657       -6.821       33.873       30.905       19.412     1147.387      955.099      376.808        1.077        0.124      137.905       18.984        0.019      335.804        6.682      855.018
03/01/2014  23:13:00      -88.327      -74.688        5.382       62.387       33.415       29.906     3892.129     1116.559      894.396        0.966        0.295      115.672       37.032        0.102      335.802        6.677      855.032
03/01/2014  23:14:00     -102.511      -96.078       -5.639       31.808       29.907       16.533     1011.736      894.421      273.328        1.098        0.109      140.497        9.892        0.005      335.790        6.659      855.034
03/01/2014  23:15:00     -136.723      -41.547       -0.349       83.035       46.864       29.686     6894.823     2196.268      881.252        1.519        0.499      142.896       36.387        0.065      335.767        6.620      855.014
03/01/2014  23:16:00      -70.530      -26.111       -1.051       53.273       30.968       27.898     2838.018      959.036      778.306        0.512        0.229       75.208       26.366        0.123      335.779        6.642      855.007
03/01/2014  23:17:00      -85.124      -40.167        3.476       50.353       43.451       24.595     2535.466     1888.018      604.911        0.695        0.251       94.125       23.977        0.065      335.718        6.540      855.008
03/01/2014  23:18:00     -155.447      -43.540      -13.040       26.181       31.068       20.880      685.458      965.225      435.973        1.416        0.104      161.429       15.822        0.010      335.585        6.317      855.020
03/01/2014  23:19:00     -149.382      -80.957       -8.902       26.214       34.369       25.038      687.174     1181.244      626.890        1.572        0.125      169.909       16.420        0.009      335.465        6.115      855.032
03/01/2014  23:20:00      -98.444      -39.491        1.037       59.257       50.338       28.025     3511.378     2533.949      785.379        0.904        0.342      106.069       28.103        0.070      335.459        6.106      855.035
03/01/2014  23:21:00      -92.339       -5.116        4.542       58.696       41.787       24.588     3445.242     1746.125      604.592        0.718        0.290       92.481       25.280        0.075      335.387        5.986      855.029
03/01/2014  23:22:00     -139.368      -27.215       -2.890       43.897       33.981       21.966     1926.934     1154.696      482.509        1.187        0.178      142.000       24.800        0.031      335.371        5.960      855.021
03/01/2014  23:23:00     -129.683      -21.872       -0.042       45.632       39.478       24.519     2082.241     1558.519      601.203        1.077        0.212      131.515       28.631        0.047      335.366        5.951      855.016
03/01/2014  23:24:00     -110.436      -44.367        0.776       52.047       42.764       26.592     2708.840     1828.731      707.143        0.970        0.262      119.015       26.367        0.049      335.351        5.926      855.025
03/01/2014  23:25:00     -123.696      -53.037       -2.466       39.868       35.195       23.695     1589.422     1238.678      561.444        1.075        0.169      134.587       20.931        0.024      335.389        5.990      855.032
03/01/2014  23:26:00     -111.088      -41.332        4.214       33.851       36.354       23.062     1145.872     1321.599      531.877        0.853        0.150      118.528       20.495        0.030      335.363        5.946      855.046
03/01/2014  23:27:00     -102.782      -32.504       -1.038       37.354       31.532       19.502     1395.340      994.265      380.343        0.720        0.138      107.799       20.709        0.037      335.406        6.019      855.052
03/01/2014  23:28:00     -109.949      -28.481        2.651       47.830       31.360       23.496     2287.685      983.453      552.054        0.836        0.191      113.578       27.909        0.060      335.329        5.889      855.054
03/01/2014  23:29:00      -86.253      -25.462       -2.405       39.061       24.124       16.051     1525.790      581.979      257.648        0.523        0.118       89.932       12.212        0.018      335.352        5.929      855.068
03/01/2014  23:30:00      -77.035      -42.660       -2.886       28.009       22.897       15.955      784.495      524.283      254.567        0.466        0.078       88.058       14.709        0.028      335.350        5.926      855.073
03/01/2014  23:31:00     -104.115      -31.101       -6.602       22.957       24.563       16.175      527.014      603.328      261.637        0.662        0.070      108.661       15.129        0.019      335.315        5.867      855.082
03/01/2014  23:32:00      -48.031      -45.994       -1.224       30.484       19.939       13.657      929.297      397.552      186.523        0.297        0.076       66.501       12.895        0.038      335.403        6.014      855.098
03/01/2014  23:33:00      -93.147      -22.035       -0.531       30.870       16.020       14.878      952.947      256.639      221.349        0.530        0.072       95.718       16.383        0.029      335.293        5.830      855.101
03/01/2014  23:34:00      -95.835      -31.133        0.706       32.796       20.956       17.157     1075.567      439.166      294.367        0.598        0.090      100.765       14.778        0.022      335.220        5.709      855.103
03/01/2014  23:35:00     -112.037      -28.996        2.445       32.847       21.590       18.589     1078.954      466.137      345.538        0.764        0.095      115.728       15.601        0.018      335.188        5.656      855.103
03/01/2014  23:36:00     -102.960      -11.619        0.042       34.490       23.397       17.209     1189.538      547.403      296.158        0.638        0.102      103.613       17.975        0.030      335.114        5.533      855.103
03/01/2014  23:37:00      -72.123      -14.163        7.548       36.699       32.419       23.232     1346.802     1051.017      539.718        0.420        0.147       73.500       23.631        0.103      335.117        5.539      855.099
03/01/2014  23:38:00      -71.131       -5.159        4.307       41.964       28.455       19.113     1760.963      809.677      365.313        0.402        0.147       71.318       22.853        0.103      335.103        5.516      855.100
03/01/2014  23:39:00     -105.515       -4.589      -12.697       20.509       23.017       14.937      420.602      529.782      223.121        0.624        0.059      105.615       11.558        0.012      335.268        5.787      855.108
03/01/2014  23:40:00      -72.344      -15.720       -7.567       19.430       23.589       12.510      377.514      556.453      156.492        0.331        0.055       74.032       11.359        0.024      335.257        5.770      855.117
03/01/2014  23:41:00      -65.293      -26.922       -5.729       17.051       15.888       13.206      290.723      252.432      174.408        0.287        0.036       70.625        7.048        0.010      335.274        5.798      855.120
03/01/2014  23:42:00      -31.706      -27.562        4.957       24.832       27.829       14.341      616.610      774.450      205.670        0.169        0.080       42.011       13.892        0.109      335.209        5.690      855.139
03/01/2014  23:43:00      -62.303      -28.282        5.591       28.599       25.822       18.925      817.909      666.790      358.168        0.328        0.092       68.421       17.219        0.063      335.077        5.472      855.149
03/01/2014  23:44:00      -98.359       24.207       -9.474       32.337       21.931       14.628     1045.676      480.986      213.973        0.605        0.087      101.294       11.737        0.013      335.069        5.459      855.154
03/01/2014  23:45:00      -69.217       11.077       -6.294       24.350       22.301       14.943      592.942      497.315      223.291        0.313        0.066       70.098        7.193        0.011      335.198        5.672      855.160
03/01/2014  23:46:00      -57.068      -16.187       -6.527       20.932       20.246       10.765      438.140      409.883      115.884        0.226        0.048       59.319        7.657        0.017      335.135        5.568      855.160
03/01/2014  23:47:00       -8.266      -16.167       -2.440       16.635       10.249       13.043      276.728      105.043      170.113        0.044        0.028       18.158        8.636        0.226      335.091        5.496      855.162
03/01/2014  23:48:00      -11.923       -7.832        1.364       19.209       11.899       11.180      368.990      141.591      125.002        0.042        0.032       14.266       10.125        0.504      335.047        5.422      855.167
03/01/2014  23:49:00      -23.762      -18.561       -6.944        8.068        7.406       12.591       65.087       54.852      158.537        0.062        0.014       30.152        4.121        0.019      335.023        5.383      855.164
03/01/2014  23:50:00      -22.455      -22.069       -3.332       10.012        8.347        8.284      100.236       69.674       68.632        0.062        0.012       31.485        3.652        0.013      335.080        5.477      855.166
03/01/2014  23:51:00      -29.315      -14.569       -1.046       10.160        8.489       11.988      103.216       72.058      143.724        0.070        0.016       32.735        8.659        0.070      335.141        5.579      855.165
03/01/2014  23:52:00      -31.198      -10.974       -1.792        9.369       13.024       10.660       87.773      169.618      113.635        0.073        0.019       33.072        6.815        0.042      335.291        5.827      855.185
03/01/2014  23:53:00      -42.203      -22.718       -5.756        6.514        9.729        9.165       42.436       94.652       83.989        0.128        0.011       47.929        3.475        0.005      335.226        5.718      855.208
03/01/2014  23:54:00      -46.921      -22.818       -7.339        6.376        7.014        5.338       40.654       49.191       28.494        0.145        0.006       52.175        2.726        0.003      335.182        5.646      855.247
03/01/2014  23:55:00      -66.454      -33.807      -12.396       17.102       11.453        9.196      292.490      131.178       84.572        0.311        0.025       74.558        6.562        0.008      335.153        5.597      855.290
03/01/2014  23:56:00      -93.697      -15.993       -6.684       21.945       16.249       10.644      481.590      264.031      113.300        0.497        0.043       95.052        7.160        0.006      335.023        5.381      855.344
03/01/2014  23:57:00      -88.971      -33.042       -5.386       20.184       21.174       13.513      407.412      448.351      182.604        0.504        0.052       94.909       12.188        0.016      334.949        5.260      855.391
03/01/2014  23:58:00      -88.487      -42.590       -5.724       10.888       13.959        7.967      118.550      194.848       63.474        0.503        0.019       98.203        6.920        0.005      334.977        5.306      855.435
03/01/2014  23:59:00      -76.024      -31.827       -8.098       11.967        8.471        6.818      143.203       71.753       46.488        0.356        0.013       82.417        5.157        0.004      334.980        5.310      855.476
